[[{"header":{"parameterUnit":"m.s-1","parameterCategory":1,"la1":31.0,"la2":29.5877,"lo1":-88.7671,"lo2":-86.6584,"dx":0.0162,"dy":0.0185,"nx":115,"ny":88,"refTime":"2022-12-04T06:00:00:Z","depth":0,"parameterNumber":2,"parameterNumberName":"U-component_of_WINDS"},"data":[0.0,0.0,0.0,0.0,0.0,0.0,0.0,0.0,0.0,0.0,0.0,0.0,0.0,0.0,0.0,0.0,0.0,0.0,0.0,0.0,0.0,0.0,0.0,0.0,0.0,0.0,0.0,0.0,0.0,0.0,0.0,0.0,0.0,0.0,0.0,0.0,0.0,0.0,0.0,0.0,0.0,0.0,0.0,0.0,0.0,0.0,0.0,0.0,0.0,0.0,0.0,0.0,0.0,0.0,0.0,0.0,0.0,0.0,0.0,0.0,0.0,0.0,0.0,0.0,0.0,0.0,0.0,0.0,0.0,0.0,0.0,0.0,0.0,0.0,0.0,0.0,0.0,0.0,0.0,0.0,0.0,0.0,0.0,0.0,0.0,0.0,0.0,0.0,0.0,0.0,0.0,0.0,0.0,0.0,0.0,0.0,0.0,0.0,0.0,0.0,0.0,0.0,0.0,0.0,0.0,0.0,0.0,0.0,0.0,0.0,0.0,0.0,0.0,0.0,0.0,0.0,0.0,0.0,0.0,0.0,0.0,0.0,0.0,0.0,0.0,0.0,0.0,0.0,0.0,0.0,0.0,0.0,0.0,0.0,0.0,0.0,0.0,0.0,0.0,0.0,0.0,0.0,0.0,0.0,0.0,0.0,0.0,0.0,0.0,0.0,0.0,0.0,0.0,0.0,0.0,0.0,0.0,0.0,0.0,0.0,0.0,0.0,0.0,0.0,0.0,0.0,0.0,0.0,0.0,0.0,0.0,0.0,0.0,0.0,0.0,0.0,0.0,0.0,0.0,0.0,0.0,0.0,0.0,0.0,0.0,0.0,0.0,0.0,0.0,0.0,0.0,0.0,0.0,0.0,0.0,0.0,0.0,0.0,0.0,0.0,0.0,0.0,0.0,0.0,0.0,0.0,0.0,0.0,0.0,0.0,0.0,0.0,0.0,0.0,0.0,0.0,0.0,0.0,0.0,0.0,0.0,0.0,0.0,0.0,0.0,0.0,0.0,0.0,0.0,0.0,0.0,0.0,0.0,0.0,0.0,0.0,0.0,0.0,0.0,0.0,0.0,0.0,0.0,0.0,0.0,0.0,0.0,0.0,0.0,0.0,0.0,0.0,0.0,0.0,0.0,0.0,0.0,0.0,0.0,0.0,0.0,0.0,0.0,0.0,0.0,0.0,0.0,0.0,0.0,0.0,0.0,0.0,0.0,0.0,0.0,0.0,0.0,0.0,0.0,0.0,0.0,0.0,0.0,0.0,0.0,0.0,0.0,0.0,0.0,0.0,0.0,0.0,0.0,0.0,0.0,0.0,0.0,0.0,0.0,0.0,0.0,0.0,0.0,0.0,0.0,0.0,0.0,0.0,0.0,0.0,0.0,0.0,0.0,0.0,0.0,0.0,0.0,0.0,0.0,0.0,0.0,0.0,0.0,0.0,0.0,0.0,0.0,0.0,0.0,0.0,0.0,0.0,0.0,0.0,0.0,0.0,0.0,0.0,0.0,0.0,0.0,0.0,0.0,0.0,0.0,0.0,0.0,0.0,0.0,0.0,0.0,0.0,0.0,0.0,0.0,0.0,0.0,0.0,0.0,0.0,0.0,0.0,0.0,0.0,0.0,0.0,0.0,0.0,0.0,0.0,0.0,0.0,0.0,0.0,0.0,0.0,0.0,0.0,0.0,0.0,0.0,0.0,0.0,0.0,0.0,0.0,0.0,0.0,0.0,0.0,0.0,0.0,0.0,0.0,0.0,0.0,0.0,0.0,0.0,0.0,0.0,0.0,0.0,0.0,0.0,0.0,0.0,0.0,0.0,0.0,0.0,0.0,0.0,0.0,0.0,0.0,0.0,0.0,0.0,0.0,0.0,0.0,0.0,0.0,0.0,0.0,0.0,0.0,0.0,0.0,0.0,0.0,0.0,0.0,0.0,0.0,0.0,0.0,0.0,0.0,0.0,0.0,0.0,0.0,0.0,0.0,0.0,0.0,0.0,0.0,0.0,0.0,0.0,0.0,0.0,0.0,0.0,0.0,0.0,0.0,0.0,0.0,0.0,0.0,0.0,0.0,0.0,0.0,0.0,0.0,0.0,0.0,0.0,0.0,0.0,0.0,0.0,0.0,0.0,0.0,0.0,0.0,0.0,0.0,0.0,0.0,0.0,0.0,0.0,0.0,0.0,0.0,0.0,0.0,0.0,0.0,0.0,0.0,0.0,0.0,0.0,0.0,0.0,0.0,0.0,0.0,0.0,0.0,0.0,0.0,0.0,0.0,0.0,0.0,0.0,0.0,0.0,0.0,0.0,0.0,0.0,0.0,0.0,0.0,0.0,0.0,0.0,0.0,0.0,0.0,0.0,0.0,0.0,0.0,0.0,0.0,0.0,0.0,0.0,0.0,0.0,0.0,0.0,0.0,0.0,0.0,0.0,0.0,0.0,0.0,0.0,0.0,0.0,0.0,0.0,0.0,0.0,0.0,0.0,0.0,0.0,0.0,0.0,0.0,0.0,0.0,0.0,0.0,0.0,0.0,0.0,0.0,0.0,0.0,0.0,0.0,0.0,0.0,0.0,0.0,0.0,0.0,0.0,0.0,0.0,0.0,0.0,0.0,0.0,0.0,0.0,0.0,0.0,0.0,0.0,0.0,0.0,0.0,0.0,0.0,0.0,0.0,0.0,0.0,0.0,0.0,0.0,0.0,0.0,0.0,0.0,0.0,0.0,0.0,0.0,0.0,0.0,0.0,0.0,0.0,0.0,0.0,0.0,0.0,0.0,0.0,0.0,0.0,0.0,0.0,0.0,0.0,0.0,0.0,0.0,0.0,0.0,0.0,0.0,0.0,0.0,0.0,0.0,0.0,0.0,0.0,0.0,0.0,0.0,0.0,0.0,0.0,0.0,0.0,0.0,0.0,0.0,0.0,0.0,0.0,0.0,0.0,0.0,0.0,0.0,0.0,0.0,0.0,0.0,0.0,0.0,0.0,0.0,0.0,0.0,0.0,0.0,0.0,0.0,0.0,0.0,0.0,0.0,0.0,0.0,0.0,0.0,0.0,0.0,0.0,0.0,0.0,0.0,0.0,0.0,0.0,0.0,0.0,0.0,0.0,0.0,0.0,0.0,0.0,0.0,0.0,0.0,0.0,0.0,0.0,0.0,0.0,0.0,0.0,0.0,0.0,0.0,0.0,0.0,0.0,0.0,0.0,0.0,0.0,0.0,0.0,0.0,0.0,0.0,0.0,0.0,0.0,0.0,0.0,0.0,0.0,0.0,0.0,0.0,0.0,0.0,0.0,0.0,0.0,0.0,0.0,0.0,0.0,0.0,0.0,0.0,0.0,0.0,0.0,0.0,0.0,0.0,0.0,0.0,0.0,0.0,0.0,0.0,0.0,0.0,0.0,0.0,0.0,0.0,0.0,0.0,0.0,0.0,0.0,0.0,0.0,0.0,0.0,0.0,0.0,0.0,0.0,0.0,0.0,0.0,0.0,0.0,0.0,0.0,0.0,0.0,0.0,0.0,0.0,0.0,0.0,0.0,0.0,0.0,0.0,0.0,0.0,0.0,0.0,0.0,0.0,0.0,0.0,0.0,0.0,0.0,0.0,0.0,0.0,0.0,0.0,0.0,0.0,0.0,0.0,0.0,0.0,0.0,0.0,0.0,0.0,0.0,0.0,0.0,0.0,0.0,0.0,0.0,0.0,0.0,0.0,0.0,0.0,0.0,0.0,0.0,0.0,0.0,0.0,0.0,0.0,0.0,0.0,0.0,0.0,0.0,0.0,0.0,0.0,0.0,0.0,0.0,0.0,0.0,0.0,0.0,0.0,0.0,0.0,0.0,0.0,0.0,0.0,0.0,0.0,0.0,0.0,0.0,0.0,0.0,0.0,0.0,0.0,0.0,0.0,0.0,0.0,0.0,0.0,0.0,0.0,0.0,0.0,0.0,0.0,0.0,0.0,0.0,0.0,0.0,0.0,0.0,0.0,0.0,0.0,0.0,0.0,0.0,0.0,0.0,0.0,0.0,0.0,0.0,0.0,0.0,0.0,0.0,0.0,0.0,0.0,0.0,0.0,0.0,0.0,0.0,0.0,0.0,0.0,0.0,0.0,0.0,0.0,0.0,0.0,0.0,0.0,0.0,0.0,0.0,0.0,0.0,0.0,0.0,0.0,0.0,0.0,0.0,0.0,0.0,0.0,0.0,0.0,0.0,0.0,0.0,0.0,0.0,0.0,0.0,0.0,0.0,0.0,0.0,0.0,0.0,0.0,-0.6912,0.0,0.0,0.0,-0.637,0.0,0.0,0.0,0.0,0.0,0.0,0.0,0.0,0.0,0.0,0.0,0.0,0.0,0.0,0.0,0.0,0.0,0.0,0.0,0.0,0.0,0.0,0.0,0.0,0.0,0.0,0.0,0.0,0.0,0.0,0.0,0.0,0.0,0.0,0.0,0.0,0.0,0.0,0.0,0.0,0.0,0.0,0.0,0.0,0.0,0.0,0.0,0.0,0.0,0.0,0.0,0.0,0.0,0.0,0.0,0.0,0.0,0.0,0.0,0.0,0.0,0.0,0.0,0.0,0.0,0.0,0.0,0.0,0.0,0.0,0.0,0.0,0.0,0.0,0.0,0.0,0.0,0.0,0.0,0.0,0.0,0.0,0.0,0.0,0.0,0.0,0.0,0.0,0.0,0.0,0.0,0.0,0.0,0.0,0.0,0.0,0.0,0.0,0.0,0.0,0.0,0.0,0.0,0.0,0.0,0.0,0.0,0.0,0.0,0.0,-0.6524,-0.5791,-0.6484,-0.6717,-0.635,0.0,0.0,0.0,0.0,0.0,0.0,0.0,0.0,0.0,0.0,0.0,0.0,0.0,0.0,0.0,0.0,0.0,0.0,0.0,0.0,0.0,0.0,0.0,0.0,0.0,0.0,0.0,0.0,0.0,0.0,0.0,0.0,0.0,0.0,0.0,0.0,0.0,0.0,0.0,0.0,0.0,0.0,0.0,0.0,0.0,0.0,0.0,0.0,0.0,0.0,0.0,0.0,0.0,0.0,0.0,0.0,0.0,0.0,0.0,0.0,0.0,0.0,0.0,0.0,0.0,0.0,0.0,0.0,0.0,0.0,0.0,0.0,0.0,0.0,0.0,0.0,0.0,0.0,0.0,0.0,0.0,0.0,0.0,0.0,0.0,0.0,0.0,0.0,0.0,0.0,0.0,0.0,0.0,0.0,0.0,0.0,0.0,0.0,0.0,0.0,0.0,0.0,0.0,0.0,0.0,0.0,0.0,0.0,0.0,0.0,0.0,0.0,-0.6388,-0.66,-0.662,0.0,0.0,0.0,0.0,0.0,0.0,0.0,0.0,0.0,0.0,0.0,0.0,0.0,0.0,0.0,0.0,0.0,0.0,0.0,0.0,0.0,0.0,0.0,0.0,0.0,0.0,0.0,0.0,0.0,0.0,0.0,0.0,0.0,0.0,0.0,0.0,0.0,0.0,0.0,0.0,0.0,0.0,0.0,0.0,0.0,0.0,0.0,0.0,0.0,0.0,0.0,0.0,0.0,0.0,0.0,0.0,0.0,0.0,0.0,0.0,0.0,0.0,0.0,0.0,0.0,0.0,0.0,0.0,0.0,0.0,0.0,0.0,0.0,0.0,0.0,0.0,0.0,0.0,0.0,0.0,0.0,0.0,0.0,0.0,0.0,0.0,0.0,0.0,0.0,0.0,0.0,0.0,0.0,0.0,0.0,0.0,0.0,0.0,0.0,0.0,0.0,0.0,0.0,0.0,0.0,0.0,0.0,0.0,0.0,0.0,-0.5963,-0.5251,-0.6658,0.0,-0.7489,0.0,0.0,0.0,0.0,0.0,0.0,0.0,0.0,0.0,0.0,0.0,0.0,0.0,0.0,0.0,0.0,0.0,0.0,0.0,0.0,0.0,0.0,0.0,0.0,0.0,0.0,0.0,0.0,0.0,0.0,0.0,0.0,0.0,0.0,0.0,0.0,0.0,0.0,0.0,0.0,0.0,0.0,0.0,0.0,0.0,0.0,0.0,0.0,0.0,0.0,0.0,0.0,0.0,0.0,0.0,0.0,0.0,0.0,0.0,0.0,0.0,0.0,0.0,0.0,0.0,0.0,0.0,0.0,0.0,0.0,0.0,0.0,0.0,0.0,0.0,0.0,0.0,0.0,0.0,0.0,0.0,0.0,0.0,0.0,0.0,0.0,0.0,0.0,0.0,0.0,0.0,0.0,0.0,0.0,0.0,0.0,0.0,0.0,0.0,0.0,0.0,0.0,0.0,0.0,0.0,0.0,0.0,0.0,0.0,0.0,-0.5443,-0.5094,-0.5774,-0.6101,0.0,0.0,0.0,0.0,0.0,0.0,0.0,0.0,0.0,0.0,0.0,0.0,0.0,0.0,0.0,0.0,0.0,0.0,0.0,0.0,0.0,0.0,0.0,0.0,0.0,0.0,0.0,0.0,0.0,0.0,0.0,0.0,0.0,0.0,0.0,0.0,0.0,0.0,0.0,0.0,0.0,0.0,0.0,0.0,0.0,0.0,0.0,0.0,0.0,0.0,0.0,0.0,0.0,0.0,0.0,0.0,0.0,0.0,0.0,0.0,0.0,0.0,0.0,0.0,0.0,0.0,0.0,0.0,0.0,0.0,0.0,0.0,0.0,0.0,0.0,0.0,0.0,0.0,0.0,0.0,0.0,0.0,0.0,0.0,0.0,0.0,0.0,0.0,0.0,0.0,0.0,0.0,0.0,0.0,0.0,0.0,0.0,0.0,0.0,0.0,0.0,0.0,0.0,0.0,0.0,0.0,0.0,0.0,0.0,0.0,-0.528,-0.55,-0.5704,-0.552,-0.5408,-0.5387,0.0,0.0,0.0,0.0,0.0,0.0,0.0,0.0,0.0,0.0,0.0,0.0,0.0,0.0,0.0,0.0,0.0,0.0,0.0,0.0,0.0,0.0,0.0,0.0,0.0,0.0,0.0,0.0,0.0,0.0,0.0,0.0,0.0,0.0,0.0,0.0,0.0,0.0,0.0,0.0,0.0,0.0,0.0,0.0,0.0,0.0,0.0,0.0,0.0,0.0,0.0,0.0,0.0,0.0,0.0,0.0,0.0,0.0,0.0,0.0,0.0,0.0,0.0,0.0,0.0,0.0,0.0,0.0,0.0,0.0,0.0,0.0,0.0,0.0,0.0,0.0,0.0,0.0,0.0,0.0,0.0,0.0,0.0,0.0,0.0,0.0,0.0,0.0,0.0,0.0,0.0,0.0,0.0,0.0,0.0,0.0,0.0,0.0,0.0,0.0,0.0,0.0,0.0,0.0,0.0,0.0,0.0,0.0,-0.5036,-0.5757,-0.6515,-0.7217,-0.6546,-0.616,0.0,0.0,0.0,0.0,0.0,0.0,0.0,0.0,0.0,0.0,0.0,0.0,0.0,0.0,0.0,0.0,0.0,0.0,0.0,0.0,0.0,0.0,0.0,0.0,0.0,0.0,0.0,0.0,0.0,0.0,0.0,0.0,0.0,0.0,0.0,0.0,0.0,0.0,0.0,0.0,0.0,0.0,0.0,0.0,0.0,0.0,0.0,0.0,0.0,0.0,0.0,0.0,0.0,0.0,0.0,0.0,0.0,0.0,0.0,0.0,0.0,0.0,0.0,0.0,0.0,0.0,0.0,0.0,0.0,0.0,0.0,0.0,0.0,0.0,0.0,0.0,0.0,0.0,0.0,0.0,0.0,0.0,0.0,0.0,0.0,0.0,0.0,0.0,0.0,0.0,0.0,0.0,0.0,0.0,0.0,0.0,0.0,0.0,0.0,0.0,0.0,0.0,0.0,0.0,0.0,0.0,0.0,0.0,0.0,-0.5757,-0.655,-0.71,-0.7376,-0.7119,-0.6727,0.0,0.0,0.0,0.0,0.0,0.0,0.0,0.0,0.0,0.0,0.0,0.0,0.0,0.0,0.0,0.0,0.0,0.0,0.0,0.0,0.0,0.0,0.0,0.0,0.0,0.0,0.0,0.0,0.0,0.0,0.0,0.0,0.0,0.0,0.0,0.0,0.0,0.0,0.0,0.0,0.0,0.0,0.0,0.0,0.0,0.0,0.0,0.0,0.0,0.0,0.0,0.0,0.0,0.0,0.0,0.0,0.0,0.0,0.0,0.0,0.0,0.0,0.0,0.0,0.0,0.0,0.0,0.0,0.0,0.0,0.0,0.0,0.0,0.0,0.0,0.0,0.0,0.0,0.0,0.0,0.0,0.0,0.0,0.0,0.0,0.0,0.0,0.0,0.0,0.0,0.0,0.0,0.0,0.0,0.0,0.0,0.0,0.0,0.0,0.0,0.0,0.0,0.0,0.0,0.0,0.0,0.0,0.0,0.0,-0.6919,-0.7477,-0.7881,-0.8126,-0.7884,-0.7387,0.0,0.0,0.0,0.0,0.0,0.0,0.0,0.0,0.0,0.0,0.0,0.0,0.0,0.0,0.0,0.0,0.0,0.0,0.0,0.0,0.0,0.0,0.0,0.0,0.0,0.0,0.0,0.0,0.0,0.0,0.0,0.0,0.0,0.0,0.0,0.0,0.0,0.0,0.0,0.0,0.0,0.0,0.0,0.0,0.0,0.0,0.0,0.0,0.0,0.0,0.0,0.0,0.0,0.0,0.0,0.0,0.0,0.0,0.0,0.0,0.0,0.0,0.0,0.0,0.0,0.0,0.0,0.0,0.0,0.0,0.0,0.0,0.0,0.0,0.0,0.0,0.0,0.0,0.0,0.0,0.0,0.0,0.0,0.0,0.0,0.0,0.0,0.0,0.0,0.0,0.0,0.0,0.0,0.0,0.0,0.0,0.0,0.0,0.0,0.0,0.0,0.0,0.0,0.0,0.0,0.0,0.0,0.0,-0.6896,-0.8391,-0.8501,-0.8857,-0.9629,-0.8908,-0.8137,0.0,0.0,0.0,0.0,0.0,0.0,0.0,0.0,0.0,0.0,0.0,0.0,0.0,0.0,0.0,0.0,0.0,0.0,0.0,0.0,0.0,0.0,0.0,0.0,0.0,0.0,0.0,0.0,0.0,0.0,0.0,0.0,0.0,0.0,0.0,0.0,0.0,0.0,0.0,0.0,0.0,0.0,0.0,0.0,0.0,0.0,0.0,0.0,0.0,0.0,0.0,0.0,0.0,0.0,0.0,0.0,0.0,0.0,0.0,0.0,0.0,0.0,0.0,0.0,0.0,0.0,0.0,0.0,0.0,0.0,0.0,0.0,0.0,0.0,0.0,0.0,0.0,0.0,0.0,0.0,0.0,0.0,0.0,0.0,0.0,0.0,0.0,0.0,0.0,0.0,0.0,0.0,0.0,0.0,0.0,0.0,0.0,0.0,0.0,0.0,0.0,0.0,0.0,0.0,0.0,0.0,0.0,0.0,0.0,-0.8498,-0.9052,-0.9441,-0.9658,-0.9459,-0.896,0.0,0.0,0.0,0.0,0.0,0.0,0.0,0.0,0.0,0.0,0.0,0.0,0.0,0.0,0.0,0.0,0.0,0.0,0.0,0.0,0.0,0.0,0.0,0.0,0.0,0.0,0.0,0.0,0.0,0.0,0.0,0.0,0.0,0.0,0.0,0.0,0.0,0.0,0.0,0.0,0.0,0.0,0.0,0.0,0.0,0.0,0.0,0.0,0.0,0.0,0.0,0.0,0.0,0.0,0.0,0.0,0.0,0.0,0.0,0.0,0.0,0.0,0.0,0.0,0.0,0.0,0.0,0.0,0.0,0.0,0.0,0.0,0.0,0.0,0.0,0.0,0.0,0.0,0.0,0.0,0.0,0.0,0.0,0.0,0.0,0.0,0.0,0.0,0.0,0.0,0.0,0.0,0.0,0.0,0.0,0.0,0.0,0.0,0.0,0.0,0.0,0.0,0.0,0.0,0.0,0.0,0.0,0.0,0.0,-0.9856,-1.0043,-1.0149,-1.0153,-1.0157,-0.9635,-0.8556,0.0,0.0,0.0,0.0,0.0,0.0,0.0,0.0,0.0,0.0,0.0,0.0,0.0,0.0,0.0,0.0,0.0,0.0,0.0,0.0,0.0,0.0,0.0,0.0,0.0,0.0,0.0,0.0,0.0,0.0,0.0,0.0,0.0,0.0,0.0,0.0,0.0,0.0,0.0,0.0,0.0,0.0,0.0,0.0,0.0,0.0,0.0,0.0,0.0,0.0,0.0,0.0,0.0,0.0,0.0,0.0,0.0,0.0,0.0,0.0,0.0,0.0,0.0,0.0,0.0,0.0,0.0,0.0,0.0,0.0,0.0,0.0,0.0,0.0,0.0,0.0,0.0,0.0,0.0,0.0,0.0,0.0,0.0,0.0,0.0,0.0,0.0,0.0,0.0,0.0,0.0,0.0,0.0,0.0,0.0,0.0,0.0,0.0,0.0,0.0,0.0,0.0,0.0,0.0,0.0,0.0,0.0,0.0,-1.2155,-1.1521,-1.1154,-1.1063,-1.0985,-1.0237,0.0,0.0,0.0,0.0,0.0,0.0,0.0,0.0,0.0,0.0,0.0,0.0,0.0,0.0,0.0,0.0,0.0,0.0,0.0,0.0,0.0,0.0,0.0,0.0,0.0,0.0,0.0,0.0,0.0,0.0,0.0,0.0,0.0,0.0,0.0,0.0,0.0,0.0,0.0,0.0,0.0,0.0,0.0,0.0,0.0,0.0,0.0,0.0,0.0,0.0,0.0,0.0,0.0,0.0,0.0,0.0,0.0,0.0,0.0,0.0,0.0,0.0,0.0,0.0,0.0,0.0,0.0,0.0,0.0,0.0,0.0,0.0,0.0,0.0,0.0,0.0,0.0,0.0,0.0,0.0,0.0,0.0,0.0,0.0,0.0,0.0,0.0,0.0,0.0,0.0,0.0,0.0,0.0,0.0,0.0,0.0,0.0,0.0,0.0,0.0,0.0,0.0,0.0,0.0,0.0,0.0,0.0,0.0,0.0,-1.2986,-1.3936,-1.3893,-1.2729,-1.21,-1.1301,0.0,0.0,0.0,0.0,0.0,0.0,0.0,0.0,0.0,0.0,0.0,0.0,0.0,0.0,0.0,0.0,0.0,0.0,0.0,0.0,0.0,0.0,0.0,0.0,0.0,0.0,0.0,0.0,0.0,0.0,0.0,0.0,0.0,0.0,0.0,0.0,0.0,0.0,0.0,0.0,0.0,0.0,0.0,0.0,0.0,0.0,0.0,0.0,0.0,0.0,0.0,0.0,0.0,0.0,0.0,0.0,0.0,0.0,0.0,0.0,0.0,0.0,0.0,0.0,0.0,0.0,0.0,0.0,0.0,0.0,0.0,0.0,0.0,0.0,0.0,0.0,0.0,0.0,0.0,0.0,0.0,0.0,0.0,0.0,0.0,0.0,0.0,0.0,0.0,0.0,0.0,0.0,0.0,0.0,0.0,0.0,0.0,0.0,0.0,0.0,0.0,0.0,0.0,0.0,0.0,0.0,0.0,0.0,-1.3668,-1.4811,-1.672,-1.7105,-1.5851,-1.3721,-1.2228,0.0,0.0,0.0,0.0,0.0,0.0,0.0,0.0,0.0,0.0,0.0,0.0,0.0,0.0,0.0,0.0,0.0,0.0,0.0,0.0,0.0,0.0,0.0,0.0,0.0,0.0,0.0,0.0,0.0,0.0,0.0,0.0,0.0,0.0,0.0,0.0,0.0,0.0,0.0,0.0,0.0,0.0,0.0,0.0,0.0,0.0,0.0,0.0,0.0,0.0,0.0,0.0,0.0,0.0,0.0,0.0,0.0,0.0,0.0,0.0,0.0,0.0,0.0,0.0,0.0,0.0,0.0,0.0,0.0,0.0,0.0,0.0,0.0,0.0,0.0,0.0,0.0,0.0,0.0,0.0,0.0,0.0,0.0,0.0,0.0,0.0,0.0,0.0,0.0,0.0,0.0,0.0,0.0,0.0,0.0,0.0,0.0,0.0,0.0,0.0,0.0,0.0,0.0,0.0,0.0,0.0,0.0,0.0,-1.5411,-1.7,-1.9384,-2.0236,-1.9352,-1.5631,-1.3133,0.0,0.0,0.0,0.0,0.0,0.0,0.0,0.0,0.0,0.0,0.0,0.0,0.0,0.0,0.0,0.0,0.0,0.0,0.0,0.0,0.0,0.0,0.0,0.0,0.0,0.0,0.0,0.0,0.0,0.0,0.0,0.0,0.0,0.0,0.0,0.0,0.0,0.0,0.0,0.0,0.0,0.0,0.0,0.0,0.0,0.0,0.0,0.0,0.0,0.0,0.0,0.0,0.0,0.0,0.0,0.0,0.0,0.0,0.0,0.0,0.0,0.0,0.0,0.0,0.0,0.0,0.0,0.0,0.0,0.0,0.0,0.0,0.0,0.0,0.0,0.0,0.0,0.0,0.0,0.0,0.0,0.0,0.0,0.0,0.0,0.0,0.0,0.0,0.0,0.0,0.0,0.0,0.0,0.0,0.0,0.0,0.0,0.0,0.0,0.0,0.0,0.0,0.0,0.0,0.0,0.0,0.0,0.0,-1.6243,-1.7832,-2.0262,-2.1106,-2.0254,-1.6958,-1.4505,0.0,0.0,0.0,0.0,0.0,0.0,0.0,0.0,0.0,0.0,0.0,0.0,0.0,0.0,0.0,0.0,0.0,0.0,0.0,0.0,0.0,0.0,0.0,0.0,0.0,0.0,0.0,0.0,0.0,0.0,0.0,0.0,0.0,0.0,0.0,0.0,0.0,0.0,0.0,0.0,0.0,0.0,0.0,0.0,0.0,0.0,0.0,0.0,-0.5955,0.0,0.0,0.0,0.0,0.0,0.0,0.0,0.0,0.0,0.0,0.0,0.0,0.0,0.0,0.0,0.0,0.0,0.0,0.0,0.0,0.0,0.0,0.0,0.0,0.0,0.0,0.0,0.0,0.0,0.0,0.0,0.0,0.0,0.0,0.0,0.0,0.0,0.0,0.0,0.0,0.0,0.0,0.0,0.0,0.0,0.0,0.0,0.0,0.0,0.0,0.0,0.0,0.0,0.0,0.0,0.0,0.0,0.0,0.0,-1.6848,-1.9182,-2.1272,-2.1951,-2.107,-1.8702,-1.6279,0.0,0.0,0.0,0.0,0.0,0.0,0.0,0.0,0.0,0.0,0.0,0.0,0.0,0.0,0.0,0.0,0.0,0.0,0.0,0.0,0.0,0.0,0.0,0.0,0.0,0.0,0.0,0.0,0.0,0.0,0.0,0.0,0.0,0.0,0.0,0.0,0.0,0.0,0.0,0.0,0.0,0.0,0.0,0.0,0.0,0.0,0.0,0.0,0.0,0.0,0.0,0.0,0.0,0.0,0.0,0.0,0.0,0.0,0.0,0.0,0.0,0.0,0.0,0.0,0.0,0.0,0.0,0.0,0.0,0.0,0.0,0.0,0.0,0.0,0.0,0.0,0.0,0.0,0.0,0.0,0.0,0.0,0.0,0.0,0.0,0.0,0.0,0.0,0.0,0.0,0.0,0.0,0.0,0.0,0.0,0.0,0.0,0.0,0.0,0.0,0.0,0.0,0.0,0.0,0.0,0.0,0.0,-1.5097,-1.7509,-2.0768,-2.2401,-2.2795,-2.1996,-2.0354,-1.7913,-1.4616,0.0,0.0,0.0,0.0,0.0,0.0,0.0,0.0,0.0,0.0,0.0,0.0,0.0,0.0,0.0,0.0,0.0,0.0,0.0,0.0,0.0,0.0,0.0,0.0,0.0,0.0,0.0,0.0,0.0,0.0,0.0,0.0,0.0,0.0,0.0,0.0,0.0,0.0,-0.6286,-0.5942,0.0,0.0,0.0,0.0,0.0,0.0,0.0,0.0,-0.6571,0.0,0.0,0.0,0.0,0.0,0.0,0.0,0.0,0.0,0.0,0.0,0.0,0.0,0.0,0.0,0.0,0.0,0.0,0.0,0.0,0.0,0.0,0.0,0.0,0.0,0.0,0.0,0.0,0.0,0.0,0.0,0.0,0.0,0.0,0.0,0.0,0.0,0.0,0.0,0.0,0.0,0.0,0.0,0.0,0.0,0.0,0.0,0.0,0.0,0.0,0.0,0.0,0.0,0.0,0.0,0.0,-1.4283,-1.5888,-1.8614,-2.2483,-2.3511,-2.3621,-2.2786,-2.119,-1.8474,-1.4708,0.0,0.0,0.0,0.0,0.0,0.0,0.0,0.0,0.0,0.0,0.0,0.0,0.0,0.0,0.0,0.0,0.0,0.0,0.0,0.0,0.0,0.0,0.0,0.0,0.0,0.0,0.0,0.0,0.0,0.0,0.0,0.0,0.0,0.0,0.0,0.0,0.0,0.0,0.0,-0.9478,-0.9168,0.0,0.0,0.0,0.0,0.0,0.0,0.0,0.0,-0.82,0.0,0.0,0.0,0.0,0.0,0.0,0.0,0.0,0.0,0.0,0.0,0.0,0.0,0.0,0.0,0.0,0.0,0.0,0.0,0.0,0.0,0.0,0.0,0.0,0.0,0.0,0.0,0.0,0.0,0.0,0.0,0.0,0.0,0.0,0.0,0.0,0.0,0.0,0.0,0.0,0.0,0.0,0.0,0.0,0.0,0.0,0.0,0.0,0.0,0.0,0.0,0.0,0.0,0.0,0.0,-1.5105,-1.7532,-2.0327,-2.3492,-2.4006,-2.3823,-2.3006,-2.1365,-1.8573,0.0,0.0,0.0,0.0,0.0,0.0,0.0,0.0,0.0,0.0,0.0,0.0,0.0,0.0,0.0,0.0,0.0,0.0,0.0,0.0,0.0,0.0,0.0,0.0,0.0,0.0,0.0,0.0,0.0,0.0,0.0,0.0,0.0,0.0,0.0,0.0,0.0,0.0,0.0,0.0,-1.1349,-1.1909,-1.0473,0.0,0.0,0.0,0.0,0.0,0.0,-1.0312,-0.8526,0.0,0.0,0.0,0.0,0.0,0.0,0.0,0.0,0.0,0.0,0.0,0.0,0.0,0.0,0.0,0.0,0.0,0.0,0.0,0.0,0.0,0.0,0.0,0.0,0.0,0.0,0.0,0.0,0.0,0.0,0.0,0.0,0.0,0.0,0.0,0.0,0.0,0.0,0.0,0.0,0.0,0.0,0.0,0.0,0.0,0.0,0.0,0.0,0.0,0.0,0.0,0.0,0.0,0.0,0.0,-1.5753,-1.886,-2.1777,-2.4309,-2.4428,-2.4135,-2.3474,-2.1538,-1.8624,0.0,0.0,0.0,0.0,0.0,0.0,0.0,0.0,0.0,0.0,0.0,0.0,0.0,0.0,0.0,0.0,0.0,0.0,0.0,0.0,0.0,0.0,0.0,0.0,0.0,0.0,0.0,0.0,0.0,0.0,0.0,0.0,0.0,0.0,0.0,0.0,0.0,0.0,0.0,0.0,0.0,-1.3217,-1.3752,-1.1526,0.0,0.0,0.0,0.0,-1.2595,-1.0768,0.0,0.0,0.0,0.0,0.0,0.0,0.0,0.0,0.0,0.0,0.0,0.0,0.0,0.0,0.0,0.0,0.0,0.0,0.0,0.0,0.0,0.0,0.0,0.0,0.0,0.0,0.0,0.0,0.0,0.0,0.0,0.0,0.0,0.0,0.0,0.0,0.0,0.0,0.0,0.0,0.0,0.0,0.0,0.0,0.0,0.0,0.0,0.0,0.0,0.0,0.0,0.0,0.0,0.0,0.0,0.0,-1.5747,-1.886,-2.2052,-2.5062,-2.5264,-2.5227,-2.5081,-2.2107,-1.8906,0.0,0.0,0.0,0.0,0.0,0.0,0.0,0.0,0.0,0.0,0.0,0.0,0.0,0.0,0.0,0.0,0.0,0.0,0.0,0.0,0.0,0.0,0.0,0.0,0.0,0.0,0.0,0.0,0.0,0.0,0.0,0.0,0.0,0.0,0.0,0.0,0.0,0.0,0.0,0.0,0.0,-1.1902,-1.4928,-1.3929,-1.1958,0.0,0.0,-1.0599,-1.2367,-1.2382,0.0,0.0,0.0,0.0,0.0,0.0,0.0,0.0,0.0,0.0,0.0,0.0,0.0,0.0,0.0,0.0,0.0,0.0,0.0,0.0,0.0,0.0,0.0,0.0,0.0,0.0,0.0,0.0,0.0,0.0,0.0,0.0,0.0,0.0,0.0,0.0,0.0,0.0,0.0,0.0,0.0,0.0,0.0,0.0,0.0,0.0,0.0,0.0,0.0,0.0,0.0,0.0,0.0,0.0,0.0,-1.5686,-1.6487,-2.0698,-2.3855,-2.5637,-2.5539,-2.523,-2.4792,-2.1718,-1.8528,0.0,0.0,0.0,0.0,0.0,0.0,0.0,0.0,0.0,0.0,0.0,0.0,0.0,0.0,0.0,0.0,0.0,0.0,0.0,0.0,0.0,0.0,0.0,0.0,0.0,0.0,0.0,0.0,0.0,0.0,0.0,0.0,0.0,0.0,0.0,0.0,0.0,0.0,0.0,0.0,0.0,0.0,-1.2928,-1.4648,0.0,0.0,0.0,-1.2114,-1.2141,0.0,0.0,0.0,0.0,0.0,0.0,0.0,0.0,0.0,0.0,0.0,0.0,0.0,0.0,0.0,0.0,0.0,0.0,0.0,0.0,0.0,0.0,0.0,0.0,0.0,0.0,0.0,0.0,0.0,0.0,0.0,0.0,0.0,0.0,0.0,0.0,0.0,0.0,0.0,0.0,0.0,0.0,0.0,0.0,0.0,0.0,0.0,0.0,0.0,0.0,0.0,0.0,0.0,0.0,0.0,0.0,0.0,-1.6993,-2.2224,-2.5348,-2.6108,-2.6098,-2.5656,-2.4757,-2.2109,0.0,0.0,0.0,0.0,0.0,0.0,0.0,0.0,0.0,0.0,0.0,0.0,0.0,0.0,0.0,0.0,0.0,0.0,0.0,0.0,0.0,0.0,0.0,0.0,0.0,0.0,0.0,-0.5412,0.0,0.0,0.0,0.0,0.0,0.0,0.0,0.0,0.0,0.0,0.0,0.0,0.0,0.0,-1.2454,-1.1923,-1.4934,-1.6332,0.0,0.0,-1.3706,-1.2925,-1.2598,-1.1749,0.0,0.0,0.0,0.0,0.0,0.0,0.0,0.0,0.0,0.0,0.0,0.0,0.0,0.0,0.0,0.0,0.0,0.0,0.0,0.0,0.0,0.0,0.0,0.0,0.0,0.0,0.0,0.0,0.0,0.0,0.0,0.0,0.0,0.0,0.0,0.0,0.0,0.0,0.0,0.0,0.0,0.0,0.0,0.0,0.0,0.0,0.0,0.0,0.0,0.0,0.0,0.0,0.0,0.0,0.0,-1.7092,-2.2483,-2.5756,-2.6551,-2.7284,-2.7096,-2.5996,-2.4302,-2.1402,0.0,0.0,0.0,0.0,0.0,0.0,0.0,0.0,0.0,0.0,0.0,0.0,0.0,0.0,0.0,0.0,0.0,0.0,0.0,0.0,0.0,0.0,0.0,0.0,0.0,0.0,0.0,0.0,0.0,0.0,0.0,0.0,0.0,0.0,0.0,0.0,0.0,0.0,0.0,0.0,0.0,-1.3069,-1.3795,-1.496,-1.5207,0.0,0.0,-1.4776,-1.542,-1.4151,-1.2562,-1.0947,0.0,0.0,0.0,0.0,0.0,0.0,0.0,0.0,0.0,0.0,0.0,0.0,0.0,0.0,0.0,0.0,0.0,0.0,0.0,0.0,0.0,0.0,0.0,0.0,0.0,0.0,0.0,0.0,0.0,0.0,0.0,0.0,0.0,0.0,0.0,0.0,0.0,0.0,0.0,0.0,0.0,0.0,0.0,0.0,0.0,0.0,0.0,0.0,0.0,0.0,0.0,0.0,0.0,-1.6908,-1.6975,-2.2744,-2.5934,-2.6261,-2.7295,-2.7443,-2.6558,-2.4527,-2.1754,0.0,0.0,0.0,0.0,0.0,0.0,0.0,0.0,0.0,0.0,0.0,0.0,0.0,0.0,0.0,0.0,0.0,0.0,0.0,0.0,0.0,0.0,0.0,0.0,0.0,0.0,0.0,0.0,-0.8174,-0.9901,-1.577,0.0,0.0,0.0,0.0,0.0,0.0,0.0,0.0,0.0,0.0,-1.4943,-1.4224,-1.68,0.0,0.0,-1.7119,-1.7128,-1.4927,-1.4562,-1.3706,-1.1202,-1.0363,0.0,0.0,0.0,0.0,0.0,0.0,0.0,0.0,0.0,0.0,0.0,0.0,0.0,0.0,0.0,0.0,0.0,0.0,0.0,0.0,0.0,0.0,0.0,0.0,0.0,0.0,0.0,0.0,0.0,0.0,0.0,0.0,0.0,0.0,0.0,0.0,0.0,0.0,0.0,0.0,0.0,0.0,0.0,0.0,0.0,0.0,0.0,0.0,0.0,0.0,0.0,0.0,-1.7364,-1.7585,-2.3476,-2.6523,-2.6535,-2.7543,-2.765,-2.6805,-2.5067,-2.2676,0.0,0.0,0.0,0.0,0.0,0.0,0.0,0.0,0.0,0.0,0.0,0.0,0.0,0.0,0.0,0.0,0.0,0.0,0.0,0.0,0.0,0.0,0.0,0.0,0.0,0.0,0.0,0.0,-0.709,-0.7458,-1.4224,0.0,0.0,0.0,0.0,0.0,0.0,0.0,0.0,0.0,0.0,-1.6634,-1.5799,-1.8609,-2.0408,-1.9297,-1.9462,-1.8662,-1.5791,-1.518,-1.4298,-1.2201,0.0,0.0,0.0,0.0,0.0,0.0,0.0,0.0,0.0,0.0,0.0,0.0,0.0,0.0,0.0,0.0,0.0,0.0,0.0,0.0,0.0,0.0,0.0,0.0,0.0,0.0,0.0,-0.7267,0.0,0.0,-0.6379,0.0,0.0,0.0,0.0,0.0,0.0,0.0,0.0,0.0,0.0,0.0,0.0,0.0,0.0,0.0,0.0,0.0,0.0,0.0,0.0,0.0,0.0,-1.8381,-1.9101,-2.4732,-2.7728,-2.7717,-2.816,-2.7878,-2.6858,-2.6355,-2.4557,-2.1209,0.0,0.0,0.0,0.0,0.0,0.0,0.0,0.0,0.0,0.0,0.0,0.0,0.0,0.0,0.0,0.0,0.0,0.0,0.0,0.0,0.0,0.0,0.0,0.0,0.0,0.0,-0.7426,-0.5774,-0.5118,0.0,0.0,0.0,0.0,0.0,0.0,0.0,0.0,0.0,0.0,-1.5875,-1.791,-1.8974,-2.0125,-2.1191,-2.1996,-2.0372,-1.8947,-1.8765,-1.627,-1.4232,0.0,0.0,0.0,0.0,0.0,0.0,0.0,0.0,0.0,0.0,0.0,0.0,0.0,0.0,0.0,0.0,0.0,0.0,0.0,0.0,0.0,0.0,0.0,0.0,0.0,0.0,0.0,-0.9705,-0.9691,0.0,0.0,0.0,0.0,0.0,0.0,0.0,0.0,0.0,0.0,0.0,-1.6897,-1.7454,0.0,0.0,0.0,0.0,0.0,0.0,0.0,0.0,0.0,0.0,0.0,0.0,-1.8798,-1.9876,-2.4573,-2.7064,-2.7082,-2.7723,-2.7913,-2.7522,-2.6905,-2.4933,-2.157,0.0,0.0,0.0,0.0,0.0,0.0,0.0,0.0,0.0,0.0,0.0,0.0,0.0,0.0,0.0,0.0,0.0,0.0,0.0,0.0,0.0,0.0,0.0,0.0,0.0,-1.1026,0.0,0.0,0.0,0.0,0.0,0.0,0.0,0.0,0.0,0.0,0.0,-1.4483,-1.5148,-1.7232,-1.8949,-1.9647,-2.1667,-2.2887,0.0,0.0,0.0,0.0,0.0,0.0,0.0,0.0,0.0,0.0,0.0,0.0,0.0,0.0,-0.9706,-0.7985,-0.7714,-0.7806,-0.7997,0.0,0.0,0.0,0.0,0.0,0.0,0.0,0.0,0.0,0.0,0.0,0.0,0.0,0.0,-1.2672,0.0,-1.274,0.0,0.0,0.0,0.0,0.0,0.0,0.0,0.0,-1.8592,-1.9748,-2.0244,-2.0758,-2.1005,0.0,-1.9594,-1.7043,0.0,0.0,0.0,0.0,0.0,0.0,0.0,0.0,-1.9929,-2.1063,-2.5006,-2.7164,-2.729,-2.7543,-2.7678,-2.7678,-2.6798,-2.5288,-2.3062,-2.0169,-1.7918,0.0,0.0,0.0,0.0,0.0,0.0,0.0,0.0,0.0,0.0,0.0,0.0,0.0,0.0,0.0,0.0,0.0,0.0,0.0,0.0,0.0,0.0,0.0,-1.2189,0.0,0.0,0.0,0.0,0.0,0.0,0.0,0.0,0.0,-1.2674,-1.4585,-1.6219,-1.6862,-1.8501,-1.9728,-1.9965,0.0,0.0,0.0,0.0,0.0,0.0,0.0,-1.6662,-1.5514,-1.4791,-1.4302,-1.4143,-1.2541,-1.2104,-1.4694,0.0,0.0,-1.0388,-0.9976,-1.0131,-1.0328,-1.0182,-1.0022,-1.0022,-0.9653,-0.9288,0.0,0.0,0.0,0.0,0.0,0.0,0.0,0.0,-1.7092,-1.6248,0.0,-1.645,0.0,0.0,0.0,0.0,0.0,0.0,0.0,0.0,-2.4529,-2.5739,-2.4337,-2.4318,-2.4337,-2.419,-2.1951,-2.0759,-2.0566,-1.8339,0.0,0.0,0.0,0.0,0.0,0.0,-2.1776,-2.2835,-2.6145,-2.8047,-2.8311,-2.7689,-2.7334,-2.7286,-2.624,-2.5642,-2.5456,-2.2175,-2.0213,-1.9934,-1.4588,0.0,0.0,0.0,0.0,0.0,0.0,0.0,0.0,0.0,0.0,0.0,0.0,0.0,0.0,0.0,0.0,0.0,0.0,0.0,0.0,-1.1264,0.0,0.0,0.0,0.0,0.0,0.0,0.0,0.0,0.0,0.0,-1.4756,-1.6,-1.7413,-1.8583,0.0,0.0,0.0,0.0,-2.1295,-1.8572,-1.9191,-1.9424,-1.7659,-1.7399,-1.7642,-1.831,0.0,0.0,-1.6985,-1.527,-1.4858,-1.736,-1.7767,-1.6578,-1.2771,-1.1745,-1.1435,-1.144,-1.1406,-1.1093,-1.1122,-1.1904,-1.2221,-2.0541,0.0,0.0,0.0,0.0,-1.7967,-1.9198,-2.1263,-2.1255,-2.0988,-2.0584,-2.1035,0.0,0.0,0.0,0.0,0.0,0.0,-2.1235,-2.318,-2.4942,-2.6098,-2.6788,-2.7365,-2.7629,-2.7574,-2.6319,-2.5713,-2.5658,-2.4437,-2.145,-1.6918,0.0,0.0,0.0,0.0,-2.3346,-2.4734,-2.6823,-2.7794,-2.7616,-2.7692,-2.7607,-2.7319,-2.6702,-2.6133,-2.5609,-2.4577,-2.3038,-2.094,-1.9739,0.0,0.0,0.0,0.0,0.0,0.0,0.0,0.0,0.0,0.0,0.0,0.0,0.0,0.0,0.0,0.0,0.0,0.0,0.0,-1.1065,-1.3611,-1.3857,0.0,0.0,0.0,0.0,0.0,0.0,0.0,0.0,0.0,-1.9442,-1.9017,-1.8904,0.0,0.0,-2.0282,-2.2152,-2.2345,-2.2361,-2.2544,0.0,0.0,0.0,-2.0495,-1.9641,-1.9567,-1.9102,-1.8473,-1.7659,-1.7893,-1.8828,-2.0634,-2.0477,-1.9264,-1.7064,-1.5734,-1.5299,-1.5684,-1.5772,-1.5728,-1.5742,-1.5493,-1.5038,-2.4394,-2.198,-2.0281,-2.0247,-2.1344,-2.1287,-2.2464,-2.4419,-2.4437,-2.407,-2.3529,-2.4143,-2.2905,-2.0288,-2.0288,0.0,0.0,0.0,-2.3768,-2.6117,-2.6594,-2.7262,-2.8074,-2.8691,-2.8899,-2.8725,-2.8281,-2.8044,-2.8007,-2.6776,-2.4374,-2.0946,0.0,0.0,-2.1646,-2.3309,-2.4622,-2.5522,-2.6775,-2.7396,-2.7319,-2.7396,-2.7319,-2.7084,-2.6824,-2.6488,-2.6048,-2.5745,-2.478,-2.3021,-2.253,-2.067,0.0,0.0,0.0,0.0,0.0,0.0,0.0,0.0,0.0,0.0,0.0,-1.0064,-0.9337,0.0,0.0,0.0,-1.2144,-1.2674,-1.4166,-1.5472,0.0,0.0,0.0,0.0,0.0,0.0,0.0,-1.9444,-1.9442,-1.9871,-2.1547,-2.1482,-2.1494,-2.2172,-2.1121,-2.0893,-2.2542,0.0,-2.3804,-2.5987,-2.5011,-2.3841,-2.3249,-2.2352,-2.173,-2.1795,-2.1414,-2.0737,-1.9807,-2.0352,-2.1417,-2.269,-2.2733,-2.1939,-2.0559,-1.9498,-1.8497,-1.7855,-1.7699,-1.7699,-1.7699,-1.7468,-1.7166,-2.7218,-2.7559,-2.3906,-2.3245,-2.4557,-2.4603,-2.5438,-2.6778,-2.6785,-2.596,-2.4722,-2.6153,-2.5144,-2.24,-2.239,0.0,-2.5404,-2.5575,-2.679,-2.894,-2.8917,-2.8725,-2.8394,-2.8737,-2.8725,-2.835,-2.8368,-2.8368,-2.8265,-2.6566,-2.5676,-2.5703,-2.5577,-2.4884,-2.3782,-2.488,-2.5522,-2.5583,-2.6323,-2.6919,-2.735,-2.6955,-2.6741,-2.6758,-2.6708,-2.6708,-2.6674,-2.6048,-2.5676,-2.5541,-2.3699,-2.2564,-2.2124,0.0,0.0,0.0,0.0,0.0,0.0,0.0,0.0,0.0,0.0,0.0,0.0,0.0,0.0,-1.5074,-1.6334,0.0,-1.8609,-1.7003,0.0,0.0,0.0,-1.2678,-1.5007,-1.4671,-1.6874,-2.3618,0.0,0.0,-2.2116,0.0,-2.4713,-2.5586,-2.3538,-2.2033,-2.2161,-2.3675,-2.564,-2.8441,-2.7752,-2.5989,-2.3989,-2.3581,-2.3772,-2.4209,-2.4521,-2.3831,-2.2682,-2.2429,-2.3069,-2.4423,-2.466,-2.4356,-2.3532,-2.2617,-2.1386,-1.87,-1.808,-1.7975,-1.805,-1.8371,-1.854,-2.8528,-2.862,-2.7684,-2.7519,-2.7849,-2.7868,-2.8069,-2.8418,-2.8436,-2.8198,-2.7886,-2.8271,-2.8014,-2.7299,-2.7281,-2.757,-2.8068,-2.7803,-2.7978,-2.8509,-2.8281,-2.8088,-2.8037,-2.8102,-2.8102,-2.802,-2.8006,-2.8024,-2.8006,-2.7553,-2.7362,-2.7368,-2.6769,-2.5681,-2.4247,-2.503,-2.5666,-2.6031,-2.6527,-2.7101,-2.7704,-2.738,-2.7162,-2.7147,-2.6857,-2.6708,-2.6691,-2.6539,-2.6184,-2.5626,-2.5625,-2.4644,-2.2381,-1.8425,0.0,0.0,0.0,0.0,0.0,0.0,0.0,0.0,0.0,-1.2481,-1.3625,0.0,-1.5669,0.0,-1.7677,-1.92,-1.8669,-1.9034,0.0,0.0,-1.71,-1.8554,-2.153,-2.1749,-2.2782,-2.5672,-2.5209,-2.4852,-2.5383,-2.5786,-2.6576,-2.7849,-2.5511,-2.4061,-2.5273,-2.684,-2.8106,-2.8787,-2.8676,-2.8038,-2.6794,-2.6008,-2.5399,-2.5017,-2.4733,-2.4371,-2.4034,-2.3983,-2.4457,-2.5812,-2.6167,-2.5797,-2.4895,-2.405,-2.3025,-2.1555,-2.0454,-1.9682,-1.9682,-1.9593,-1.931,-2.8987,-2.8987,-2.8987,-2.8987,-2.8987,-2.8987,-2.8987,-2.8987,-2.8987,-2.8987,-2.8987,-2.8987,-2.8987,-2.8994,-2.8797,-2.8737,-2.8694,-2.8342,-2.8456,-2.8912,-2.8564,-2.8689,-2.9229,-2.9201,-2.9219,-2.9229,-2.9247,-2.9229,-2.9233,-2.9073,-2.8862,-2.8712,-2.826,-2.7322,-2.592,-2.5506,-2.538,-2.5453,-2.5974,-2.6616,-2.7313,-2.7147,-2.6865,-2.6556,-2.6332,-2.6048,-2.5743,-2.5726,-2.5557,-2.5168,-2.5693,-2.5507,-2.4239,-2.0166,-1.7084,0.0,0.0,0.0,0.0,0.0,0.0,0.0,0.0,0.0,0.0,0.0,-1.726,-1.6748,-1.9575,-2.1029,-1.9976,-2.0601,-2.073,-1.9885,-2.0174,-2.14,-2.3933,-2.5474,-2.6666,-2.7563,-2.74,-2.7201,-2.7155,-2.7457,-2.7978,-2.8895,-2.7464,-2.6657,-2.7501,-2.8473,-2.8987,-2.8987,-2.8987,-2.8755,-2.8024,-2.737,-2.6836,-2.6419,-2.6009,-2.5692,-2.552,-2.5489,-2.576,-2.6522,-2.6708,-2.6539,-2.5947,-2.521,-2.4464,-2.3844,-2.2601,-2.15,-2.1008,-2.0901,-2.0736,-2.8987,-2.8987,-2.8987,-2.8987,-2.8987,-2.8987,-2.8987,-2.8987,-2.8987,-2.8987,-2.8987,-2.8987,-2.8987,-2.8982,-2.8633,-2.8525,-2.8603,-2.8272,-2.8715,-2.9719,-2.9347,-2.9754,-3.0796,-3.0679,-3.0683,-3.0725,-3.0668,-3.0672,-3.0639,-3.0292,-2.9863,-2.9383,-2.9383,-2.8802,-2.7639,-2.609,-2.5139,-2.4794,-2.5406,-2.6048,-2.6691,-2.6522,-2.6116,-2.549,-2.5456,-2.5152,-2.4541,-2.4508,-2.4508,-2.4508,-2.4898,-2.5524,-2.6268,-2.1397,-1.829,0.0,-1.6262,0.0,0.0,0.0,0.0,0.0,0.0,0.0,0.0,-1.8927,-1.9121,-1.9496,-2.1688,-2.2788,-2.2026,-2.2143,-2.267,-2.3578,-2.2867,-2.295,-2.4694,-2.7317,-2.8987,-2.8987,-2.8993,-2.8703,-2.8092,-2.8565,-2.8987,-2.8987,-2.8858,-2.873,-2.8932,-2.895,-2.8987,-2.8987,-2.8959,-2.8676,-2.8215,-2.7964,-2.7844,-2.7858,-2.7511,-2.7208,-2.669,-2.6623,-2.6674,-2.6708,-2.6708,-2.6691,-2.6708,-2.615,-2.5729,-2.5514,-2.4443,-2.3241,-2.219,-2.1961,-2.2145,-2.8987,-2.8987,-2.8987,-2.8987,-2.8987,-2.8987,-2.8987,-2.8987,-2.8987,-2.8987,-2.8987,-2.8987,-2.8987,-2.8994,-2.8929,-2.9222,-2.9826,-2.9474,-2.9769,-3.0649,-3.0225,-3.0181,-3.0383,-3.0011,-2.9836,-2.9819,-2.9523,-2.9351,-2.9351,-2.9264,-2.8885,-2.8151,-2.8133,-2.7725,-2.6945,0.0,0.0,0.0,-2.642,-2.6539,-2.6657,-2.5523,-2.4846,-2.4728,-2.4711,0.0,-2.4508,-2.4508,-2.4508,-2.4508,-2.4575,0.0,0.0,0.0,0.0,0.0,0.0,0.0,0.0,0.0,0.0,0.0,-2.1681,-2.0539,-2.1419,-2.0128,-2.0241,-2.2605,-2.3363,-2.3839,-2.4289,-2.462,-2.4967,-2.5337,-2.5036,-2.5649,-2.7807,-2.8645,-2.8987,-2.8987,-2.898,-2.8936,-2.8796,-2.8932,-2.8987,-2.8987,-2.8987,-2.8987,-2.8987,-2.8987,-2.8987,-2.8975,-2.8707,-2.862,-2.8767,-2.8286,-2.8037,-2.8183,-2.802,-2.753,-2.6939,-2.6741,-2.6708,-2.6691,-2.6708,-2.6708,-2.6708,-2.6573,-2.6337,-2.5993,-2.593,-2.5377,-2.3287,-2.2308,-2.1798,-2.8987,0.0,-2.8987,-2.8987,0.0,-2.8987,-2.8987,-2.8987,-2.8987,-2.8987,-2.8987,-2.8987,-2.9225,-2.9574,-2.9399,-2.9757,-3.0527,-3.0138,-3.0381,-3.1136,-3.072,-3.08,-3.1365,-3.0922,-3.082,-3.1005,-3.082,-3.0716,-3.0734,-3.0716,-3.0404,-2.976,-2.9795,-2.9499,-2.8942,-2.8924,-2.8366,-2.7266,-2.7249,-2.7232,-2.7232,-2.6522,-2.5778,-2.5084,0.0,0.0,0.0,0.0,0.0,0.0,0.0,0.0,0.0,0.0,0.0,-2.2243,-2.1904,-2.1887,-2.2158,-2.1874,-2.3139,-2.6386,-2.4982,-2.3613,-2.2919,-2.2446,-2.2892,-2.4486,-2.5009,-2.5399,-2.5793,-2.5995,-2.6141,-2.6277,-2.6163,-2.662,-2.7618,-2.7861,-2.8187,-2.8817,-2.8762,-2.8695,-2.8968,-2.8987,-2.8987,-2.8987,-2.8987,-2.8987,-2.8987,-2.8987,-2.8905,-2.8533,-2.8464,-2.8407,-2.8425,-2.8347,-2.8183,-2.8329,-2.8116,-2.7922,-2.7848,-2.7527,-2.7178,-2.6808,-2.6708,-2.6708,-2.6708,-2.6708,-2.6624,-2.6401,-2.6349,-2.6045,-2.4725,-2.3957,-2.3339,-2.8987,-2.8987,-2.8987,-2.9078,-2.9207,-2.9225,-2.928,-2.9409,0.0,0.0,0.0,-2.9409,-2.9794,-3.0381,-3.0064,-3.0382,-3.1152,-3.0793,-3.1006,-3.1687,-3.1249,-3.1548,-3.2467,-3.2021,-3.2004,-3.2367,-3.2299,-3.2282,-3.2282,-3.2265,-3.2092,-3.1733,-3.1696,-3.1526,-3.121,-3.119,-3.0277,-2.8483,-2.8145,-2.7993,-2.7993,-2.7739,-2.6979,-2.5626,-2.5609,-2.5253,-2.4525,-2.4508,-2.4508,-2.4508,-2.4423,-2.3864,-2.2801,-2.3327,-2.4611,-2.6404,-2.4409,-2.4154,-2.6488,-2.5,-2.4763,-2.6573,-2.6708,-2.5862,-2.3934,-2.4815,-2.5542,-2.5761,-2.6336,-2.6691,-2.6708,-2.6691,-2.6708,-2.6708,-2.6708,-2.6708,-2.6724,-2.671,-2.7225,-2.8304,-2.8305,-2.8336,-2.8796,-2.8863,-2.894,-2.8975,-2.8987,-2.8987,-2.8987,-2.8987,-2.8815,-2.836,-2.8355,-2.8316,-2.8116,-2.8143,-2.8298,-2.8277,-2.8061,-2.8134,-2.8533,-2.8399,-2.7848,-2.7346,-2.7035,-2.689,-2.6741,-2.6708,-2.6708,-2.6708,-2.6401,-2.6138,-2.6068,-2.5691,-2.5118,-2.9005,-2.8987,-2.8987,-2.9409,-3.0044,-3.0044,-3.043,-3.1011,-3.0338,-3.0411,-3.1054,-3.1054,-3.1127,-3.1231,-3.1163,-3.1596,-3.2321,-3.1934,-3.2172,0.0,-3.2472,-3.2345,-3.2467,-3.2039,-3.1843,-3.1861,-3.1545,-3.137,-3.137,-3.1406,-3.1349,-3.1291,-3.1291,-3.1269,-3.121,-3.119,-3.1038,-3.07,-2.9501,-2.884,-2.8807,-2.7554,-2.6454,-2.5676,-2.5626,-2.5253,-2.4541,-2.4541,-2.4508,-2.4491,-2.4118,-2.3998,-2.4203,-2.4663,-2.5474,-2.6556,-2.6319,-2.6268,-2.6657,-2.6404,-2.6386,-2.6657,-2.6708,-2.6302,-2.5423,-2.6031,-2.6505,-2.6539,-2.664,-2.6708,-2.6708,-2.6725,-2.6741,-2.6725,-2.6708,-2.6708,-2.6708,-2.6703,-2.6792,-2.7095,-2.7581,-2.8067,-2.8402,-2.8502,-2.8633,-2.8887,-2.8964,-2.8987,-2.8987,-2.8987,-2.8952,-2.8815,-2.8565,-2.8389,-2.8246,-2.8088,-2.8047,-2.7982,-2.7968,-2.7936,-2.8106,-2.836,-2.8476,-2.8596,-2.7936,-2.7409,-2.6841,-2.6708,-2.6708,-2.6708,-2.659,-2.6573,-2.6522,-2.6191,-2.5707,-2.9262,-2.9629,-2.9647,-3.0118,-3.0852,-3.0834,-3.1311,-3.2008,-3.1678,-3.1439,-3.1397,-3.1403,-3.1623,-3.2019,-3.1836,-3.2156,-3.2906,-3.246,-3.2325,-3.2415,-3.223,-3.2021,-3.1787,-3.1582,-3.147,-3.1468,-3.1274,-3.119,-3.119,-3.119,-3.119,-3.119,-3.119,-3.119,-3.119,-3.119,-3.119,-3.1193,-3.0514,-3.0008,-2.96,-2.8907,-2.818,-2.7486,-2.7435,-2.73,-2.6962,-2.6945,-2.6928,-2.6928,-2.6471,-2.6031,-2.5726,-2.5896,-2.6234,-2.6657,-2.6708,-2.6708,-2.6708,-2.6708,-2.6708,-2.6708,-2.6708,-2.6556,-2.6218,-2.6505,-2.6708,-2.6708,-2.6708,-2.6708,-2.6708,-2.6954,-2.7099,-2.7019,-2.6858,-2.6725,-2.6708,-2.6708,-2.6708,-2.6742,-2.7206,-2.7722,-2.8093,-2.8129,-2.8264,-2.862,-2.8839,-2.8975,-2.8987,-2.8987,-2.8987,-2.8975,-2.8839,-2.8558,-2.8224,-2.8183,-2.817,-2.8152,-2.8098,-2.8016,-2.7894,-2.7964,-2.7762,-2.7747,-2.7452,-2.7162,-2.6725,-2.6691,-2.6708,-2.6708,-2.6708,-2.6708,-2.6674,-2.6521,-2.6105,-2.9916,-3.0467,-3.0467,-3.0925,-3.169,-3.1843,-3.2284,-3.2839,-3.2876,-3.2522,-3.2003,-3.1953,-3.2245,-3.2675,-3.2429,-3.2547,-3.2929,-3.2567,-3.2144,-3.1825,-3.1715,-3.1524,-3.1213,-3.119,-3.119,-3.119,-3.119,-3.119,-3.119,-3.119,-3.119,-3.119,-3.119,-3.119,-3.119,-3.119,-3.119,-3.119,-3.119,-3.092,-3.0378,-3.0362,-3.0006,-2.9314,-2.9247,-2.9162,-2.901,-2.8993,-2.8993,-2.8976,-2.8602,-2.7875,-2.681,-2.6708,-2.6708,-2.6708,-2.6708,-2.6708,-2.6708,-2.6708,-2.6708,-2.6708,-2.6708,-2.6708,-2.6708,-2.6708,-2.6708,-2.6708,-2.6708,-2.6708,-2.6741,-2.7035,-2.7288,-2.7162,-2.7067,-2.6923,-2.6741,-2.6708,-2.6808,-2.694,-2.7112,-2.7357,-2.7733,-2.7808,-2.7908,-2.825,-2.87,-2.8975,-2.8987,-2.8987,-2.9,-2.9004,-2.8985,-2.8737,-2.8161,-2.8206,-2.8311,-2.8311,-2.8107,-2.7876,-2.7604,-2.7051,-2.6791,-2.6808,-2.6775,-2.6741,-2.6725,-2.6708,-2.6708,-2.6708,-2.6708,-2.6708,-2.6708,-2.6691,-2.6419,-3.1219,-3.1274,-3.1292,-3.1751,-3.2528,-3.3238,-3.3568,-3.366,-3.3678,-3.366,-3.3495,-3.3587,-3.3359,-3.3164,-3.3054,-3.2829,-3.2533,-3.2074,-3.1843,-3.177,-3.1411,-3.1249,-3.1173,-3.119,-3.119,-3.119,-3.119,-3.119,-3.119,-3.119,-3.119,-3.119,-3.119,-3.119,-3.119,-3.119,-3.119,-3.119,-3.119,-3.1157,-3.1106,-3.1089,-3.0751,-3.0023,-2.9987,-2.9685,-2.9128,-2.8993,-2.901,-2.8993,-2.8993,-2.8282,-2.6962,-2.6725,-2.6708,-2.6708,-2.6708,-2.6708,-2.6708,-2.6708,-2.6708,-2.6708,-2.6708,-2.6708,-2.6708,-2.6708,-2.6708,-2.6708,-2.6708,-2.6708,-2.6708,-2.6775,-2.6824,-2.6906,-2.7363,-2.75,-2.6954,-2.6708,-2.6988,-2.7722,-2.7289,-2.7054,-2.7739,-2.7648,-2.756,-2.788,-2.8469,-2.8851,-2.8851,-2.8761,-2.8759,-2.8864,-2.8964,-2.8785,-2.8456,-2.8381,-2.8355,-2.8075,-2.7779,-2.7604,-2.7301,-2.7051,-2.6708,-2.6725,-2.6808,-2.6825,-2.6725,-2.6708,-2.6725,-2.6708,-2.6708,-2.6708,-2.6708,-2.6708,-2.6453,-3.2394,-3.2761,-3.232,-3.2577,-3.3311,-3.366,-3.3807,-3.3775,-3.355,-3.3578,-3.3766,-3.3569,-3.3364,-3.3169,-3.2631,-3.2264,-3.2074,-3.164,-3.1449,-3.143,-3.1271,-3.119,-3.119,-3.119,-3.119,-3.119,-3.119,-3.119,-3.119,-3.119,-3.119,-3.119,-3.119,-3.119,-3.119,-3.119,-3.119,-3.119,-3.119,-3.119,-3.119,-3.119,-3.1055,-3.0784,-3.0751,-3.0632,-3.0347,-3.0313,-3.0313,-3.0313,-3.0294,-3.0042,-2.9364,-2.7672,-2.6708,-2.6708,-2.6708,-2.6708,-2.6708,-2.6708,-2.6708,-2.6708,-2.6708,-2.6708,-2.6708,-2.6708,-2.6708,-2.6708,-2.6708,-2.6708,-2.6708,-2.6708,-2.6808,-2.7067,-2.756,-2.7894,-2.8071,-2.8029,-2.8224,-2.8464,-2.7991,-2.761,-2.7826,-2.7751,-2.7619,-2.7666,-2.802,-2.8321,-2.8339,-2.796,-2.7662,-2.7701,-2.8003,-2.8473,-2.865,-2.8754,-2.8669,-2.8558,-2.8451,-2.8237,-2.8084,-2.8043,-2.7833,-2.6955,-2.7115,-2.7115,-2.6758,-2.6923,-2.702,-2.6874,-2.6708,-2.6708,-2.6708,-2.6708,-2.659,-3.3793,-3.3995,-3.3482,-3.3458,-3.3825,-3.4045,-3.4009,-3.3762,-3.3476,-3.3518,-3.3734,-3.3375,-3.3139,-3.2903,-3.2281,-3.1879,-3.1604,-3.1332,-3.119,-3.119,-3.119,-3.119,-3.119,-3.119,-3.119,-3.119,-3.119,-3.119,-3.119,-3.119,-3.119,-3.119,-3.119,-3.119,-3.119,-3.119,-3.119,-3.119,-3.119,-3.119,-3.119,-3.119,-3.119,-3.119,-3.119,-3.119,-3.119,-3.119,-3.119,-3.119,-3.119,-3.119,-3.1089,-2.8857,-2.73,-2.6759,-2.6708,-2.6708,-2.6708,-2.6708,-2.6708,-2.6708,-2.6708,-2.6708,-2.6708,-2.6708,-2.6708,-2.6708,-2.6708,-2.6708,-2.6708,-2.6708,-2.6858,-2.7115,-2.7409,-2.7823,-2.8224,-2.8373,-2.8264,-2.835,-2.8074,-2.8026,-2.7823,-2.7797,-2.7783,-2.7604,-2.753,-2.756,-2.7532,-2.7115,-2.6758,-2.6725,-2.7241,-2.7917,-2.8765,-2.8949,-2.8989,-2.8987,-2.8929,-2.8887,-2.8987,-2.8975,-2.8917,-2.7904,-2.7936,-2.7678,-2.7194,-2.721,-2.721,-2.6955,-2.6791,-2.6708,-2.6708,-2.6708,-2.6624,-3.5665,-3.4986,-3.4899,-3.4472,-3.388,-3.4601,-3.4509,-3.3972,-3.3821,-3.3798,-3.3789,-3.3383,-3.2952,-3.2567,-3.2434,-3.2003,-3.131,-3.121,-3.119,-3.119,-3.119,-3.119,-3.119,-3.119,-3.119,-3.119,-3.119,-3.119,-3.119,-3.119,-3.119,-3.119,-3.119,-3.119,-3.119,-3.119,-3.119,-3.119,-3.119,-3.119,-3.119,-3.119,-3.119,-3.119,-3.119,-3.119,-3.119,-3.119,-3.119,-3.119,-3.119,-3.119,-3.1089,-3.0144,-2.8705,-2.6979,-2.6725,-2.6708,-2.6708,-2.6708,-2.6708,-2.6708,-2.6708,-2.6708,-2.6708,-2.6708,-2.6708,-2.6708,-2.6708,-2.6708,-2.6708,-2.6708,-2.6725,-2.6758,-2.6775,-2.6857,-2.6873,-2.7051,-2.6824,-2.7019,-2.7566,-2.7752,-2.7439,-2.7663,-2.7823,-2.7678,-2.7241,-2.6906,-2.6971,-2.6808,-2.6708,-2.6708,-2.6875,-2.728,-2.8596,-2.8826,-2.8864,-2.8893,-2.8827,-2.8952,-2.8975,-2.8964,-2.8881,-2.8651,-2.8188,-2.7811,-2.7562,-2.738,-2.7257,-2.7068,-2.6841,-2.6741,-2.6708,-2.6708,-2.659,-3.6578,-3.5844,-3.5826,-3.5661,-3.5385,-3.5133,-3.5133,-3.5316,-3.4524,-3.4335,-3.442,-3.3828,-3.3143,-3.2502,-3.2179,-3.1733,-3.123,-3.119,-3.119,-3.119,-3.119,-3.119,-3.119,-3.119,-3.119,-3.119,-3.119,-3.119,-3.119,-3.119,-3.119,-3.119,-3.119,-3.119,-3.119,-3.119,-3.119,-3.119,-3.119,-3.119,-3.119,-3.119,-3.119,-3.119,-3.119,-3.119,-3.119,-3.119,-3.119,-3.119,-3.119,-3.119,-3.1157,-3.0869,-2.9467,-2.7114,-2.7148,-2.7199,-2.6776,-2.6708,-2.6708,-2.6708,-2.6708,-2.6708,-2.6708,-2.6708,-2.6708,-2.6708,-2.6708,-2.6708,-2.6708,-2.6708,-2.6708,-2.6708,-2.6708,-2.6708,-2.6708,-2.6708,-2.6708,-2.6825,-2.7378,-2.7725,-2.7485,-2.7634,-2.7779,-2.756,-2.747,-2.747,-2.738,-2.7067,-2.6791,-2.6708,-2.6708,-2.6871,-2.7308,-2.802,-2.8326,-2.8456,-2.8507,-2.8596,-2.8658,-2.8749,-2.8688,-2.7992,-2.7678,-2.7634,-2.7303,-2.7067,-2.702,-2.7004,-2.6791,-2.6725,-2.6708,-2.6708,-2.6487,-3.718,-3.674,-3.667,-3.6523,-3.6266,-3.5973,-3.5991,-3.6201,-3.5381,-3.5063,-3.5011,-3.4291,-3.3451,-3.2669,-3.2055,-3.1584,-3.123,-3.119,-3.119,-3.119,-3.119,-3.119,-3.119,-3.119,-3.119,-3.119,-3.119,-3.119,-3.119,-3.119,-3.119,-3.119,-3.119,-3.119,-3.119,-3.119,-3.119,-3.119,-3.119,-3.119,-3.119,-3.119,-3.119,-3.119,-3.119,-3.119,-3.119,-3.119,-3.119,-3.119,-3.119,-3.119,-3.119,-3.119,-3.033,-2.8467,-2.8163,-2.7723,-2.6911,-2.6928,-2.6962,-2.6725,-2.6708,-2.6708,-2.6708,-2.6708,-2.6708,-2.6708,-2.6708,-2.6708,-2.6708,-2.6708,-2.6708,-2.6708,-2.6708,-2.6708,-2.6708,-2.6708,-2.6708,-2.6791,-2.7255,-2.75,-2.7409,-2.7678,-2.7722,-2.7515,-2.7926,-2.8228,-2.8161,-2.7851,-2.7177,-2.6808,-2.6725,-2.6707,-2.693,-2.7344,-2.7823,-2.8006,-2.812,-2.821,-2.8179,-2.8334,-2.8183,-2.7439,-2.7131,-2.7162,-2.7051,-2.6808,-2.6758,-2.6824,-2.6775,-2.6725,-2.6708,-2.6708,-2.6436,-3.7511,-3.7511,-3.7492,-3.7107,-3.6633,-3.707,-3.6997,-3.6523,-3.6343,-3.5994,-3.5539,-3.4778,-3.393,-3.2961,-3.2168,-3.1615,-3.1353,-3.1241,-3.119,-3.119,-3.119,-3.119,-3.119,-3.119,-3.119,-3.119,-3.119,-3.119,-3.119,-3.119,-3.119,-3.119,-3.119,-3.119,-3.119,-3.119,-3.119,-3.119,-3.119,-3.119,-3.119,-3.119,-3.119,-3.119,-3.119,-3.119,-3.119,-3.119,-3.119,-3.119,-3.119,-3.119,-3.119,-3.119,-3.1123,-3.0719,-2.9754,-2.835,-2.7233,-2.7469,-2.7367,-2.6843,-2.6708,-2.6708,-2.6708,-2.6708,-2.6708,-2.6708,-2.6708,-2.6708,-2.6708,-2.6708,-2.6708,-2.6708,-2.6708,-2.6708,-2.6708,-2.6708,-2.6708,-2.6758,-2.7067,-2.727,-2.738,-2.7592,-2.7754,-2.7851,-2.8281,-2.8688,-2.8601,-2.8399,-2.8071,-2.7145,-2.6708,-2.6691,-2.6691,-2.6775,-2.7241,-2.7604,-2.7678,-2.7751,-2.7527,-2.7542,-2.7601,-2.7067,-2.6923,-2.6955,-2.7019,-2.6824,-2.6841,-2.6857,-2.6791,-2.6708,-2.6708,-2.6657,-2.6436,-3.834,-3.834,-3.8322,-3.8193,-3.79,-3.7658,-3.7621,-3.7881,-3.7401,-3.6814,-3.6289,-3.5754,-3.457,-3.3162,-3.2383,-3.206,-3.1921,-3.1481,-3.119,-3.1207,-3.1207,-3.119,-3.119,-3.119,-3.119,-3.119,-3.119,-3.119,-3.119,-3.119,-3.119,-3.119,-3.119,-3.119,-3.119,-3.119,-3.119,-3.119,-3.119,-3.119,-3.119,-3.119,-3.119,-3.119,-3.119,-3.119,-3.119,-3.119,-3.119,-3.119,-3.119,-3.119,-3.119,-3.119,-3.119,-3.1089,-3.0311,-2.9888,-2.9668,-2.8501,-2.7554,-2.6894,-2.6708,-2.6708,-2.6708,-2.6708,-2.6708,-2.6708,-2.6708,-2.6708,-2.6708,-2.6708,-2.6708,-2.6708,-2.6708,-2.6708,-2.6708,-2.6708,-2.6708,-2.6708,-2.6808,-2.6873,-2.6954,-2.7241,-2.7487,-2.7515,-2.7922,-2.8228,-2.8188,-2.7833,-2.7376,-2.6758,-2.6691,-2.6708,-2.6708,-2.6708,-2.6923,-2.7194,-2.7257,-2.7317,-2.7083,-2.6954,-2.6971,-2.6955,-2.6825,-2.6791,-2.6841,-2.6873,-2.6857,-2.6841,-2.6741,-2.6708,-2.6708,-2.659,-2.6436,-3.8707,-3.8707,-3.8707,-3.8707,-3.867,-3.812,-3.8212,-3.8566,-3.7969,-3.7355,-3.6826,-3.6056,-3.4969,-3.3665,-3.2958,-3.2716,-3.2645,-3.2205,-3.1867,-3.1582,-3.1275,-3.119,-3.119,-3.119,-3.119,-3.119,-3.119,-3.119,-3.119,-3.119,-3.119,-3.119,-3.119,-3.119,-3.119,-3.119,-3.119,-3.119,-3.119,-3.119,-3.119,-3.119,-3.119,-3.119,-3.119,-3.119,-3.119,-3.119,-3.119,-3.119,-3.119,-3.119,-3.119,-3.119,-3.119,-3.1106,-3.0835,-3.07,-3.0954,-2.96,-2.8044,-2.7046,-2.6708,-2.6708,-2.6708,-2.6708,-2.6708,-2.6708,-2.6708,-2.6708,-2.6708,-2.6708,-2.6708,-2.6708,-2.6708,-2.6708,-2.6708,-2.6708,-2.6708,-2.6691,-2.6708,-2.6708,-2.6775,-2.6857,-2.7084,-2.7115,-2.7288,-2.7457,-2.7348,-2.7068,-2.6825,-2.6708,-2.6691,-2.6708,-2.6708,-2.6708,-2.6708,-2.6775,-2.6825,-2.6873,-2.6808,-2.6791,-2.6808,-2.6825,-2.6725,-2.6725,-2.6791,-2.6758,-2.6741,-2.6708,-2.6708,-2.6708,-2.6708,-2.6708,-2.659,-3.8707,-3.8707,-3.8707,-3.8707,-3.8707,-3.8634,-3.8634,-3.8627,-3.813,-3.7595,-3.6979,-3.6009,-3.5063,-3.4415,-3.3715,-3.3474,-3.344,-3.3254,-3.2966,-3.2395,-3.1785,-3.1345,-3.1207,-3.119,-3.119,-3.119,-3.119,-3.119,-3.119,-3.119,-3.119,-3.119,-3.119,-3.119,-3.119,-3.119,-3.119,-3.119,-3.119,-3.119,-3.119,-3.119,-3.119,-3.119,-3.119,-3.119,-3.119,-3.119,-3.119,-3.119,-3.119,-3.119,-3.119,-3.119,-3.119,-3.119,-3.119,-3.114,-3.1038,-3.0378,-2.9228,-2.7672,-2.6996,-2.6742,-2.6843,-2.6793,-2.6708,-2.6708,-2.6708,-2.6708,-2.6708,-2.6708,-2.6708,-2.6708,-2.6708,-2.6708,-2.6708,-2.6708,-2.6708,-2.6708,-2.6708,-2.6708,-2.6708,-2.6741,-2.6741,-2.6758,-2.6791,-2.6841,-2.6841,-2.6791,-2.6725,-2.6708,-2.6708,-2.6708,-2.6708,-2.6708,-2.6708,-2.6708,-2.6708,-2.6708,-2.6708,-2.6708,-2.6708,-2.6708,-2.6708,-2.6708,-2.6708,-2.6708,-2.6708,-2.6708,-2.6708,-2.6708,-2.6708,-2.6708,-2.6708,-3.8707,-3.8707,-3.8707,-3.8707,-3.8707,-3.8707,-3.8707,-3.8627,-3.8133,-3.7596,-3.7082,-3.6434,-3.5462,-3.4549,-3.4336,-3.4218,-3.4117,-3.3694,-3.3694,-3.3698,-3.2564,-3.1735,-3.1275,-3.119,-3.119,-3.119,-3.119,-3.119,-3.119,-3.119,-3.119,-3.119,-3.119,-3.119,-3.119,-3.119,-3.119,-3.119,-3.119,-3.119,-3.119,-3.119,-3.119,-3.119,-3.119,-3.119,-3.119,-3.119,-3.119,-3.119,-3.119,-3.119,-3.119,-3.119,-3.119,-3.119,-3.119,-3.119,-3.1055,-3.0565,-3.004,-2.9854,-2.8044,-2.6962,-2.7452,-2.6996,-2.6759,-2.6708,-2.6708,-2.6708,-2.6708,-2.6708,-2.6708,-2.6708,-2.6708,-2.6708,-2.6708,-2.6708,-2.6708,-2.6708,-2.6708,-2.6708,-2.6708,-2.6708,-2.6708,-2.6708,-2.6708,-2.6708,-2.6708,-2.6708,-2.6708,-2.6708,-2.6708,-2.6708,-2.6708,-2.6708,-2.6708,-2.6708,-2.6708,-2.6708,-2.6708,-2.6708,-2.6708,-2.6708,-2.6708,-2.6708,-2.6708,-2.6708,-2.6708,-2.6708,-2.6708,-2.6708,-2.6708,-2.6708,-2.6708,-3.8707,-3.8707,-3.8707,-3.8707,-3.8707,-3.8707,-3.8578,-3.8302,-3.7843,-3.7323,-3.6843,-3.6291,-3.5659,-3.4996,-3.4962,-3.4979,-3.4912,-3.4539,-3.4404,-3.4172,-3.2953,-3.1938,-3.1343,-3.119,-3.119,-3.119,-3.119,-3.119,-3.119,-3.119,-3.119,-3.119,-3.119,-3.119,-3.119,-3.119,-3.119,-3.119,-3.119,-3.119,-3.119,-3.119,-3.119,-3.119,-3.119,-3.119,-3.119,-3.119,-3.119,-3.119,-3.119,-3.119,-3.119,-3.119,-3.119,-3.119,-3.119,-3.119,-3.1123,-3.0784,-3.0784,-3.0869,-2.9347,-2.845,-2.7824,-2.7148,-2.6708,-2.6708,-2.6708,-2.6708,-2.6708,-2.6708,-2.6708,-2.6708,-2.6708,-2.6708,-2.6708,-2.6708,-2.6708,-2.6708,-2.6708,-2.6708,-2.6708,-2.6708,-2.6708,-2.6708,-2.6708,-2.6708,-2.6708,-2.6708,-2.6708,-2.6708,-2.6708,-2.6708,-2.6708,-2.6708,-2.6708,-2.6708,-2.6708,-2.6708,-2.6708,-2.6708,-2.6708,-2.6708,-2.6708,-2.6708,-2.6708,-2.6708,-2.6708,-2.6708,-2.6708,-2.6708,-2.6708,-2.6708,-2.6708,-3.8707,-3.8707,-3.8707,-3.8707,-3.8707,-3.8692,-3.8433,-3.7894,-3.7451,-3.6999,-3.656,-3.5963,-3.5776,-3.5672,-3.5647,-3.5621,-3.5566,-3.5397,-3.489,-3.4184,-3.3051,-3.2053,-3.1258,-3.119,-3.119,-3.119,-3.119,-3.119,-3.119,-3.119,-3.119,-3.119,-3.119,-3.119,-3.119,-3.119,-3.119,-3.119,-3.119,-3.119,-3.119,-3.119,-3.119,-3.119,-3.119,-3.119,-3.119,-3.119,-3.119,-3.119,-3.119,-3.119,-3.119,-3.119,-3.119,-3.119,-3.119,-3.119,-3.119,-3.114,-3.114,-3.1089,-3.1106,-3.0277,-2.8415,-2.7283,-2.6708,-2.6708,-2.6708,-2.6708,-2.6708,-2.6708,-2.6708,-2.6708,-2.6708,-2.6708,-2.6708,-2.6708,-2.6708,-2.6708,-2.6708,-2.6708,-2.6708,-2.6708,-2.6708,-2.6708,-2.6708,-2.6708,-2.6708,-2.6708,-2.6708,-2.6708,-2.6708,-2.6708,-2.6708,-2.6708,-2.6708,-2.6708,-2.6708,-2.6708,-2.6708,-2.6708,-2.6708,-2.6708,-2.6708,-2.6708,-2.6708,-2.6708,-2.6708,-2.6708,-2.6708,-2.6708,-2.6708,-2.6708,-2.6708,-3.8707,-3.8707,-3.8707,-3.8707,-3.8707,-3.8692,-3.8364,-3.7824,-3.7361,-3.6953,-3.6884,-3.6419,-3.6169,-3.6147,-3.6066,-3.6028,-3.5577,-3.5498,-3.4923,-3.3677,-3.3406,-3.2374,-3.1444,-3.119,-3.119,-3.119,-3.119,-3.119,-3.119,-3.119,-3.119,-3.119,-3.119,-3.119,-3.119,-3.119,-3.119,-3.119,-3.119,-3.119,-3.119,-3.119,-3.119,-3.119,-3.119,-3.119,-3.119,-3.119,-3.119,-3.119,-3.119,-3.119,-3.119,-3.119,-3.119,-3.119,-3.119,-3.119,-3.119,-3.119,-3.119,-3.119,-3.1123,-3.0516,-2.8942,-2.7435,-2.681,-2.6708,-2.6708,-2.6708,-2.6708,-2.6708,-2.6708,-2.6708,-2.6708,-2.6708,-2.6708,-2.6708,-2.6708,-2.6708,-2.6708,-2.6708,-2.6708,-2.6708,-2.6708,-2.6708,-2.6708,-2.6708,-2.6708,-2.6708,-2.6708,-2.6708,-2.6708,-2.6708,-2.6708,-2.6708,-2.6708,-2.6708,-2.6708,-2.6708,-2.6708,-2.6708,-2.6708,-2.6708,-2.6708,-2.6708,-2.6708,-2.6708,-2.6708,-2.6708,-2.6708,-2.6708,-2.6708,-2.6708,-2.659,-3.8487,-3.8193,-3.8542,-3.8267,-3.7668,-3.7737,-3.7471,-3.6863,-3.6106,-3.585,-3.587,-3.561,-3.5501,-3.5501,-3.5501,-3.5326,-3.5265,-3.543,-3.4805,-3.3795,-3.3609,-3.2899,-3.1461,-3.119,-3.119,-3.1207,-3.119,-3.119,-3.119,-3.119,-3.119,-3.119,-3.119,-3.119,-3.119,-3.119,-3.119,-3.119,-3.119,-3.119,-3.119,-3.119,-3.119,-3.119,-3.119,-3.119,-3.119,-3.119,-3.119,-3.119,-3.119,-3.119,-3.119,-3.119,-3.119,-3.119,-3.119,-3.119,-3.119,-3.119,-3.119,-3.119,-3.119,-3.0565,-2.9364,-2.7824,-2.7029,-2.7029,-2.6945,-2.6708,-2.6708,-2.6708,-2.6708,-2.6708,-2.6708,-2.6708,-2.6708,-2.6708,-2.6708,-2.6708,-2.6708,-2.6708,-2.6708,-2.6708,-2.6708,-2.6708,-2.6708,-2.6708,-2.6708,-2.6708,-2.6708,-2.6708,-2.6708,-2.6708,-2.6708,-2.6708,-2.6708,-2.6708,-2.6708,-2.6708,-2.6708,-2.6708,-2.6708,-2.6708,-2.6708,-2.6708,-2.6708,-2.6708,-2.6708,-2.6708,-2.6708,-2.6708,-2.6607,-2.6436,-2.6332,-3.812,-3.7529,-3.8102,-3.7533,-3.6446,-3.6549,-3.6304,-3.5649,-3.4655,-3.4533,-3.4453,-3.447,-3.4622,-3.4529,-3.4725,-3.4652,-3.4861,-3.5199,-3.4839,-3.3914,-3.415,-3.3339,-3.207,-3.1765,-3.1732,-3.1512,-3.1292,-3.1224,-3.119,-3.119,-3.119,-3.119,-3.119,-3.119,-3.119,-3.119,-3.119,-3.119,-3.119,-3.119,-3.119,-3.119,-3.1171,-3.0995,-3.0958,-3.0858,-3.0797,-3.0777,-3.0898,-3.1055,-3.1151,-3.119,-3.119,-3.119,-3.119,-3.119,-3.119,-3.119,-3.119,-3.119,-3.119,-3.119,-3.119,-3.0937,-2.9973,-2.8856,-2.7994,-2.7435,-2.7181,-2.6708,-2.6708,-2.6708,-2.6708,-2.6708,-2.6708,-2.6708,-2.6708,-2.6708,-2.6708,-2.6708,-2.6708,-2.6708,-2.6708,-2.6708,-2.6708,-2.6708,-2.6708,-2.6708,-2.6708,-2.6708,-2.6708,-2.6708,-2.6708,-2.6708,-2.6708,-2.6708,-2.6708,-2.6708,-2.6708,-2.6708,-2.6708,-2.6708,-2.6708,-2.6708,-2.6708,-2.6708,-2.6708,-2.6708,-2.6708,-2.6708,-2.6573,-2.6453,-2.6297,-2.6157,-2.6015,-3.7621,-3.7456,-3.6909,-3.6523,-3.6245,-3.5934,-3.548,-3.496,-3.4341,-3.4216,-3.4202,-3.4219,-3.4177,-3.4352,-3.4927,-3.5214,-3.5232,-3.543,-3.5109,-3.4353,-3.4472,-3.3829,-3.3034,-3.2747,-3.2865,-3.2662,-3.2019,-3.141,-3.1343,-3.119,-3.1461,-3.1292,-3.1326,-3.1343,-3.13,-3.1188,-3.124,-3.109,-3.1093,-3.1096,-3.0995,-3.1055,-3.0858,-3.0539,-3.0497,-3.0293,-2.987,-2.9761,-2.9913,-3.0435,-3.0918,-3.1114,-3.1171,-3.1171,-3.1114,-3.119,-3.119,-3.119,-3.119,-3.119,-3.119,-3.119,-3.119,-3.1171,-3.0866,-3.048,-2.9296,-2.7925,-2.7181,-2.6708,-2.6708,-2.6624,-2.6674,-2.6691,-2.6708,-2.6708,-2.6708,-2.6708,-2.6708,-2.6708,-2.6708,-2.6708,-2.6708,-2.6708,-2.6708,-2.6708,-2.6708,-2.6708,-2.6708,-2.6708,-2.6708,-2.6708,-2.6708,-2.6708,-2.6708,-2.6708,-2.6708,-2.6708,-2.6708,-2.6708,-2.6708,-2.6708,-2.6708,-2.6708,-2.6708,-2.6708,-2.6708,-2.6691,-2.6607,-2.6539,-2.6349,-2.612,-2.5908,-2.5709,-2.5449,-3.6997,-3.6229,-3.6266,-3.5771,-3.5048,-3.4738,-3.4456,-3.4058,-3.3123,-3.2863,-3.312,-3.3222,-3.3445,-3.3768,-3.4093,-3.4555,-3.5028,-3.5464,-3.5165,-3.4675,-3.4827,-3.4421,-3.3575,-3.344,-3.3389,-3.322,-3.2662,-3.2324,-3.2341,-3.2374,-3.2273,-3.2357,-3.2341,-3.218,-3.1892,-3.1857,-3.1414,-3.1049,-3.0815,-3.065,-3.0401,-3.0555,-3.0393,-3.0059,-3.0102,-2.9957,-2.9524,-2.9406,-2.9524,-2.987,-3.0314,-3.074,-3.0955,-3.0858,-3.0781,-3.1095,-3.119,-3.119,-3.119,-3.119,-3.119,-3.119,-3.1171,-3.0958,-3.0821,-3.061,-3.0085,-2.836,-2.7305,-2.6733,-2.6381,-2.6383,-2.6453,-2.6641,-2.6708,-2.6708,-2.6708,-2.6708,-2.6708,-2.6708,-2.6708,-2.6708,-2.6708,-2.6708,-2.6708,-2.6708,-2.6708,-2.6708,-2.6708,-2.6708,-2.6708,-2.6708,-2.6708,-2.6708,-2.6708,-2.6708,-2.6708,-2.6708,-2.6708,-2.6708,-2.6708,-2.6708,-2.6708,-2.6708,-2.6708,-2.6522,-2.659,-2.6539,-2.6453,-2.6314,-2.5908,-2.5615,-2.5449,-2.5259,-2.495,-3.6358,-3.5041,-3.5587,-3.4976,-3.3783,-3.3516,-3.3369,-3.2985,-3.1967,-3.1703,-3.2039,-3.238,-3.2791,-3.3177,-3.3613,-3.4083,-3.4726,-3.5397,-3.525,-3.5013,-3.525,-3.4856,-3.4184,-3.3846,-3.396,-3.41,-3.3926,-3.3694,-3.3237,-3.3203,-3.3322,-3.322,-3.3318,-3.3053,-3.248,-3.2281,-3.1577,-3.1019,-3.0607,-3.0256,-2.9904,-3.0016,-2.994,-2.9309,-2.9689,-2.9585,-2.8973,-2.888,-2.9019,-2.918,-2.9435,-2.9854,-3.0502,-3.0149,-3.0234,-3.0978,-3.1171,-3.119,-3.119,-3.119,-3.119,-3.119,-3.0955,-3.0377,-2.9923,-2.988,-2.9909,-2.8271,-2.7376,-2.6813,-2.628,-2.6058,-2.6261,-2.6573,-2.6708,-2.6708,-2.6708,-2.6708,-2.6708,-2.6708,-2.6708,-2.6708,-2.6708,-2.6708,-2.6708,-2.6708,-2.6708,-2.6708,-2.6708,-2.6708,-2.6708,-2.6708,-2.6708,-2.6708,-2.6708,-2.6708,-2.6708,-2.6708,-2.6708,-2.6708,-2.6708,-2.6708,-2.6641,-2.647,-2.6193,-2.607,-2.621,-2.6349,-2.6244,-2.5979,-2.543,-2.5105,-2.4953,-2.4657,-2.4328,-3.5881,-3.4917,-3.4357,-3.3775,-3.328,-3.2872,-3.2422,-3.2072,-3.1821,-3.1543,-3.1543,-3.2383,-3.2721,-3.2951,-3.3931,-3.4759,-3.5301,-3.5481,-3.5498,-3.5363,-3.5498,-3.5464,-3.5278,-3.5346,-3.5092,-3.5025,-3.5126,-3.4535,-3.3931,-3.3626,-3.3508,-3.3575,-3.3579,-3.3098,-3.2666,-3.2606,-3.2029,-3.143,-3.1238,-3.0863,-3.0329,-3.0272,-2.9752,-2.8998,-2.8771,-2.8622,-2.8155,-2.8052,-2.8174,-2.8519,-2.8149,-2.8504,-2.9278,-2.921,-2.9854,-3.0683,-3.119,-3.119,-3.1171,-3.1035,-3.0958,-3.076,-3.0314,-2.9125,-2.884,-2.9008,-2.919,-2.8436,-2.7622,-2.6811,-2.6234,-2.6061,-2.6272,-2.6453,-2.6607,-2.6657,-2.6708,-2.6708,-2.6708,-2.6708,-2.6708,-2.6708,-2.6708,-2.6708,-2.6708,-2.6708,-2.6708,-2.6708,-2.6708,-2.6708,-2.6708,-2.6708,-2.6708,-2.6708,-2.6708,-2.6708,-2.6691,-2.6708,-2.6674,-2.6674,-2.6708,-2.6624,-2.6245,-2.6052,-2.5746,-2.5691,-2.5926,-2.6015,-2.5995,-2.5577,-2.4969,-2.4672,-2.4476,-2.4158,-2.3837,-3.5059,-3.427,-3.3935,-3.3564,-3.3151,-3.2697,-3.2401,-3.2109,-3.1677,-3.1471,-3.1644,-3.2254,-3.2903,-3.3634,-3.4709,-3.5261,-3.5566,-3.5616,-3.5616,-3.5616,-3.5616,-3.5616,-3.5566,-3.56,-3.5616,-3.5616,-3.5583,-3.5329,-3.4704,-3.4585,-3.4619,-3.4585,-3.4558,-3.4139,-3.3191,-3.3089,-3.2446,-3.1703,-3.1109,-3.0588,-3.0194,-3.017,-2.9856,-2.8682,-2.8879,-2.8482,-2.7866,-2.7585,-2.7685,-2.7944,-2.766,-2.7795,-2.8304,-2.8504,-2.8927,-2.8957,-2.9827,-3.0435,-3.0995,-3.0539,-3.0335,-3.023,-2.9827,-2.9413,-2.8615,-2.8544,-2.8724,-2.8318,-2.8033,-2.7233,-2.6233,-2.6038,-2.5828,-2.5905,-2.6192,-2.6402,-2.6505,-2.6674,-2.6708,-2.6708,-2.6708,-2.6708,-2.6691,-2.6624,-2.6607,-2.6607,-2.6624,-2.6641,-2.6657,-2.6708,-2.6708,-2.6708,-2.6708,-2.6708,-2.6708,-2.6708,-2.6674,-2.6674,-2.6624,-2.6641,-2.6691,-2.6556,-2.6192,-2.5582,-2.5093,-2.5205,-2.5561,-2.5449,-2.5202,-2.4851,-2.4471,-2.4246,-2.4074,-2.3927,-2.3702,-3.4325,-3.3825,-3.3807,-3.3504,-3.3014,-3.2632,-3.2417,-3.223,-3.1675,-3.1648,-3.2137,-3.2707,-3.363,-3.4607,-3.5261,-3.5549,-3.56,-3.5616,-3.5616,-3.5616,-3.5616,-3.5616,-3.5616,-3.5616,-3.5616,-3.5616,-3.5616,-3.5515,-3.5549,-3.5515,-3.5447,-3.5616,-3.538,-3.4872,-3.4162,-3.375,-3.3233,-3.1986,-3.1277,-3.0624,-3.0117,-3.0297,-2.9837,-2.9308,-2.9011,-2.8819,-2.8031,-2.763,-2.7585,-2.761,-2.761,-2.766,-2.7795,-2.8042,-2.81,-2.8134,-2.8646,-2.9225,-2.9717,-2.9657,-2.9429,-2.9406,-2.9203,-2.8865,-2.8575,-2.8448,-2.8363,-2.8114,-2.8386,-2.7425,-2.6321,-2.602,-2.5381,-2.5302,-2.5505,-2.5803,-2.6104,-2.6238,-2.6519,-2.6708,-2.6708,-2.6708,-2.6657,-2.6539,-2.6505,-2.6487,-2.6522,-2.6522,-2.6487,-2.6453,-2.647,-2.6402,-2.6436,-2.6487,-2.6641,-2.6641,-2.6641,-2.6539,-2.6487,-2.6556,-2.6556,-2.647,-2.6192,-2.5508,-2.4576,-2.4415,-2.4612,-2.4491,-2.4405,-2.4384,-2.4261,-2.3879,-2.3659,-2.3595,-2.3595,-3.3862,-3.3807,-3.3788,-3.3314,-3.2567,-3.2517,-3.2247,-3.1933,-3.1789,-3.2165,-3.2919,-3.3847,-3.4607,-3.5329,-3.5498,-3.5616,-3.5616,-3.5616,-3.5616,-3.5616,-3.5616,-3.5616,-3.5616,-3.5616,-3.5616,-3.5616,-3.5616,-3.5616,-3.5616,-3.5616,-3.5616,-3.56,-3.5447,-3.5075,-3.4664,-3.4293,-3.355,-3.2473,-3.1775,-3.1187,-3.0666,-3.0498,-3.0201,-2.9589,-2.9034,-2.8603,-2.8502,-2.8019,-2.772,-2.772,-2.763,-2.7585,-2.7635,-2.7735,-2.771,-2.7745,-2.7795,-2.8207,-2.8376,-2.8927,-2.9316,-2.9065,-2.8599,-2.8076,-2.7944,-2.8432,-2.8331,-2.7859,-2.8217,-2.7837,-2.6719,-2.5902,-2.5444,-2.474,-2.4789,-2.4756,-2.5162,-2.5773,-2.6083,-2.6534,-2.6588,-2.638,-2.6311,-2.6104,-2.621,-2.6227,-2.5928,-2.5928,-2.5855,-2.5837,-2.5964,-2.5982,-2.6034,-2.6175,-2.6487,-2.6453,-2.6175,-2.6034,-2.5946,-2.6176,-2.6385,-2.6263,-2.6263,-2.4898,-2.3948,-2.3794,-2.3745,-2.3985,-2.4158,-2.422,-2.4074,-2.373,-2.3595,-2.3595,-2.3595,-3.3648,-3.3465,-3.3694,-3.3299,-3.2501,-3.2501,-3.223,-3.1844,-3.1807,-3.2364,-3.3308,-3.4117,-3.4912,-3.543,-3.5616,-3.5616,-3.5616,-3.5616,-3.5616,-3.5616,-3.5616,-3.5616,-3.5616,-3.5616,-3.5616,-3.5616,-3.5616,-3.5616,-3.5616,-3.5554,-3.527,-3.5121,-3.4965,-3.4854,-3.4664,-3.4406,-3.3531,-3.261,-3.2351,-3.2261,-3.1284,-3.1077,-3.0793,-3.0163,-3.0013,-2.9549,-2.919,-2.8562,-2.8334,-2.8124,-2.7824,-2.769,-2.7585,-2.7585,-2.7585,-2.7585,-2.7585,-2.7585,-2.7585,-2.8052,-2.8255,-2.8231,-2.7845,-2.7585,-2.7585,-2.7929,-2.7929,-2.7805,-2.787,-2.7591,-2.6814,-2.6565,-2.6293,-2.4878,-2.4126,-2.3991,-2.4239,-2.4921,-2.51,-2.532,-2.5591,-2.5663,-2.5631,-2.5598,-2.5781,-2.5924,-2.558,-2.5281,-2.5186,-2.5128,-2.5208,-2.5322,-2.5357,-2.5598,-2.5908,-2.5781,-2.5596,-2.5542,-2.5451,-2.5638,-2.5928,-2.6487,-2.6176,-2.4661,-2.3595,-2.3616,-2.3702,-2.3794,-2.3879,-2.3943,-2.3858,-2.3659,-2.3595,-2.3595,-2.3595,-3.3375,-3.3029,-3.3148,-3.2852,-3.235,-3.2434,-3.223,-3.186,-3.1935,-3.265,-3.3778,-3.4506,-3.5059,-3.5498,-3.5616,-3.5616,-3.5616,-3.5616,-3.5616,-3.5616,-3.5616,-3.5616,-3.5616,-3.5616,-3.5616,-3.5616,-3.5616,-3.5616,-3.56,-3.5424,-3.5075,-3.4664,-3.4235,-3.4062,-3.4219,-3.3971,-3.3245,-3.2489,-3.2269,-3.2594,-3.1538,-3.1451,-3.1346,-3.0776,-3.0552,-3.0238,-2.9774,-2.925,-2.8757,-2.8543,-2.8244,-2.7899,-2.7705,-2.7585,-2.7585,-2.7585,-2.7585,-2.7585,-2.7585,-2.7585,-2.7625,-2.7735,-2.7685,-2.7585,-2.7585,-2.7585,-2.7635,-2.7635,-2.7595,-2.739,-2.6851,-2.6903,-2.6695,-2.5431,-2.4064,-2.3724,-2.3724,-2.4116,-2.4,-2.3991,-2.4358,-2.4842,-2.5198,-2.5166,-2.5089,-2.5144,-2.4772,-2.4471,-2.4307,-2.4287,-2.4369,-2.4455,-2.4576,-2.4875,-2.5202,-2.5105,-2.5031,-2.5182,-2.5109,-2.5031,-2.5357,-2.5892,-2.5766,-2.4333,-2.3595,-2.3595,-2.3638,-2.3709,-2.3681,-2.3638,-2.3595,-2.3595,-2.3595,-2.3595,-2.3595,-3.2934,-3.2466,-3.2092,-3.1897,-3.1879,-3.2298,-3.2213,-3.1818,-3.2212,-3.3096,-3.4353,-3.5126,-3.5481,-3.5616,-3.5616,-3.5616,-3.5616,-3.5616,-3.5616,-3.5616,-3.5616,-3.5616,-3.5616,-3.5616,-3.5616,-3.5616,-3.56,-3.5577,-3.5509,-3.5052,-3.4712,-3.4087,-3.3365,-3.2986,-3.3479,-3.3013,-3.2641,-3.2477,-3.1936,-3.1796,-3.1553,-3.1496,-3.1406,-3.1241,-3.0898,-3.0612,-3.0417,-2.9894,-2.94,-2.9011,-2.8798,-2.8319,-2.7675,-2.76,-2.7585,-2.7585,-2.7585,-2.7585,-2.7585,-2.7585,-2.7585,-2.7585,-2.7585,-2.7585,-2.7585,-2.7585,-2.7585,-2.7585,-2.7585,-2.7585,-2.734,-2.707,-2.6735,-2.6066,-2.4739,-2.3894,-2.3939,-2.3595,-2.3595,-2.3595,-2.3694,-2.3972,-2.4511,-2.4776,-2.4516,-2.4287,-2.3921,-2.3702,-2.3659,-2.3702,-2.3858,-2.3927,-2.4095,-2.4307,-2.4592,-2.4511,-2.4511,-2.4657,-2.4677,-2.4552,-2.443,-2.4601,-2.4271,-2.3638,-2.3595,-2.3595,-2.3595,-2.3595,-2.3595,-2.3595,-2.3595,-2.3595,-2.3595,-2.3595,-2.3595,-3.245,-3.2039,-3.2213,-3.1915,-3.1507,-3.186,-3.1788,-3.1652,-3.254,-3.3592,-3.4506,-3.5261,-3.56,-3.5616,-3.5616,-3.5616,-3.5616,-3.5616,-3.5616,-3.5616,-3.5616,-3.5616,-3.5616,-3.5616,-3.5616,-3.56,-3.556,-3.5276,-3.4918,-3.4528,-3.3937,-3.3251,-3.2516,-3.2064,-3.2407,-3.2544,-3.2933,-3.2132,-3.1994,-3.2035,-3.1582,-3.1496,-3.1496,-3.1496,-3.1227,-3.1092,-3.1047,-3.0492,-3.0043,-2.9669,-2.9445,-2.8618,-2.7809,-2.7585,-2.7585,-2.7585,-2.7585,-2.7585,-2.7585,-2.7585,-2.7585,-2.7585,-2.7585,-2.7585,-2.7585,-2.7585,-2.7585,-2.7585,-2.7585,-2.7585,-2.748,-2.742,-2.7136,-2.6761,-2.5749,-2.4941,-2.4567,-2.3924,-2.3595,-2.3595,-2.3658,-2.3691,-2.4028,-2.4287,-2.4101,-2.4012,-2.3724,-2.3659,-2.3616,-2.3616,-2.3702,-2.3702,-2.3794,-2.3921,-2.3991,-2.4053,-2.4032,-2.4116,-2.4074,-2.3906,-2.3794,-2.38,-2.3752,-2.3595,-2.3595,-2.3595,-2.3595,-2.3595,-2.3595,-2.3595,-2.3595,-2.3595,-2.3595,-2.3595,-2.3595,-3.2213,-3.1844,-3.2127,-3.1933,-3.1488,-3.1696,-3.1823,-3.2147,-3.3254,-3.4201,-3.4895,-3.5397,-3.5616,-3.5616,-3.5616,-3.5616,-3.5616,-3.5616,-3.5616,-3.5616,-3.5616,-3.5616,-3.5616,-3.5616,-3.5616,-3.5538,-3.5316,-3.4981,-3.464,-3.4112,-3.3313,-3.2379,-3.1739,-3.1653,-3.1866,-3.2228,-3.2379,-3.1768,-3.1824,-3.191,-3.1611,-3.1496,-3.1496,-3.1496,-3.1451,-3.1466,-3.1361,-3.1092,-3.0731,-3.0432,-2.9939,-2.8996,-2.8199,-2.76,-2.76,-2.7585,-2.7585,-2.7585,-2.7585,-2.7585,-2.7585,-2.7585,-2.7585,-2.7585,-2.7585,-2.7585,-2.7585,-2.7585,-2.7585,-2.7585,-2.7585,-2.7585,-2.7435,-2.7046,-2.6776,-2.5952,-2.5758,-2.5121,-2.4388,-2.4298,-2.3684,-2.367,-2.364,-2.3638,-2.3709,-2.3659,-2.3595,-2.3595,-2.3595,-2.3595,-2.3595,-2.3595,-2.3616,-2.3724,-2.3752,-2.3709,-2.3702,-2.3616,-2.3595,-2.3595,-2.3595,-2.3687,-2.3638,-2.3595,-2.3595,-2.3595,-2.3595,-2.3595,-2.3595,-2.3595,-2.3595,-2.3595,-2.3595,-2.3595,-2.3595,-3.2196,-3.1807,-3.1807,-3.1789,-3.1771,-3.1888,-3.2486,-3.344,-3.415,-3.4878,-3.5566,-3.5549,-3.56,-3.5616,-3.5616,-3.5616,-3.5616,-3.5616,-3.5616,-3.5616,-3.5616,-3.5616,-3.5616,-3.5616,-3.5616,-3.5402,-3.5052,-3.4688,-3.4406,-3.3297,-3.2284,-3.1752,-3.1582,-3.1496,-3.1596,-3.1682,-3.1739,-3.1611,-3.1582,-3.164,-3.1496,-3.1496,-3.1496,-3.1496,-3.1496,-3.1496,-3.1451,-3.1361,-3.1062,-3.0957,-3.0957,-2.9774,-2.8682,-2.769,-2.7615,-2.7585,-2.7585,-2.7585,-2.7585,-2.7585,-2.7585,-2.7585,-2.7585,-2.7585,-2.7585,-2.7585,-2.7585,-2.7585,-2.7585,-2.7585,-2.7585,-2.7585,-2.757,-2.748,-2.748,-2.7255,-2.7285,-2.6716,-2.5863,-2.5159,-2.4178,-2.3849,-2.3819,-2.3774,-2.3729,-2.3595,-2.3595,-2.3595,-2.3595,-2.3595,-2.3595,-2.3595,-2.3595,-2.3595,-2.3595,-2.3595,-2.3595,-2.3595,-2.3595,-2.3595,-2.3595,-2.3595,-2.3595,-2.3595,-2.3595,-2.3595,-2.3595,-2.3595,-2.3595,-2.3595,-2.3573,-2.3595,-2.3595,-2.3595,-2.3595,-3.1751,-3.1411,-3.1695,-3.164,-3.1543,-3.2474,-3.3413,-3.4167,-3.4455,-3.4912,-3.5616,-3.5616,-3.5616,-3.5616,-3.5616,-3.5616,-3.5616,-3.5616,-3.5616,-3.5616,-3.5616,-3.5616,-3.5616,-3.5616,-3.5616,-3.5339,-3.4918,-3.4244,-3.3643,-3.2516,-3.1824,-3.1524,-3.1496,-3.1496,-3.1496,-3.1496,-3.1496,-3.1496,-3.1496,-3.1496,-3.1496,-3.1496,-3.1496,-3.1496,-3.1496,-3.1496,-3.1496,-3.1496,-3.1286,-3.1331,-3.1376,-3.0748,-3.0629,-2.8742,-2.7585,-2.7585,-2.7585,-2.7585,-2.7585,-2.7585,-2.7585,-2.7585,-2.7585,-2.7585,-2.7585,-2.7585,-2.7585,-2.7585,-2.7585,-2.7585,-2.7585,-2.7585,-2.7585,-2.7585,-2.7585,-2.7585,-2.7585,-2.736,-2.6581,-2.6237,-2.5226,-2.4358,-2.4283,-2.4029,-2.3954,-2.3729,-2.3595,-2.3595,-2.3595,-2.3595,-2.3595,-2.3595,-2.3595,-2.3595,-2.3595,-2.3595,-2.3595,-2.3595,-2.3595,-2.3595,-2.3595,-2.3595,-2.3595,-2.3595,-2.3595,-2.3595,-2.3595,-2.3595,-2.3573,-2.3573,-2.3573,-2.3573,-2.3573,-2.3465,-2.3384,-3.1694,-3.1506,-3.1696,-3.1872,-3.2263,-3.3339,-3.4252,-3.4844,-3.4945,-3.5211,-3.5583,-3.5616,-3.5616,-3.5616,-3.5616,-3.5616,-3.5616,-3.5616,-3.5616,-3.5616,-3.5616,-3.5616,-3.5616,-3.5554,-3.5385,-3.5098,-3.4544,-3.3786,-3.305,-3.2228,-3.1496,-3.1496,-3.1496,-3.1496,-3.1496,-3.1496,-3.1496,-3.1496,-3.1496,-3.1496,-3.1496,-3.1496,-3.1496,-3.1496,-3.1496,-3.1496,-3.1496,-3.1496,-3.1496,-3.1496,-3.1496,-3.1481,-3.1017,-2.9086,-2.7974,-2.7929,-2.7735,-2.766,-2.7585,-2.7585,-2.7585,-2.7585,-2.7585,-2.7585,-2.7585,-2.7585,-2.7585,-2.7585,-2.7585,-2.7585,-2.7585,-2.7585,-2.7585,-2.7585,-2.7585,-2.7585,-2.7585,-2.7585,-2.7405,-2.724,-2.6422,-2.5375,-2.4814,-2.45,-2.4343,-2.4373,-2.4044,-2.3595,-2.3595,-2.3595,-2.3595,-2.3595,-2.3595,-2.3595,-2.3595,-2.3595,-2.3595,-2.3595,-2.3595,-2.3595,-2.3595,-2.3595,-2.3595,-2.3595,-2.3595,-2.3595,-2.3595,-2.3573,-2.3573,-2.3486,-2.3253,-2.3017,-2.2972,-2.2972,-2.2905,-3.1823,-3.1733,-3.1821,-3.2466,-3.3495,-3.4167,-3.4878,-3.5566,-3.5532,-3.56,-3.5616,-3.5616,-3.5616,-3.5616,-3.5616,-3.5616,-3.5616,-3.5616,-3.5616,-3.5616,-3.5616,-3.5616,-3.5577,-3.5509,-3.5144,-3.4528,-3.3862,-3.3156,-3.2516,-3.1866,-3.1496,-3.1496,-3.1496,-3.1496,-3.1496,-3.1496,-3.1496,-3.1496,-3.1496,-3.1496,-3.1496,-3.1496,-3.1496,-3.1496,-3.1496,-3.1496,-3.1496,-3.1496,-3.1496,-3.1496,-3.1496,-3.1496,-3.0494,-2.9729,-2.9007,-2.8259,-2.7989,-2.7779,-2.7645,-2.7585,-2.7585,-2.7585,-2.7585,-2.7585,-2.7585,-2.7585,-2.7585,-2.7585,-2.7585,-2.7585,-2.7585,-2.7585,-2.7585,-2.7585,-2.7585,-2.7585,-2.7585,-2.7585,-2.754,-2.73,-2.6707,-2.5809,-2.56,-2.53,-2.4956,-2.5061,-2.4837,-2.4133,-2.3714,-2.3714,-2.3804,-2.3774,-2.3595,-2.3595,-2.3595,-2.3595,-2.3595,-2.3595,-2.3595,-2.3595,-2.3595,-2.3595,-2.3595,-2.3595,-2.3595,-2.3595,-2.3595,-2.3573,-2.3399,-2.3046,-2.2762,-2.2369,-2.2276,-2.2276,-2.2354,-3.1621,-3.1402,-3.1947,-3.2968,-3.4172,-3.4421,-3.4928,-3.5583,-3.5616,-3.5616,-3.5616,-3.5616,-3.5616,-3.5616,-3.5616,-3.5616,-3.5616,-3.5616,-3.5616,-3.5616,-3.5616,-3.5616,-3.547,-3.5161,-3.4783,-3.4268,-3.3505,-3.2504,-3.1951,-3.1596,-3.1496,-3.1496,-3.1496,-3.1496,-3.1496,-3.1496,-3.1496,-3.1496,-3.1496,-3.1496,-3.1496,-3.1496,-3.1496,-3.1496,-3.1496,-3.1496,-3.1496,-3.1496,-3.1496,-3.1496,-3.1496,-3.1152,-3.0464,-3.0449,-2.9564,-2.8378,-2.8304,-2.8019,-2.7705,-2.7585,-2.7585,-2.7585,-2.7585,-2.7585,-2.7585,-2.7585,-2.7585,-2.7585,-2.7585,-2.7585,-2.7585,-2.7585,-2.7585,-2.7585,-2.7585,-2.7585,-2.7585,-2.7585,-2.7585,-2.7225,-2.6776,-2.6512,-2.6318,-2.6063,-2.5719,-2.554,-2.5465,-2.5001,-2.4268,-2.4044,-2.4313,-2.4238,-2.3699,-2.361,-2.3603,-2.3595,-2.3595,-2.3595,-2.3595,-2.3595,-2.3595,-2.3595,-2.3595,-2.3595,-2.3595,-2.3486,-2.3443,-2.353,-2.3275,-2.2649,-2.2282,-2.1903,-2.1403,-2.1259,-2.151,-3.1579,-3.1802,-3.2852,-3.3749,-3.4472,-3.4844,-3.5233,-3.5549,-3.5616,-3.5616,-3.5616,-3.5616,-3.5616,-3.5616,-3.5616,-3.5616,-3.5616,-3.5616,-3.5616,-3.5616,-3.5616,-3.5616,-3.5339,-3.4871,-3.4431,-3.3921,-3.2756,-3.1853,-3.1553,-3.1496,-3.1496,-3.1496,-3.1496,-3.1496,-3.1496,-3.1496,-3.1496,-3.1496,-3.1496,-3.1496,-3.1496,-3.1496,-3.1496,-3.1496,-3.1496,-3.1496,-3.1496,-3.1496,-3.1496,-3.1496,-3.1496,-3.1376,-3.1062,-3.1122,-3.0673,-2.9699,-2.8996,-2.8308,-2.7839,-2.7615,-2.7615,-2.7615,-2.7585,-2.7585,-2.7585,-2.7585,-2.7585,-2.7585,-2.7585,-2.7585,-2.7585,-2.7585,-2.7585,-2.7585,-2.7585,-2.7585,-2.7585,-2.7585,-2.7585,-2.7465,-2.7195,-2.7136,-2.7001,-2.6971,-2.6686,-2.6686,-2.6482,-2.6363,-2.557,-2.4822,-2.4971,-2.4911,-2.4507,-2.3859,-2.3592,-2.3599,-2.3595,-2.3595,-2.3729,-2.361,-2.3625,-2.361,-2.3595,-2.3551,-2.3421,-2.3143,-2.3143,-2.3128,-2.2529,-2.1738,-2.1561,-2.1441,-2.0906,-2.0421,-2.0645,-3.1853,-3.2733,-3.3952,-3.4578,-3.4726,-3.5295,-3.5583,-3.5616,-3.5616,-3.5616,-3.5616,-3.5616,-3.5616,-3.5616,-3.5616,-3.5616,-3.5616,-3.5616,-3.5616,-3.5616,-3.5616,-3.5447,-3.5138,-3.4736,-3.3971,-3.314,-3.2117,-3.1739,-3.1496,-3.1496,-3.1496,-3.1496,-3.1496,-3.1496,-3.1496,-3.1496,-3.1496,-3.1496,-3.1496,-3.1496,-3.1496,-3.1496,-3.1496,-3.1496,-3.1496,-3.1496,-3.1496,-3.1496,-3.1496,-3.1496,-3.1496,-3.1436,-3.1391,-3.1421,-3.1421,-3.0688,-2.9729,-2.8742,-2.7899,-2.7764,-2.7705,-2.7645,-2.7615,-2.7585,-2.7585,-2.7585,-2.7585,-2.7585,-2.7585,-2.7585,-2.7585,-2.7585,-2.7585,-2.7585,-2.7585,-2.7585,-2.7585,-2.7585,-2.7585,-2.7585,-2.757,-2.754,-2.754,-2.754,-2.7555,-2.7585,-2.7585,-2.7585,-2.733,-2.6686,-2.6387,-2.6162,-2.5773,-2.5012,-2.4161,-2.3985,-2.4133,-2.4163,-2.4298,-2.3924,-2.3744,-2.4059,-2.3999,-2.3486,-2.3312,-2.2963,-2.2603,-2.2483,-2.1738,-2.1109,-2.1091,-2.1053,-2.0459,-2.0042,-1.9952,-3.2886,-3.4138,-3.4404,-3.4844,-3.5329,-3.5532,-3.5616,-3.5616,-3.5616,-3.5616,-3.5616,-3.5616,-3.5616,-3.5616,-3.5616,-3.5616,-3.5616,-3.5616,-3.5616,-3.5616,-3.5616,-3.5293,-3.4752,-3.4137,-3.3061,-3.2269,-3.171,-3.1567,-3.1496,-3.1496,-3.1496,-3.1496,-3.1496,-3.1496,-3.1496,-3.1496,-3.1496,-3.1496,-3.1496,-3.1496,-3.1496,-3.1496,-3.1496,-3.1496,-3.1496,-3.1496,-3.1496,-3.1496,-3.1496,-3.1496,-3.1496,-3.1496,-3.1496,-3.1496,-3.1496,-3.1301,-3.0372,-2.9445,-2.8682,-2.8278,-2.8158,-2.7615,-2.7585,-2.7585,-2.7585,-2.7585,-2.7585,-2.7585,-2.7585,-2.7585,-2.7585,-2.7585,-2.7585,-2.7585,-2.7585,-2.7585,-2.7585,-2.7585,-2.7585,-2.7585,-2.7585,-2.757,-2.757,-2.757,-2.757,-2.7585,-2.7585,-2.7585,-2.7585,-2.7585,-2.7585,-2.721,-2.6776,-2.6273,-2.5499,-2.505,-2.5031,-2.5016,-2.4852,-2.4507,-2.4462,-2.4866,-2.4664,-2.3759,-2.313,-2.2724,-2.239,-2.2042,-2.1572,-2.1084,-2.0924,-2.0709,-2.0156,-1.9999,-2.0175]},{"header":{"parameterUnit":"m.s-1","parameterCategory":1,"la1":31.0,"la2":29.5877,"lo1":-88.7671,"lo2":-86.6584,"dx":0.0162,"dy":0.0185,"nx":115,"ny":88,"refTime":"2022-12-04T06:00:00:Z","depth":0,"parameterNumber":3,"parameterNumberName":"V-component_of_WINDS"},"data":[0.0,0.0,0.0,0.0,0.0,0.0,0.0,0.0,0.0,0.0,0.0,0.0,0.0,0.0,0.0,0.0,0.0,0.0,0.0,0.0,0.0,0.0,0.0,0.0,0.0,0.0,0.0,0.0,0.0,0.0,0.0,0.0,0.0,0.0,0.0,0.0,0.0,0.0,0.0,0.0,0.0,0.0,0.0,0.0,0.0,0.0,0.0,0.0,0.0,0.0,0.0,0.0,0.0,0.0,0.0,0.0,0.0,0.0,0.0,0.0,0.0,0.0,0.0,0.0,0.0,0.0,0.0,0.0,0.0,0.0,0.0,0.0,0.0,0.0,0.0,0.0,0.0,0.0,0.0,0.0,0.0,0.0,0.0,0.0,0.0,0.0,0.0,0.0,0.0,0.0,0.0,0.0,0.0,0.0,0.0,0.0,0.0,0.0,0.0,0.0,0.0,0.0,0.0,0.0,0.0,0.0,0.0,0.0,0.0,0.0,0.0,0.0,0.0,0.0,0.0,0.0,0.0,0.0,0.0,0.0,0.0,0.0,0.0,0.0,0.0,0.0,0.0,0.0,0.0,0.0,0.0,0.0,0.0,0.0,0.0,0.0,0.0,0.0,0.0,0.0,0.0,0.0,0.0,0.0,0.0,0.0,0.0,0.0,0.0,0.0,0.0,0.0,0.0,0.0,0.0,0.0,0.0,0.0,0.0,0.0,0.0,0.0,0.0,0.0,0.0,0.0,0.0,0.0,0.0,0.0,0.0,0.0,0.0,0.0,0.0,0.0,0.0,0.0,0.0,0.0,0.0,0.0,0.0,0.0,0.0,0.0,0.0,0.0,0.0,0.0,0.0,0.0,0.0,0.0,0.0,0.0,0.0,0.0,0.0,0.0,0.0,0.0,0.0,0.0,0.0,0.0,0.0,0.0,0.0,0.0,0.0,0.0,0.0,0.0,0.0,0.0,0.0,0.0,0.0,0.0,0.0,0.0,0.0,0.0,0.0,0.0,0.0,0.0,0.0,0.0,0.0,0.0,0.0,0.0,0.0,0.0,0.0,0.0,0.0,0.0,0.0,0.0,0.0,0.0,0.0,0.0,0.0,0.0,0.0,0.0,0.0,0.0,0.0,0.0,0.0,0.0,0.0,0.0,0.0,0.0,0.0,0.0,0.0,0.0,0.0,0.0,0.0,0.0,0.0,0.0,0.0,0.0,0.0,0.0,0.0,0.0,0.0,0.0,0.0,0.0,0.0,0.0,0.0,0.0,0.0,0.0,0.0,0.0,0.0,0.0,0.0,0.0,0.0,0.0,0.0,0.0,0.0,0.0,0.0,0.0,0.0,0.0,0.0,0.0,0.0,0.0,0.0,0.0,0.0,0.0,0.0,0.0,0.0,0.0,0.0,0.0,0.0,0.0,0.0,0.0,0.0,0.0,0.0,0.0,0.0,0.0,0.0,0.0,0.0,0.0,0.0,0.0,0.0,0.0,0.0,0.0,0.0,0.0,0.0,0.0,0.0,0.0,0.0,0.0,0.0,0.0,0.0,0.0,0.0,0.0,0.0,0.0,0.0,0.0,0.0,0.0,0.0,0.0,0.0,0.0,0.0,0.0,0.0,0.0,0.0,0.0,0.0,0.0,0.0,0.0,0.0,0.0,0.0,0.0,0.0,0.0,0.0,0.0,0.0,0.0,0.0,0.0,0.0,0.0,0.0,0.0,0.0,0.0,0.0,0.0,0.0,0.0,0.0,0.0,0.0,0.0,0.0,0.0,0.0,0.0,0.0,0.0,0.0,0.0,0.0,0.0,0.0,0.0,0.0,0.0,0.0,0.0,0.0,0.0,0.0,0.0,0.0,0.0,0.0,0.0,0.0,0.0,0.0,0.0,0.0,0.0,0.0,0.0,0.0,0.0,0.0,0.0,0.0,0.0,0.0,0.0,0.0,0.0,0.0,0.0,0.0,0.0,0.0,0.0,0.0,0.0,0.0,0.0,0.0,0.0,0.0,0.0,0.0,0.0,0.0,0.0,0.0,0.0,0.0,0.0,0.0,0.0,0.0,0.0,0.0,0.0,0.0,0.0,0.0,0.0,0.0,0.0,0.0,0.0,0.0,0.0,0.0,0.0,0.0,0.0,0.0,0.0,0.0,0.0,0.0,0.0,0.0,0.0,0.0,0.0,0.0,0.0,0.0,0.0,0.0,0.0,0.0,0.0,0.0,0.0,0.0,0.0,0.0,0.0,0.0,0.0,0.0,0.0,0.0,0.0,0.0,0.0,0.0,0.0,0.0,0.0,0.0,0.0,0.0,0.0,0.0,0.0,0.0,0.0,0.0,0.0,0.0,0.0,0.0,0.0,0.0,0.0,0.0,0.0,0.0,0.0,0.0,0.0,0.0,0.0,0.0,0.0,0.0,0.0,0.0,0.0,0.0,0.0,0.0,0.0,0.0,0.0,0.0,0.0,0.0,0.0,0.0,0.0,0.0,0.0,0.0,0.0,0.0,0.0,0.0,0.0,0.0,0.0,0.0,0.0,0.0,0.0,0.0,0.0,0.0,0.0,0.0,0.0,0.0,0.0,0.0,0.0,0.0,0.0,0.0,0.0,0.0,0.0,0.0,0.0,0.0,0.0,0.0,0.0,0.0,0.0,0.0,0.0,0.0,0.0,0.0,0.0,0.0,0.0,0.0,0.0,0.0,0.0,0.0,0.0,0.0,0.0,0.0,0.0,0.0,0.0,0.0,0.0,0.0,0.0,0.0,0.0,0.0,0.0,0.0,0.0,0.0,0.0,0.0,0.0,0.0,0.0,0.0,0.0,0.0,0.0,0.0,0.0,0.0,0.0,0.0,0.0,0.0,0.0,0.0,0.0,0.0,0.0,0.0,0.0,0.0,0.0,0.0,0.0,0.0,0.0,0.0,0.0,0.0,0.0,0.0,0.0,0.0,0.0,0.0,0.0,0.0,0.0,0.0,0.0,0.0,0.0,0.0,0.0,0.0,0.0,0.0,0.0,0.0,0.0,0.0,0.0,0.0,0.0,0.0,0.0,0.0,0.0,0.0,0.0,0.0,0.0,0.0,0.0,0.0,0.0,0.0,0.0,0.0,0.0,0.0,0.0,0.0,0.0,0.0,0.0,0.0,0.0,0.0,0.0,0.0,0.0,0.0,0.0,0.0,0.0,0.0,0.0,0.0,0.0,0.0,0.0,0.0,0.0,0.0,0.0,0.0,0.0,0.0,0.0,0.0,0.0,0.0,0.0,0.0,0.0,0.0,0.0,0.0,0.0,0.0,0.0,0.0,0.0,0.0,0.0,0.0,0.0,0.0,0.0,0.0,0.0,0.0,0.0,0.0,0.0,0.0,0.0,0.0,0.0,0.0,0.0,0.0,0.0,0.0,0.0,0.0,0.0,0.0,0.0,0.0,0.0,0.0,0.0,0.0,0.0,0.0,0.0,0.0,0.0,0.0,0.0,0.0,0.0,0.0,0.0,0.0,0.0,0.0,0.0,0.0,0.0,0.0,0.0,0.0,0.0,0.0,0.0,0.0,0.0,0.0,0.0,0.0,0.0,0.0,0.0,0.0,0.0,0.0,0.0,0.0,0.0,0.0,0.0,0.0,0.0,0.0,0.0,0.0,0.0,0.0,0.0,0.0,0.0,0.0,0.0,0.0,0.0,0.0,0.0,0.0,0.0,0.0,0.0,0.0,0.0,0.0,0.0,0.0,0.0,0.0,0.0,0.0,0.0,0.0,0.0,0.0,0.0,0.0,0.0,0.0,0.0,0.0,0.0,0.0,0.0,0.0,0.0,0.0,0.0,0.0,0.0,0.0,0.0,0.0,0.0,0.0,0.0,0.0,0.0,0.0,0.0,0.0,0.0,0.0,0.0,0.0,0.0,0.0,0.0,0.0,0.0,0.0,0.0,0.0,0.0,0.0,0.0,0.0,0.0,0.0,0.0,0.0,0.0,0.0,0.0,0.0,0.0,0.0,0.0,0.0,0.0,0.0,0.0,0.0,0.0,0.0,0.0,0.0,0.0,0.0,0.0,0.0,0.0,0.0,0.0,0.0,0.0,0.0,0.0,0.0,0.0,0.0,0.0,0.0,0.0,0.0,0.0,0.0,0.0,0.0,0.0,0.0,0.0,0.0,0.0,0.0,0.0,0.0,0.0,0.0,0.0,0.0,0.0,0.0,0.0,0.0,0.0,0.0,0.0,0.0,0.0,0.0,0.0,0.0,0.0,0.0,0.0,0.0,0.0,0.0,0.0,0.118,0.0,0.0,0.0,0.1102,0.0,0.0,0.0,0.0,0.0,0.0,0.0,0.0,0.0,0.0,0.0,0.0,0.0,0.0,0.0,0.0,0.0,0.0,0.0,0.0,0.0,0.0,0.0,0.0,0.0,0.0,0.0,0.0,0.0,0.0,0.0,0.0,0.0,0.0,0.0,0.0,0.0,0.0,0.0,0.0,0.0,0.0,0.0,0.0,0.0,0.0,0.0,0.0,0.0,0.0,0.0,0.0,0.0,0.0,0.0,0.0,0.0,0.0,0.0,0.0,0.0,0.0,0.0,0.0,0.0,0.0,0.0,0.0,0.0,0.0,0.0,0.0,0.0,0.0,0.0,0.0,0.0,0.0,0.0,0.0,0.0,0.0,0.0,0.0,0.0,0.0,0.0,0.0,0.0,0.0,0.0,0.0,0.0,0.0,0.0,0.0,0.0,0.0,0.0,0.0,0.0,0.0,0.0,0.0,0.0,0.0,0.0,0.0,0.0,0.0,0.1128,0.1015,0.1129,0.1162,0.1105,0.0,0.0,0.0,0.0,0.0,0.0,0.0,0.0,0.0,0.0,0.0,0.0,0.0,0.0,0.0,0.0,0.0,0.0,0.0,0.0,0.0,0.0,0.0,0.0,0.0,0.0,0.0,0.0,0.0,0.0,0.0,0.0,0.0,0.0,0.0,0.0,0.0,0.0,0.0,0.0,0.0,0.0,0.0,0.0,0.0,0.0,0.0,0.0,0.0,0.0,0.0,0.0,0.0,0.0,0.0,0.0,0.0,0.0,0.0,0.0,0.0,0.0,0.0,0.0,0.0,0.0,0.0,0.0,0.0,0.0,0.0,0.0,0.0,0.0,0.0,0.0,0.0,0.0,0.0,0.0,0.0,0.0,0.0,0.0,0.0,0.0,0.0,0.0,0.0,0.0,0.0,0.0,0.0,0.0,0.0,0.0,0.0,0.0,0.0,0.0,0.0,0.0,0.0,0.0,0.0,0.0,0.0,0.0,0.0,0.0,0.0,0.0,0.1112,0.1149,0.1145,0.0,0.0,0.0,0.0,0.0,0.0,0.0,0.0,0.0,0.0,0.0,0.0,0.0,0.0,0.0,0.0,0.0,0.0,0.0,0.0,0.0,0.0,0.0,0.0,0.0,0.0,0.0,0.0,0.0,0.0,0.0,0.0,0.0,0.0,0.0,0.0,0.0,0.0,0.0,0.0,0.0,0.0,0.0,0.0,0.0,0.0,0.0,0.0,0.0,0.0,0.0,0.0,0.0,0.0,0.0,0.0,0.0,0.0,0.0,0.0,0.0,0.0,0.0,0.0,0.0,0.0,0.0,0.0,0.0,0.0,0.0,0.0,0.0,0.0,0.0,0.0,0.0,0.0,0.0,0.0,0.0,0.0,0.0,0.0,0.0,0.0,0.0,0.0,0.0,0.0,0.0,0.0,0.0,0.0,0.0,0.0,0.0,0.0,0.0,0.0,0.0,0.0,0.0,0.0,0.0,0.0,0.0,0.0,0.0,0.0,0.1051,0.0926,0.1159,0.0,0.1278,0.0,0.0,0.0,0.0,0.0,0.0,0.0,0.0,0.0,0.0,0.0,0.0,0.0,0.0,0.0,0.0,0.0,0.0,0.0,0.0,0.0,0.0,0.0,0.0,0.0,0.0,0.0,0.0,0.0,0.0,0.0,0.0,0.0,0.0,0.0,0.0,0.0,0.0,0.0,0.0,0.0,0.0,0.0,0.0,0.0,0.0,0.0,0.0,0.0,0.0,0.0,0.0,0.0,0.0,0.0,0.0,0.0,0.0,0.0,0.0,0.0,0.0,0.0,0.0,0.0,0.0,0.0,0.0,0.0,0.0,0.0,0.0,0.0,0.0,0.0,0.0,0.0,0.0,0.0,0.0,0.0,0.0,0.0,0.0,0.0,0.0,0.0,0.0,0.0,0.0,0.0,0.0,0.0,0.0,0.0,0.0,0.0,0.0,0.0,0.0,0.0,0.0,0.0,0.0,0.0,0.0,0.0,0.0,0.0,0.0,0.096,0.0915,0.0999,0.1055,0.0,0.0,0.0,0.0,0.0,0.0,0.0,0.0,0.0,0.0,0.0,0.0,0.0,0.0,0.0,0.0,0.0,0.0,0.0,0.0,0.0,0.0,0.0,0.0,0.0,0.0,0.0,0.0,0.0,0.0,0.0,0.0,0.0,0.0,0.0,0.0,0.0,0.0,0.0,0.0,0.0,0.0,0.0,0.0,0.0,0.0,0.0,0.0,0.0,0.0,0.0,0.0,0.0,0.0,0.0,0.0,0.0,0.0,0.0,0.0,0.0,0.0,0.0,0.0,0.0,0.0,0.0,0.0,0.0,0.0,0.0,0.0,0.0,0.0,0.0,0.0,0.0,0.0,0.0,0.0,0.0,0.0,0.0,0.0,0.0,0.0,0.0,0.0,0.0,0.0,0.0,0.0,0.0,0.0,0.0,0.0,0.0,0.0,0.0,0.0,0.0,0.0,0.0,0.0,0.0,0.0,0.0,0.0,0.0,0.0,0.1086,0.1182,0.1252,0.118,0.1143,0.1145,0.0,0.0,0.0,0.0,0.0,0.0,0.0,0.0,0.0,0.0,0.0,0.0,0.0,0.0,0.0,0.0,0.0,0.0,0.0,0.0,0.0,0.0,0.0,0.0,0.0,0.0,0.0,0.0,0.0,0.0,0.0,0.0,0.0,0.0,0.0,0.0,0.0,0.0,0.0,0.0,0.0,0.0,0.0,0.0,0.0,0.0,0.0,0.0,0.0,0.0,0.0,0.0,0.0,0.0,0.0,0.0,0.0,0.0,0.0,0.0,0.0,0.0,0.0,0.0,0.0,0.0,0.0,0.0,0.0,0.0,0.0,0.0,0.0,0.0,0.0,0.0,0.0,0.0,0.0,0.0,0.0,0.0,0.0,0.0,0.0,0.0,0.0,0.0,0.0,0.0,0.0,0.0,0.0,0.0,0.0,0.0,0.0,0.0,0.0,0.0,0.0,0.0,0.0,0.0,0.0,0.0,0.0,0.0,0.1105,0.1529,0.1868,0.2112,0.19,0.1759,0.0,0.0,0.0,0.0,0.0,0.0,0.0,0.0,0.0,0.0,0.0,0.0,0.0,0.0,0.0,0.0,0.0,0.0,0.0,0.0,0.0,0.0,0.0,0.0,0.0,0.0,0.0,0.0,0.0,0.0,0.0,0.0,0.0,0.0,0.0,0.0,0.0,0.0,0.0,0.0,0.0,0.0,0.0,0.0,0.0,0.0,0.0,0.0,0.0,0.0,0.0,0.0,0.0,0.0,0.0,0.0,0.0,0.0,0.0,0.0,0.0,0.0,0.0,0.0,0.0,0.0,0.0,0.0,0.0,0.0,0.0,0.0,0.0,0.0,0.0,0.0,0.0,0.0,0.0,0.0,0.0,0.0,0.0,0.0,0.0,0.0,0.0,0.0,0.0,0.0,0.0,0.0,0.0,0.0,0.0,0.0,0.0,0.0,0.0,0.0,0.0,0.0,0.0,0.0,0.0,0.0,0.0,0.0,0.0,0.1369,0.1816,0.2095,0.2194,0.21,0.1977,0.0,0.0,0.0,0.0,0.0,0.0,0.0,0.0,0.0,0.0,0.0,0.0,0.0,0.0,0.0,0.0,0.0,0.0,0.0,0.0,0.0,0.0,0.0,0.0,0.0,0.0,0.0,0.0,0.0,0.0,0.0,0.0,0.0,0.0,0.0,0.0,0.0,0.0,0.0,0.0,0.0,0.0,0.0,0.0,0.0,0.0,0.0,0.0,0.0,0.0,0.0,0.0,0.0,0.0,0.0,0.0,0.0,0.0,0.0,0.0,0.0,0.0,0.0,0.0,0.0,0.0,0.0,0.0,0.0,0.0,0.0,0.0,0.0,0.0,0.0,0.0,0.0,0.0,0.0,0.0,0.0,0.0,0.0,0.0,0.0,0.0,0.0,0.0,0.0,0.0,0.0,0.0,0.0,0.0,0.0,0.0,0.0,0.0,0.0,0.0,0.0,0.0,0.0,0.0,0.0,0.0,0.0,0.0,0.0,0.2017,0.2331,0.2542,0.2611,0.2533,0.2356,0.0,0.0,0.0,0.0,0.0,0.0,0.0,0.0,0.0,0.0,0.0,0.0,0.0,0.0,0.0,0.0,0.0,0.0,0.0,0.0,0.0,0.0,0.0,0.0,0.0,0.0,0.0,0.0,0.0,0.0,0.0,0.0,0.0,0.0,0.0,0.0,0.0,0.0,0.0,0.0,0.0,0.0,0.0,0.0,0.0,0.0,0.0,0.0,0.0,0.0,0.0,0.0,0.0,0.0,0.0,0.0,0.0,0.0,0.0,0.0,0.0,0.0,0.0,0.0,0.0,0.0,0.0,0.0,0.0,0.0,0.0,0.0,0.0,0.0,0.0,0.0,0.0,0.0,0.0,0.0,0.0,0.0,0.0,0.0,0.0,0.0,0.0,0.0,0.0,0.0,0.0,0.0,0.0,0.0,0.0,0.0,0.0,0.0,0.0,0.0,0.0,0.0,0.0,0.0,0.0,0.0,0.0,0.0,0.2349,0.3044,0.3084,0.3191,0.3469,0.322,0.2942,0.0,0.0,0.0,0.0,0.0,0.0,0.0,0.0,0.0,0.0,0.0,0.0,0.0,0.0,0.0,0.0,0.0,0.0,0.0,0.0,0.0,0.0,0.0,0.0,0.0,0.0,0.0,0.0,0.0,0.0,0.0,0.0,0.0,0.0,0.0,0.0,0.0,0.0,0.0,0.0,0.0,0.0,0.0,0.0,0.0,0.0,0.0,0.0,0.0,0.0,0.0,0.0,0.0,0.0,0.0,0.0,0.0,0.0,0.0,0.0,0.0,0.0,0.0,0.0,0.0,0.0,0.0,0.0,0.0,0.0,0.0,0.0,0.0,0.0,0.0,0.0,0.0,0.0,0.0,0.0,0.0,0.0,0.0,0.0,0.0,0.0,0.0,0.0,0.0,0.0,0.0,0.0,0.0,0.0,0.0,0.0,0.0,0.0,0.0,0.0,0.0,0.0,0.0,0.0,0.0,0.0,0.0,0.0,0.0,0.3093,0.3283,0.3413,0.3503,0.342,0.325,0.0,0.0,0.0,0.0,0.0,0.0,0.0,0.0,0.0,0.0,0.0,0.0,0.0,0.0,0.0,0.0,0.0,0.0,0.0,0.0,0.0,0.0,0.0,0.0,0.0,0.0,0.0,0.0,0.0,0.0,0.0,0.0,0.0,0.0,0.0,0.0,0.0,0.0,0.0,0.0,0.0,0.0,0.0,0.0,0.0,0.0,0.0,0.0,0.0,0.0,0.0,0.0,0.0,0.0,0.0,0.0,0.0,0.0,0.0,0.0,0.0,0.0,0.0,0.0,0.0,0.0,0.0,0.0,0.0,0.0,0.0,0.0,0.0,0.0,0.0,0.0,0.0,0.0,0.0,0.0,0.0,0.0,0.0,0.0,0.0,0.0,0.0,0.0,0.0,0.0,0.0,0.0,0.0,0.0,0.0,0.0,0.0,0.0,0.0,0.0,0.0,0.0,0.0,0.0,0.0,0.0,0.0,0.0,0.0,0.3587,0.3643,0.3694,0.3683,0.3672,0.3507,0.3104,0.0,0.0,0.0,0.0,0.0,0.0,0.0,0.0,0.0,0.0,0.0,0.0,0.0,0.0,0.0,0.0,0.0,0.0,0.0,0.0,0.0,0.0,0.0,0.0,0.0,0.0,0.0,0.0,0.0,0.0,0.0,0.0,0.0,0.0,0.0,0.0,0.0,0.0,0.0,0.0,0.0,0.0,0.0,0.0,0.0,0.0,0.0,0.0,0.0,0.0,0.0,0.0,0.0,0.0,0.0,0.0,0.0,0.0,0.0,0.0,0.0,0.0,0.0,0.0,0.0,0.0,0.0,0.0,0.0,0.0,0.0,0.0,0.0,0.0,0.0,0.0,0.0,0.0,0.0,0.0,0.0,0.0,0.0,0.0,0.0,0.0,0.0,0.0,0.0,0.0,0.0,0.0,0.0,0.0,0.0,0.0,0.0,0.0,0.0,0.0,0.0,0.0,0.0,0.0,0.0,0.0,0.0,0.0,0.4409,0.4208,0.4074,0.404,0.4025,0.3739,0.0,0.0,0.0,0.0,0.0,0.0,0.0,0.0,0.0,0.0,0.0,0.0,0.0,0.0,0.0,0.0,0.0,0.0,0.0,0.0,0.0,0.0,0.0,0.0,0.0,0.0,0.0,0.0,0.0,0.0,0.0,0.0,0.0,0.0,0.0,0.0,0.0,0.0,0.0,0.0,0.0,0.0,0.0,0.0,0.0,0.0,0.0,0.0,0.0,0.0,0.0,0.0,0.0,0.0,0.0,0.0,0.0,0.0,0.0,0.0,0.0,0.0,0.0,0.0,0.0,0.0,0.0,0.0,0.0,0.0,0.0,0.0,0.0,0.0,0.0,0.0,0.0,0.0,0.0,0.0,0.0,0.0,0.0,0.0,0.0,0.0,0.0,0.0,0.0,0.0,0.0,0.0,0.0,0.0,0.0,0.0,0.0,0.0,0.0,0.0,0.0,0.0,0.0,0.0,0.0,0.0,0.0,0.0,0.0,0.4694,0.5055,0.5057,0.4602,0.4389,0.4127,0.0,0.0,0.0,0.0,0.0,0.0,0.0,0.0,0.0,0.0,0.0,0.0,0.0,0.0,0.0,0.0,0.0,0.0,0.0,0.0,0.0,0.0,0.0,0.0,0.0,0.0,0.0,0.0,0.0,0.0,0.0,0.0,0.0,0.0,0.0,0.0,0.0,0.0,0.0,0.0,0.0,0.0,0.0,0.0,0.0,0.0,0.0,0.0,0.0,0.0,0.0,0.0,0.0,0.0,0.0,0.0,0.0,0.0,0.0,0.0,0.0,0.0,0.0,0.0,0.0,0.0,0.0,0.0,0.0,0.0,0.0,0.0,0.0,0.0,0.0,0.0,0.0,0.0,0.0,0.0,0.0,0.0,0.0,0.0,0.0,0.0,0.0,0.0,0.0,0.0,0.0,0.0,0.0,0.0,0.0,0.0,0.0,0.0,0.0,0.0,0.0,0.0,0.0,0.0,0.0,0.0,0.0,0.0,0.4992,0.5391,0.6086,0.6226,0.573,0.496,0.4436,0.0,0.0,0.0,0.0,0.0,0.0,0.0,0.0,0.0,0.0,0.0,0.0,0.0,0.0,0.0,0.0,0.0,0.0,0.0,0.0,0.0,0.0,0.0,0.0,0.0,0.0,0.0,0.0,0.0,0.0,0.0,0.0,0.0,0.0,0.0,0.0,0.0,0.0,0.0,0.0,0.0,0.0,0.0,0.0,0.0,0.0,0.0,0.0,0.0,0.0,0.0,0.0,0.0,0.0,0.0,0.0,0.0,0.0,0.0,0.0,0.0,0.0,0.0,0.0,0.0,0.0,0.0,0.0,0.0,0.0,0.0,0.0,0.0,0.0,0.0,0.0,0.0,0.0,0.0,0.0,0.0,0.0,0.0,0.0,0.0,0.0,0.0,0.0,0.0,0.0,0.0,0.0,0.0,0.0,0.0,0.0,0.0,0.0,0.0,0.0,0.0,0.0,0.0,0.0,0.0,0.0,0.0,0.0,0.5628,0.623,0.7103,0.739,0.702,0.5651,0.4748,0.0,0.0,0.0,0.0,0.0,0.0,0.0,0.0,0.0,0.0,0.0,0.0,0.0,0.0,0.0,0.0,0.0,0.0,0.0,0.0,0.0,0.0,0.0,0.0,0.0,0.0,0.0,0.0,0.0,0.0,0.0,0.0,0.0,0.0,0.0,0.0,0.0,0.0,0.0,0.0,0.0,0.0,0.0,0.0,0.0,0.0,0.0,0.0,0.0,0.0,0.0,0.0,0.0,0.0,0.0,0.0,0.0,0.0,0.0,0.0,0.0,0.0,0.0,0.0,0.0,0.0,0.0,0.0,0.0,0.0,0.0,0.0,0.0,0.0,0.0,0.0,0.0,0.0,0.0,0.0,0.0,0.0,0.0,0.0,0.0,0.0,0.0,0.0,0.0,0.0,0.0,0.0,0.0,0.0,0.0,0.0,0.0,0.0,0.0,0.0,0.0,0.0,0.0,0.0,0.0,0.0,0.0,0.0,0.5912,0.6512,0.7375,0.7682,0.7397,0.6172,0.5261,0.0,0.0,0.0,0.0,0.0,0.0,0.0,0.0,0.0,0.0,0.0,0.0,0.0,0.0,0.0,0.0,0.0,0.0,0.0,0.0,0.0,0.0,0.0,0.0,0.0,0.0,0.0,0.0,0.0,0.0,0.0,0.0,0.0,0.0,0.0,0.0,0.0,0.0,0.0,0.0,0.0,0.0,0.0,0.0,0.0,0.0,0.0,0.0,0.4812,0.0,0.0,0.0,0.0,0.0,0.0,0.0,0.0,0.0,0.0,0.0,0.0,0.0,0.0,0.0,0.0,0.0,0.0,0.0,0.0,0.0,0.0,0.0,0.0,0.0,0.0,0.0,0.0,0.0,0.0,0.0,0.0,0.0,0.0,0.0,0.0,0.0,0.0,0.0,0.0,0.0,0.0,0.0,0.0,0.0,0.0,0.0,0.0,0.0,0.0,0.0,0.0,0.0,0.0,0.0,0.0,0.0,0.0,0.0,0.6132,0.7029,0.7742,0.7989,0.7669,0.6807,0.5925,0.0,0.0,0.0,0.0,0.0,0.0,0.0,0.0,0.0,0.0,0.0,0.0,0.0,0.0,0.0,0.0,0.0,0.0,0.0,0.0,0.0,0.0,0.0,0.0,0.0,0.0,0.0,0.0,0.0,0.0,0.0,0.0,0.0,0.0,0.0,0.0,0.0,0.0,0.0,0.0,0.0,0.0,0.0,0.0,0.0,0.0,0.0,0.0,0.0,0.0,0.0,0.0,0.0,0.0,0.0,0.0,0.0,0.0,0.0,0.0,0.0,0.0,0.0,0.0,0.0,0.0,0.0,0.0,0.0,0.0,0.0,0.0,0.0,0.0,0.0,0.0,0.0,0.0,0.0,0.0,0.0,0.0,0.0,0.0,0.0,0.0,0.0,0.0,0.0,0.0,0.0,0.0,0.0,0.0,0.0,0.0,0.0,0.0,0.0,0.0,0.0,0.0,0.0,0.0,0.0,0.0,0.0,0.5346,0.6373,0.7584,0.8181,0.8297,0.7979,0.7408,0.652,0.5356,0.0,0.0,0.0,0.0,0.0,0.0,0.0,0.0,0.0,0.0,0.0,0.0,0.0,0.0,0.0,0.0,0.0,0.0,0.0,0.0,0.0,0.0,0.0,0.0,0.0,0.0,0.0,0.0,0.0,0.0,0.0,0.0,0.0,0.0,0.0,0.0,0.0,0.0,0.2636,0.2786,0.0,0.0,0.0,0.0,0.0,0.0,0.0,0.0,0.5008,0.0,0.0,0.0,0.0,0.0,0.0,0.0,0.0,0.0,0.0,0.0,0.0,0.0,0.0,0.0,0.0,0.0,0.0,0.0,0.0,0.0,0.0,0.0,0.0,0.0,0.0,0.0,0.0,0.0,0.0,0.0,0.0,0.0,0.0,0.0,0.0,0.0,0.0,0.0,0.0,0.0,0.0,0.0,0.0,0.0,0.0,0.0,0.0,0.0,0.0,0.0,0.0,0.0,0.0,0.0,0.0,0.5128,0.5802,0.6821,0.8239,0.8557,0.8597,0.8322,0.7739,0.6747,0.539,0.0,0.0,0.0,0.0,0.0,0.0,0.0,0.0,0.0,0.0,0.0,0.0,0.0,0.0,0.0,0.0,0.0,0.0,0.0,0.0,0.0,0.0,0.0,0.0,0.0,0.0,0.0,0.0,0.0,0.0,0.0,0.0,0.0,0.0,0.0,0.0,0.0,0.0,0.0,0.4973,0.5134,0.0,0.0,0.0,0.0,0.0,0.0,0.0,0.0,0.6026,0.0,0.0,0.0,0.0,0.0,0.0,0.0,0.0,0.0,0.0,0.0,0.0,0.0,0.0,0.0,0.0,0.0,0.0,0.0,0.0,0.0,0.0,0.0,0.0,0.0,0.0,0.0,0.0,0.0,0.0,0.0,0.0,0.0,0.0,0.0,0.0,0.0,0.0,0.0,0.0,0.0,0.0,0.0,0.0,0.0,0.0,0.0,0.0,0.0,0.0,0.0,0.0,0.0,0.0,0.0,0.5498,0.6424,0.7424,0.855,0.8738,0.8671,0.8402,0.7829,0.6875,0.0,0.0,0.0,0.0,0.0,0.0,0.0,0.0,0.0,0.0,0.0,0.0,0.0,0.0,0.0,0.0,0.0,0.0,0.0,0.0,0.0,0.0,0.0,0.0,0.0,0.0,0.0,0.0,0.0,0.0,0.0,0.0,0.0,0.0,0.0,0.0,0.0,0.0,0.0,0.0,0.5861,0.6432,0.5761,0.0,0.0,0.0,0.0,0.0,0.0,0.6713,0.6209,0.0,0.0,0.0,0.0,0.0,0.0,0.0,0.0,0.0,0.0,0.0,0.0,0.0,0.0,0.0,0.0,0.0,0.0,0.0,0.0,0.0,0.0,0.0,0.0,0.0,0.0,0.0,0.0,0.0,0.0,0.0,0.0,0.0,0.0,0.0,0.0,0.0,0.0,0.0,0.0,0.0,0.0,0.0,0.0,0.0,0.0,0.0,0.0,0.0,0.0,0.0,0.0,0.0,0.0,0.0,0.5714,0.6888,0.7953,0.8818,0.8891,0.8784,0.8544,0.7866,0.6963,0.0,0.0,0.0,0.0,0.0,0.0,0.0,0.0,0.0,0.0,0.0,0.0,0.0,0.0,0.0,0.0,0.0,0.0,0.0,0.0,0.0,0.0,0.0,0.0,0.0,0.0,0.0,0.0,0.0,0.0,0.0,0.0,0.0,0.0,0.0,0.0,0.0,0.0,0.0,0.0,0.0,0.7009,0.782,0.6638,0.0,0.0,0.0,0.0,0.7364,0.6943,0.0,0.0,0.0,0.0,0.0,0.0,0.0,0.0,0.0,0.0,0.0,0.0,0.0,0.0,0.0,0.0,0.0,0.0,0.0,0.0,0.0,0.0,0.0,0.0,0.0,0.0,0.0,0.0,0.0,0.0,0.0,0.0,0.0,0.0,0.0,0.0,0.0,0.0,0.0,0.0,0.0,0.0,0.0,0.0,0.0,0.0,0.0,0.0,0.0,0.0,0.0,0.0,0.0,0.0,0.0,0.0,0.5731,0.6888,0.8053,0.9091,0.9164,0.9151,0.9098,0.8074,0.7045,0.0,0.0,0.0,0.0,0.0,0.0,0.0,0.0,0.0,0.0,0.0,0.0,0.0,0.0,0.0,0.0,0.0,0.0,0.0,0.0,0.0,0.0,0.0,0.0,0.0,0.0,0.0,0.0,0.0,0.0,0.0,0.0,0.0,0.0,0.0,0.0,0.0,0.0,0.0,0.0,0.0,0.6768,0.8597,0.8022,0.74,0.0,0.0,0.8355,0.8862,0.857,0.0,0.0,0.0,0.0,0.0,0.0,0.0,0.0,0.0,0.0,0.0,0.0,0.0,0.0,0.0,0.0,0.0,0.0,0.0,0.0,0.0,0.0,0.0,0.0,0.0,0.0,0.0,0.0,0.0,0.0,0.0,0.0,0.0,0.0,0.0,0.0,0.0,0.0,0.0,0.0,0.0,0.0,0.0,0.0,0.0,0.0,0.0,0.0,0.0,0.0,0.0,0.0,0.0,0.0,0.0,0.5729,0.6041,0.8101,0.9517,1.0163,1.0611,1.0742,1.0524,0.9219,0.7936,0.0,0.0,0.0,0.0,0.0,0.0,0.0,0.0,0.0,0.0,0.0,0.0,0.0,0.0,0.0,0.0,0.0,0.0,0.0,0.0,0.0,0.0,0.0,0.0,0.0,0.0,0.0,0.0,0.0,0.0,0.0,0.0,0.0,0.0,0.0,0.0,0.0,0.0,0.0,0.0,0.0,0.0,0.7333,0.8457,0.0,0.0,0.0,0.9744,0.8541,0.0,0.0,0.0,0.0,0.0,0.0,0.0,0.0,0.0,0.0,0.0,0.0,0.0,0.0,0.0,0.0,0.0,0.0,0.0,0.0,0.0,0.0,0.0,0.0,0.0,0.0,0.0,0.0,0.0,0.0,0.0,0.0,0.0,0.0,0.0,0.0,0.0,0.0,0.0,0.0,0.0,0.0,0.0,0.0,0.0,0.0,0.0,0.0,0.0,0.0,0.0,0.0,0.0,0.0,0.0,0.0,0.0,0.6248,0.881,1.0306,1.0615,1.1246,1.1523,1.1283,1.0076,0.0,0.0,0.0,0.0,0.0,0.0,0.0,0.0,0.0,0.0,0.0,0.0,0.0,0.0,0.0,0.0,0.0,0.0,0.0,0.0,0.0,0.0,0.0,0.0,0.0,0.0,0.0,0.2346,0.0,0.0,0.0,0.0,0.0,0.0,0.0,0.0,0.0,0.0,0.0,0.0,0.0,0.0,0.5594,0.624,0.8428,0.9524,0.0,0.0,1.066,0.878,0.9111,0.92,0.0,0.0,0.0,0.0,0.0,0.0,0.0,0.0,0.0,0.0,0.0,0.0,0.0,0.0,0.0,0.0,0.0,0.0,0.0,0.0,0.0,0.0,0.0,0.0,0.0,0.0,0.0,0.0,0.0,0.0,0.0,0.0,0.0,0.0,0.0,0.0,0.0,0.0,0.0,0.0,0.0,0.0,0.0,0.0,0.0,0.0,0.0,0.0,0.0,0.0,0.0,0.0,0.0,0.0,0.0,0.6263,0.8239,0.947,0.9795,1.0066,1.0401,1.0735,1.0128,0.9361,0.0,0.0,0.0,0.0,0.0,0.0,0.0,0.0,0.0,0.0,0.0,0.0,0.0,0.0,0.0,0.0,0.0,0.0,0.0,0.0,0.0,0.0,0.0,0.0,0.0,0.0,0.0,0.0,0.0,0.0,0.0,0.0,0.0,0.0,0.0,0.0,0.0,0.0,0.0,0.0,0.0,0.5939,0.6088,0.7808,0.9047,0.0,0.0,1.0564,1.0598,1.0329,0.9903,0.9104,0.0,0.0,0.0,0.0,0.0,0.0,0.0,0.0,0.0,0.0,0.0,0.0,0.0,0.0,0.0,0.0,0.0,0.0,0.0,0.0,0.0,0.0,0.0,0.0,0.0,0.0,0.0,0.0,0.0,0.0,0.0,0.0,0.0,0.0,0.0,0.0,0.0,0.0,0.0,0.0,0.0,0.0,0.0,0.0,0.0,0.0,0.0,0.0,0.0,0.0,0.0,0.0,0.0,0.6196,0.6241,0.8873,1.0314,1.0444,1.1376,1.1826,1.1755,1.0792,0.9771,0.0,0.0,0.0,0.0,0.0,0.0,0.0,0.0,0.0,0.0,0.0,0.0,0.0,0.0,0.0,0.0,0.0,0.0,0.0,0.0,0.0,0.0,0.0,0.0,0.0,0.0,0.0,0.0,0.323,0.3801,0.5896,0.0,0.0,0.0,0.0,0.0,0.0,0.0,0.0,0.0,0.0,0.6285,0.6129,0.8103,0.0,0.0,1.0933,1.0991,1.0452,1.0726,1.0564,0.9317,0.8524,0.0,0.0,0.0,0.0,0.0,0.0,0.0,0.0,0.0,0.0,0.0,0.0,0.0,0.0,0.0,0.0,0.0,0.0,0.0,0.0,0.0,0.0,0.0,0.0,0.0,0.0,0.0,0.0,0.0,0.0,0.0,0.0,0.0,0.0,0.0,0.0,0.0,0.0,0.0,0.0,0.0,0.0,0.0,0.0,0.0,0.0,0.0,0.0,0.0,0.0,0.0,0.0,0.6428,0.6618,0.9307,1.0682,1.0654,1.194,1.2565,1.2393,1.1822,1.0937,0.0,0.0,0.0,0.0,0.0,0.0,0.0,0.0,0.0,0.0,0.0,0.0,0.0,0.0,0.0,0.0,0.0,0.0,0.0,0.0,0.0,0.0,0.0,0.0,0.0,0.0,0.0,0.0,0.2784,0.2751,0.5177,0.0,0.0,0.0,0.0,0.0,0.0,0.0,0.0,0.0,0.0,0.6848,0.6464,0.8431,1.0454,1.1796,1.2014,1.1746,1.0955,1.1105,1.0947,0.9792,0.0,0.0,0.0,0.0,0.0,0.0,0.0,0.0,0.0,0.0,0.0,0.0,0.0,0.0,0.0,0.0,0.0,0.0,0.0,0.0,0.0,0.0,0.0,0.0,0.0,0.0,0.0,0.2591,0.0,0.0,0.229,0.0,0.0,0.0,0.0,0.0,0.0,0.0,0.0,0.0,0.0,0.0,0.0,0.0,0.0,0.0,0.0,0.0,0.0,0.0,0.0,0.0,0.0,0.6941,0.7572,0.9308,1.0161,1.0191,1.127,1.205,1.2417,1.3104,1.3057,1.2092,0.0,0.0,0.0,0.0,0.0,0.0,0.0,0.0,0.0,0.0,0.0,0.0,0.0,0.0,0.0,0.0,0.0,0.0,0.0,0.0,0.0,0.0,0.0,0.0,0.0,0.0,0.3753,0.2541,0.1926,0.0,0.0,0.0,0.0,0.0,0.0,0.0,0.0,0.0,0.0,0.7593,0.7741,0.7141,0.8672,1.0594,1.2604,1.2916,1.281,1.245,1.1632,1.097,0.0,0.0,0.0,0.0,0.0,0.0,0.0,0.0,0.0,0.0,0.0,0.0,0.0,0.0,0.0,0.0,0.0,0.0,0.0,0.0,0.0,0.0,0.0,0.0,0.0,0.0,0.0,0.3544,0.3527,0.0,0.0,0.0,0.0,0.0,0.0,0.0,0.0,0.0,0.0,0.0,0.6171,0.6353,0.0,0.0,0.0,0.0,0.0,0.0,0.0,0.0,0.0,0.0,0.0,0.0,0.8198,0.8411,1.0589,1.1768,1.1776,1.2307,1.2647,1.2797,1.2869,1.2499,1.156,0.0,0.0,0.0,0.0,0.0,0.0,0.0,0.0,0.0,0.0,0.0,0.0,0.0,0.0,0.0,0.0,0.0,0.0,0.0,0.0,0.0,0.0,0.0,0.0,0.0,0.6254,0.0,0.0,0.0,0.0,0.0,0.0,0.0,0.0,0.0,0.0,0.0,0.6316,0.7656,0.7538,0.7995,0.9795,0.9534,0.9863,0.0,0.0,0.0,0.0,0.0,0.0,0.0,0.0,0.0,0.0,0.0,0.0,0.0,0.0,0.8777,0.809,0.8455,0.9,0.9531,0.0,0.0,0.0,0.0,0.0,0.0,0.0,0.0,0.0,0.0,0.0,0.0,0.0,0.0,0.4644,0.0,0.4684,0.0,0.0,0.0,0.0,0.0,0.0,0.0,0.0,0.6767,0.7188,0.7368,0.7555,0.7619,0.0,0.7156,0.6224,0.0,0.0,0.0,0.0,0.0,0.0,0.0,0.0,0.8925,0.8913,1.1396,1.2595,1.2365,1.3027,1.3425,1.3425,1.3398,1.3094,1.2456,1.1353,1.0371,0.0,0.0,0.0,0.0,0.0,0.0,0.0,0.0,0.0,0.0,0.0,0.0,0.0,0.0,0.0,0.0,0.0,0.0,0.0,0.0,0.0,0.0,0.0,0.6774,0.0,0.0,0.0,0.0,0.0,0.0,0.0,0.0,0.0,0.5331,0.5819,0.6677,0.811,0.7949,0.8655,1.1238,0.0,0.0,0.0,0.0,0.0,0.0,0.0,1.1133,1.039,1.0237,1.0084,0.9766,0.958,1.0157,1.2357,0.0,0.0,0.9708,0.9911,1.0445,1.0931,1.0613,1.0469,1.1082,1.1302,1.1703,0.0,0.0,0.0,0.0,0.0,0.0,0.0,0.0,0.6263,0.5954,0.0,0.6028,0.0,0.0,0.0,0.0,0.0,0.0,0.0,0.0,0.8958,0.94,0.8858,0.8851,0.8858,0.8804,0.7989,0.7607,0.7511,0.672,0.0,0.0,0.0,0.0,0.0,0.0,0.9131,0.9226,1.1675,1.2634,1.1981,1.3356,1.4154,1.4204,1.4582,1.4767,1.4697,1.2803,1.167,1.1567,0.8444,0.0,0.0,0.0,0.0,0.0,0.0,0.0,0.0,0.0,0.0,0.0,0.0,0.0,0.0,0.0,0.0,0.0,0.0,0.0,0.0,0.5237,0.0,0.0,0.0,0.0,0.0,0.0,0.0,0.0,0.0,0.0,0.5812,0.6062,0.6793,0.8298,0.0,0.0,0.0,0.0,1.2295,1.0723,1.1136,1.17,1.1855,1.1435,1.1239,1.1609,0.0,0.0,1.1701,1.1638,1.2221,1.4406,1.4679,1.388,1.0669,1.0482,1.0734,1.0785,1.0991,1.0949,1.1002,1.1571,1.2168,0.7173,0.0,0.0,0.0,0.0,0.6429,0.6987,0.7765,0.7789,0.7665,0.7517,0.7708,0.0,0.0,0.0,0.0,0.0,0.0,0.7729,0.8437,0.9078,0.9499,0.9717,0.996,1.009,1.007,0.9579,0.9359,0.9339,0.8925,0.7993,0.6664,0.0,0.0,0.0,0.0,1.0517,1.1239,1.2401,1.3183,1.3507,1.3394,1.3614,1.4183,1.4877,1.5088,1.4823,1.4189,1.3301,1.209,1.1396,0.0,0.0,0.0,0.0,0.0,0.0,0.0,0.0,0.0,0.0,0.0,0.0,0.0,0.0,0.0,0.0,0.0,0.0,0.0,0.5427,0.5971,0.6188,0.0,0.0,0.0,0.0,0.0,0.0,0.0,0.0,0.0,0.7172,0.6969,0.7162,0.0,0.0,0.8349,1.0448,1.1975,1.291,1.2983,0.0,0.0,0.0,1.2683,1.2243,1.1728,1.1364,1.1045,1.0769,1.1208,1.1995,1.3304,1.4205,1.432,1.3182,1.297,1.3183,1.3544,1.3681,1.3732,1.3745,1.4228,1.4875,0.8639,0.7434,0.7207,0.7244,0.748,0.7643,0.8176,0.8918,0.8925,0.8791,0.8564,0.8817,0.8337,0.7359,0.7359,0.0,0.0,0.0,0.8651,0.9506,0.9679,1.0125,1.0741,1.0656,1.0769,1.1062,1.0856,1.0765,1.0751,1.0682,1.0158,0.9135,0.0,0.0,0.8883,1.0408,1.1482,1.2139,1.3313,1.4034,1.4183,1.4034,1.4183,1.4667,1.5138,1.5293,1.5039,1.4901,1.4307,1.3291,1.3008,1.1934,0.0,0.0,0.0,0.0,0.0,0.0,0.0,0.0,0.0,0.0,0.0,0.5811,0.5391,0.0,0.0,0.0,0.5614,0.591,0.6776,0.6588,0.0,0.0,0.0,0.0,0.0,0.0,0.0,0.7222,0.7172,0.7306,0.7842,0.7792,0.793,0.8567,0.7923,0.7864,0.9222,0.0,1.161,1.257,1.3368,1.3627,1.2887,1.3003,1.3057,1.2679,1.2363,1.1973,1.1436,1.178,1.2396,1.3199,1.3965,1.4555,1.4766,1.4693,1.4615,1.4849,1.4884,1.4884,1.4884,1.542,1.6043,0.9907,0.9997,0.8671,0.8432,0.8938,0.8924,0.9259,0.9746,0.9782,0.9481,0.8998,0.9519,0.9152,0.8125,0.8094,0.0,0.9847,0.9562,0.9883,1.0713,1.0776,1.117,1.1834,1.1139,1.117,1.1888,1.1896,1.1896,1.1889,1.2072,1.2178,1.2122,1.0366,0.9677,1.0156,1.1437,1.2139,1.2237,1.4144,1.4807,1.4124,1.4903,1.5323,1.5294,1.5381,1.542,1.54,1.5039,1.4824,1.4746,1.3717,1.3027,1.2773,0.0,0.0,0.0,0.0,0.0,0.0,0.0,0.0,0.0,0.0,0.0,0.0,0.0,0.0,0.7049,0.6599,0.0,0.8383,0.713,0.0,0.0,0.0,0.6218,0.5648,0.7255,0.8528,0.883,0.0,0.0,0.8049,0.0,0.8964,0.925,0.8538,0.7992,0.8039,0.8676,0.9332,1.0598,1.3089,1.4147,1.2289,1.277,1.3552,1.3732,1.4051,1.3724,1.3096,1.2949,1.3285,1.4065,1.4202,1.4526,1.5687,1.5436,1.5255,1.5143,1.5037,1.4949,1.5012,1.5449,1.5975,1.0419,1.0452,1.011,1.005,1.0171,1.0177,1.0251,1.0378,1.0385,1.0298,1.0184,1.0325,1.0231,0.997,0.9963,1.0137,1.0424,1.0952,1.1304,1.1555,1.2151,1.2543,1.2704,1.2512,1.2512,1.2696,1.2726,1.2734,1.2726,1.2775,1.2723,1.2617,1.1953,1.1467,1.1178,1.1672,1.238,1.3228,1.3154,1.3181,1.3326,1.4064,1.4481,1.451,1.5079,1.542,1.541,1.5284,1.5117,1.4833,1.4795,1.4228,1.2954,1.0665,0.0,0.0,0.0,0.0,0.0,0.0,0.0,0.0,0.0,0.6812,0.7846,0.0,0.7706,0.0,0.764,0.8051,0.8582,0.7739,0.0,0.0,0.6736,0.7146,0.7889,0.8787,0.9408,0.9471,0.9144,0.8984,0.9239,0.9385,0.9673,1.0171,0.9285,0.8758,0.9198,0.9802,1.0265,1.062,1.1296,1.1974,1.2601,1.3144,1.347,1.3232,1.3675,1.4,1.3841,1.3812,1.4085,1.4902,1.5107,1.5082,1.4995,1.5028,1.5531,1.628,1.5981,1.5447,1.5447,1.5902,1.6456,1.0586,1.0586,1.0586,1.0586,1.0586,1.0586,1.0586,1.0586,1.0586,1.0586,1.0586,1.0586,1.0586,1.0624,1.0982,1.1139,1.1195,1.1958,1.2189,1.2013,1.2867,1.3112,1.2861,1.2925,1.2933,1.2861,1.2869,1.2861,1.2901,1.3211,1.3574,1.3888,1.3745,1.366,1.3529,1.2751,1.2827,1.3784,1.3593,1.3671,1.4067,1.451,1.4662,1.4494,1.4898,1.5039,1.4825,1.4816,1.4718,1.4494,1.4834,1.4727,1.3994,1.1672,0.9863,0.0,0.0,0.0,0.0,0.0,0.0,0.0,0.0,0.0,0.0,0.0,0.9057,0.9022,0.9363,0.9667,0.9878,0.9334,0.8746,0.8135,0.7668,0.7789,0.8711,0.9556,1.0103,1.01,0.9804,0.9666,0.985,0.9993,1.0218,1.0553,1.003,0.9735,1.0043,1.0399,1.0586,1.0586,1.0586,1.1146,1.2734,1.3165,1.3234,1.3064,1.3612,1.4241,1.4586,1.4679,1.4835,1.5312,1.542,1.5322,1.5019,1.4924,1.525,1.5782,1.5973,1.6092,1.6636,1.6738,1.6942,1.0586,1.0586,1.0586,1.0586,1.0586,1.0586,1.0586,1.0586,1.0586,1.0586,1.0586,1.0586,1.0586,1.0656,1.1351,1.167,1.1738,1.2514,1.2672,1.231,1.322,1.3364,1.2874,1.3101,1.3143,1.3042,1.3176,1.3217,1.3243,1.3925,1.4646,1.5378,1.5378,1.5597,1.5917,1.4166,1.3543,1.4243,1.4668,1.5039,1.5371,1.5274,1.5078,1.4717,1.4697,1.4521,1.4133,1.4114,1.4114,1.4114,1.4375,1.4736,1.5128,1.2353,1.0586,0.0,0.9412,0.0,0.0,0.0,0.0,0.0,0.0,0.0,0.0,1.0411,1.0984,1.1115,1.138,1.1548,1.1619,1.1222,1.0904,1.0714,0.9355,0.8609,0.9018,0.9976,1.0586,1.0586,1.0338,1.0164,1.019,1.0432,1.0586,1.0586,1.0539,1.0492,1.0566,1.0573,1.0586,1.0586,1.0719,1.1296,1.2305,1.2818,1.2984,1.2954,1.3455,1.4353,1.5216,1.5371,1.54,1.542,1.542,1.541,1.542,1.5098,1.4967,1.5179,1.5685,1.6387,1.7376,1.7508,1.7497,1.0586,1.0586,1.0586,1.0586,1.0586,1.0586,1.0586,1.0586,1.0586,1.0586,1.0586,1.0586,1.0586,1.0624,1.0744,1.0962,1.1189,1.1983,1.2445,1.2617,1.3457,1.3794,1.3726,1.4476,1.4835,1.4867,1.5574,1.5936,1.5936,1.6096,1.6094,1.5927,1.5957,1.5806,1.5517,0.0,0.0,0.0,1.5254,1.5322,1.5352,1.4699,1.4309,1.4241,1.4231,0.0,1.4114,1.4114,1.4114,1.4114,1.4153,0.0,0.0,0.0,0.0,0.0,0.0,0.0,0.0,0.0,0.0,0.0,1.2486,1.1769,1.2118,1.1504,1.1423,1.2274,1.2884,1.3112,1.2813,1.2208,1.2076,1.2564,1.1841,1.1053,1.0397,1.0497,1.0586,1.0586,1.0548,1.0496,1.0481,1.0566,1.0586,1.0586,1.0586,1.0586,1.0586,1.0586,1.0586,1.0618,1.1163,1.1382,1.1115,1.2189,1.2704,1.2328,1.2696,1.3726,1.4932,1.5323,1.5381,1.541,1.542,1.542,1.542,1.5342,1.5436,1.6046,1.5851,1.5742,1.6458,1.7351,1.8049,1.0586,0.0,1.0586,1.0586,0.0,1.0586,1.0586,1.0586,1.0586,1.0586,1.0586,1.0586,1.0673,1.0801,1.1212,1.1534,1.1871,1.2676,1.3249,1.3619,1.4488,1.4774,1.4584,1.5501,1.5703,1.529,1.5703,1.5947,1.5956,1.5947,1.6081,1.6369,1.6346,1.6478,1.6668,1.6699,1.6377,1.5742,1.5732,1.5762,1.5723,1.5312,1.4883,1.4482,0.0,0.0,0.0,0.0,0.0,0.0,0.0,0.0,0.0,0.0,0.0,1.2842,1.2646,1.2637,1.2793,1.2661,1.3359,1.5196,1.4387,1.3633,1.3232,1.2959,1.3084,1.3678,1.4221,1.4443,1.426,1.3931,1.3863,1.423,1.3948,1.3491,1.2915,1.154,1.0609,1.0595,1.0575,1.0586,1.0579,1.0586,1.0586,1.0586,1.0586,1.0586,1.0586,1.0586,1.0807,1.16,1.1717,1.1803,1.181,1.1996,1.2328,1.1989,1.2481,1.2909,1.3023,1.3687,1.4451,1.5167,1.542,1.542,1.542,1.542,1.5526,1.5864,1.595,1.5999,1.6326,1.7167,1.803,1.0586,1.0586,1.0586,1.062,1.0667,1.0673,1.0693,1.074,0.0,0.0,0.0,1.074,1.0881,1.1095,1.1767,1.2237,1.2626,1.3429,1.4008,1.4399,1.5326,1.5558,1.5269,1.6184,1.6219,1.5482,1.5623,1.5702,1.5702,1.5693,1.6088,1.6784,1.6853,1.7251,1.7974,1.8008,1.748,1.6486,1.629,1.6202,1.6202,1.6056,1.5576,1.4833,1.4785,1.458,1.4124,1.4114,1.4114,1.4114,1.4065,1.3743,1.3164,1.3502,1.4209,1.5244,1.4128,1.3945,1.5293,1.4434,1.4297,1.5342,1.542,1.4932,1.3818,1.4363,1.4784,1.4911,1.5205,1.541,1.542,1.541,1.542,1.542,1.542,1.5381,1.5235,1.3136,1.1591,1.1436,1.1329,1.0984,1.0874,1.0863,1.0713,1.0618,1.0586,1.0586,1.0586,1.0586,1.0989,1.1965,1.1927,1.202,1.2481,1.242,1.2012,1.2112,1.2604,1.2489,1.16,1.1872,1.3023,1.4046,1.4717,1.5021,1.5323,1.542,1.542,1.542,1.5864,1.6293,1.6368,1.6884,1.7588,1.0593,1.0586,1.0586,1.074,1.0935,1.0935,1.1076,1.1249,1.1042,1.1069,1.1303,1.1303,1.1329,1.1329,1.1458,1.1696,1.2044,1.2983,1.3532,0.0,1.4841,1.5255,1.5269,1.6149,1.6532,1.6498,1.7217,1.7613,1.7613,1.7588,1.7691,1.7794,1.7794,1.7872,1.7974,1.8008,1.792,1.7725,1.6989,1.6609,1.659,1.5868,1.5273,1.4824,1.4833,1.458,1.4133,1.4133,1.4114,1.4104,1.389,1.3786,1.3938,1.4275,1.4745,1.5332,1.5157,1.5166,1.5391,1.5244,1.5196,1.5391,1.542,1.5186,1.4678,1.5029,1.5303,1.5322,1.5381,1.542,1.542,1.5391,1.5323,1.5391,1.542,1.542,1.542,1.4954,1.4509,1.4483,1.3489,1.235,1.1764,1.1624,1.1351,1.08,1.0649,1.0586,1.0586,1.0586,1.0681,1.0989,1.1469,1.1795,1.2135,1.2543,1.2634,1.2826,1.2856,1.2879,1.2551,1.1965,1.1686,1.1445,1.2879,1.3965,1.5108,1.542,1.542,1.542,1.5584,1.5613,1.5661,1.6208,1.6894,1.0687,1.0821,1.0827,1.0962,1.1229,1.1223,1.1396,1.165,1.153,1.1443,1.1389,1.143,1.151,1.1733,1.2221,1.2586,1.292,1.3904,1.4646,1.5288,1.5763,1.6228,1.6724,1.7148,1.7354,1.7398,1.7784,1.8008,1.8008,1.8008,1.8008,1.8008,1.8008,1.8008,1.8008,1.8008,1.8008,1.7964,1.7617,1.7282,1.709,1.6689,1.6269,1.5829,1.584,1.5722,1.5527,1.5517,1.5508,1.5508,1.5245,1.5029,1.4816,1.4951,1.5146,1.5391,1.542,1.542,1.542,1.542,1.542,1.542,1.542,1.5332,1.5137,1.5303,1.542,1.542,1.542,1.542,1.5381,1.4864,1.4599,1.4746,1.5118,1.5391,1.542,1.542,1.542,1.5362,1.4771,1.3822,1.2581,1.2451,1.2143,1.1382,1.0926,1.0618,1.0586,1.0586,1.0586,1.0618,1.0926,1.1538,1.2235,1.2328,1.2358,1.2351,1.2473,1.2657,1.297,1.2818,1.3205,1.3235,1.3837,1.4481,1.5352,1.541,1.542,1.542,1.542,1.542,1.5478,1.57,1.6273,1.0889,1.1089,1.1089,1.1256,1.1495,1.159,1.175,1.1993,1.2007,1.1837,1.1608,1.163,1.1856,1.2379,1.3061,1.3648,1.4148,1.5057,1.5895,1.6567,1.6819,1.7295,1.793,1.8008,1.8008,1.8008,1.8008,1.8008,1.8008,1.8008,1.8008,1.8008,1.8008,1.8008,1.8008,1.8008,1.8008,1.8008,1.8008,1.7852,1.7539,1.7529,1.7324,1.6882,1.6843,1.6794,1.6707,1.6697,1.6697,1.6687,1.6514,1.6094,1.5478,1.542,1.542,1.542,1.542,1.542,1.542,1.542,1.542,1.542,1.542,1.542,1.542,1.542,1.542,1.542,1.542,1.542,1.5323,1.4717,1.4243,1.4481,1.4658,1.4962,1.5323,1.542,1.5206,1.4971,1.5144,1.4738,1.3489,1.3152,1.294,1.2174,1.1233,1.0618,1.0586,1.0586,1.0663,1.0989,1.0873,1.1139,1.2428,1.2228,1.1981,1.1981,1.2404,1.2962,1.3575,1.4688,1.5235,1.5167,1.5264,1.5323,1.5391,1.542,1.542,1.542,1.542,1.542,1.542,1.5449,1.5835,1.1363,1.1383,1.139,1.1557,1.1879,1.2098,1.2218,1.2251,1.2258,1.2251,1.2191,1.2225,1.2722,1.3484,1.3649,1.4232,1.5084,1.6035,1.6532,1.6715,1.7501,1.7906,1.7998,1.8008,1.8008,1.8008,1.8008,1.8008,1.8008,1.8008,1.8008,1.8008,1.8008,1.8008,1.8008,1.8008,1.8008,1.8008,1.8008,1.7988,1.7959,1.7949,1.7754,1.7334,1.7357,1.7139,1.6775,1.6697,1.6707,1.6697,1.6697,1.6287,1.5566,1.543,1.542,1.542,1.542,1.542,1.542,1.542,1.542,1.542,1.542,1.542,1.542,1.542,1.542,1.542,1.542,1.542,1.542,1.5264,1.5138,1.4991,1.4055,1.3786,1.4864,1.542,1.4844,1.3334,1.4282,1.4804,1.3342,1.3485,1.3666,1.3,1.1756,1.0895,1.0895,1.1076,1.151,1.2178,1.1629,1.1122,1.1787,1.1865,1.1927,1.2573,1.3213,1.3575,1.4174,1.4688,1.542,1.5352,1.5206,1.5177,1.5391,1.542,1.5352,1.542,1.542,1.542,1.542,1.542,1.5777,1.179,1.1924,1.1764,1.1857,1.2124,1.2251,1.2305,1.2335,1.2879,1.2806,1.2415,1.2886,1.3353,1.3781,1.4871,1.5649,1.6079,1.7001,1.7432,1.7467,1.7828,1.8008,1.8008,1.8008,1.8008,1.8008,1.8008,1.8008,1.8008,1.8008,1.8008,1.8008,1.8008,1.8008,1.8008,1.8008,1.8008,1.8008,1.8008,1.8008,1.8008,1.8008,1.793,1.7773,1.7754,1.7686,1.7477,1.7457,1.7457,1.7457,1.749,1.7301,1.6953,1.5977,1.542,1.542,1.542,1.542,1.542,1.542,1.542,1.542,1.542,1.542,1.542,1.542,1.542,1.542,1.542,1.542,1.542,1.542,1.5206,1.4658,1.3666,1.297,1.2535,1.2626,1.2235,1.1717,1.2134,1.2838,1.2976,1.3274,1.3545,1.3494,1.2696,1.2058,1.2066,1.2779,1.3679,1.4038,1.3058,1.205,1.183,1.1363,1.1365,1.1538,1.1748,1.2205,1.2504,1.2596,1.3053,1.4903,1.4569,1.4569,1.5294,1.4962,1.4785,1.5089,1.542,1.542,1.542,1.542,1.5584,1.2342,1.2415,1.2228,1.2178,1.2311,1.2392,1.2378,1.2372,1.3018,1.2908,1.2445,1.3273,1.3854,1.4307,1.5614,1.6463,1.7026,1.7681,1.8008,1.8008,1.8008,1.8008,1.8008,1.8008,1.8008,1.8008,1.8008,1.8008,1.8008,1.8008,1.8008,1.8008,1.8008,1.8008,1.8008,1.8008,1.8008,1.8008,1.8008,1.8008,1.8008,1.8008,1.8008,1.8008,1.8008,1.8008,1.8008,1.8008,1.8008,1.8008,1.8008,1.8008,1.7949,1.6619,1.5722,1.5449,1.542,1.542,1.542,1.542,1.542,1.542,1.542,1.542,1.542,1.542,1.542,1.542,1.542,1.542,1.542,1.542,1.5118,1.4569,1.3965,1.3122,1.2235,1.1934,1.2143,1.1888,1.1989,1.1752,1.2937,1.3221,1.3252,1.3575,1.3726,1.3666,1.3765,1.4569,1.5332,1.5391,1.4332,1.3241,1.2062,1.1185,1.0694,1.0586,1.0744,1.08,1.0586,1.0618,1.0776,1.2901,1.2879,1.3425,1.4421,1.4392,1.4392,1.4903,1.5235,1.5381,1.542,1.542,1.5526,1.3025,1.2777,1.2788,1.2589,1.2331,1.2636,1.2603,1.2365,1.2435,1.2385,1.2466,1.3361,1.4243,1.5057,1.534,1.6263,1.7759,1.7974,1.8008,1.8008,1.8008,1.8008,1.8008,1.8008,1.8008,1.8008,1.8008,1.8008,1.8008,1.8008,1.8008,1.8008,1.8008,1.8008,1.8008,1.8008,1.8008,1.8008,1.8008,1.8008,1.8008,1.8008,1.8008,1.8008,1.8008,1.8008,1.8008,1.8008,1.8008,1.8008,1.8008,1.8008,1.7949,1.736,1.6531,1.5576,1.543,1.542,1.542,1.542,1.542,1.542,1.542,1.542,1.542,1.542,1.542,1.542,1.542,1.542,1.542,1.542,1.5391,1.5294,1.5264,1.5079,1.505,1.4688,1.5138,1.4746,1.352,1.3089,1.3906,1.3455,1.3122,1.3425,1.4332,1.4991,1.4835,1.5167,1.5381,1.542,1.5128,1.4467,1.236,1.15,1.0972,1.0839,1.0958,1.0681,1.0618,1.0649,1.087,1.1358,1.2366,1.3191,1.3704,1.4064,1.4302,1.4697,1.5147,1.5323,1.542,1.542,1.5584,1.3313,1.3046,1.3039,1.2979,1.2879,1.2831,1.2831,1.2898,1.3339,1.318,1.2955,1.4229,1.5017,1.5242,1.5825,1.6784,1.794,1.8008,1.8008,1.8008,1.8008,1.8008,1.8008,1.8008,1.8008,1.8008,1.8008,1.8008,1.8008,1.8008,1.8008,1.8008,1.8008,1.8008,1.8008,1.8008,1.8008,1.8008,1.8008,1.8008,1.8008,1.8008,1.8008,1.8008,1.8008,1.8008,1.8008,1.8008,1.8008,1.8008,1.8008,1.8008,1.7988,1.7822,1.697,1.5654,1.5674,1.5703,1.5459,1.542,1.542,1.542,1.542,1.542,1.542,1.542,1.542,1.542,1.542,1.542,1.542,1.542,1.542,1.542,1.542,1.542,1.542,1.542,1.542,1.5177,1.4025,1.3373,1.3816,1.3515,1.3213,1.3666,1.3846,1.3846,1.4064,1.4658,1.5235,1.542,1.5381,1.4933,1.369,1.2696,1.2097,1.1787,1.1663,1.1445,1.1288,1.1108,1.1264,1.2757,1.3425,1.3515,1.4213,1.4658,1.4785,1.4815,1.5235,1.5352,1.542,1.542,1.5758,1.3487,1.3327,1.3347,1.3293,1.32,1.3093,1.31,1.3265,1.367,1.3679,1.3703,1.4688,1.5377,1.5845,1.6377,1.7104,1.794,1.8008,1.8008,1.8008,1.8008,1.8008,1.8008,1.8008,1.8008,1.8008,1.8008,1.8008,1.8008,1.8008,1.8008,1.8008,1.8008,1.8008,1.8008,1.8008,1.8008,1.8008,1.8008,1.8008,1.8008,1.8008,1.8008,1.8008,1.8008,1.8008,1.8008,1.8008,1.8008,1.8008,1.8008,1.8008,1.8008,1.8008,1.7467,1.6436,1.626,1.6006,1.5537,1.5547,1.5566,1.543,1.542,1.542,1.542,1.542,1.542,1.542,1.542,1.542,1.542,1.542,1.542,1.542,1.542,1.542,1.542,1.542,1.542,1.5235,1.4264,1.3786,1.3965,1.3425,1.3334,1.3756,1.2948,1.2274,1.2428,1.3061,1.4412,1.5167,1.5391,1.5187,1.4584,1.4007,1.3122,1.2726,1.252,1.2266,1.2289,1.2027,1.2328,1.3906,1.454,1.4481,1.4688,1.5167,1.5255,1.5138,1.5264,1.5391,1.542,1.542,1.5806,1.3606,1.3606,1.36,1.346,1.3333,1.3447,1.342,1.3293,1.3273,1.3817,1.4539,1.4539,1.5552,1.6749,1.688,1.721,1.792,1.8037,1.8008,1.8008,1.8008,1.8008,1.8008,1.8008,1.8008,1.8008,1.8008,1.8008,1.8008,1.8008,1.8008,1.8008,1.8008,1.8008,1.8008,1.8008,1.8008,1.8008,1.8008,1.8008,1.8008,1.8008,1.8008,1.8008,1.8008,1.8008,1.8008,1.8008,1.8008,1.8008,1.8008,1.8008,1.8008,1.8008,1.7969,1.7691,1.7135,1.6326,1.5683,1.5859,1.584,1.5498,1.542,1.542,1.542,1.542,1.542,1.542,1.542,1.542,1.542,1.542,1.542,1.542,1.542,1.542,1.542,1.542,1.542,1.5294,1.4658,1.4234,1.4064,1.3644,1.3312,1.3061,1.2151,1.1264,1.1483,1.1872,1.2535,1.4471,1.542,1.5294,1.5332,1.5264,1.4332,1.3575,1.3425,1.3274,1.3687,1.3657,1.3537,1.4658,1.4962,1.4903,1.4746,1.5138,1.5108,1.5079,1.5235,1.542,1.542,1.5468,1.5806,1.3955,1.3955,1.3948,1.3901,1.3794,1.366,1.3646,1.3788,1.3567,1.4132,1.5078,1.5685,1.6443,1.7171,1.772,1.8139,1.8383,1.813,1.8008,1.8018,1.8018,1.8008,1.8008,1.8008,1.8008,1.8008,1.8008,1.8008,1.8008,1.8008,1.8008,1.8008,1.8008,1.8008,1.8008,1.8008,1.8008,1.8008,1.8008,1.8008,1.8008,1.8008,1.8008,1.8008,1.8008,1.8008,1.8008,1.8008,1.8008,1.8008,1.8008,1.8008,1.8008,1.8008,1.8008,1.7949,1.75,1.7256,1.7129,1.6455,1.5908,1.5527,1.542,1.542,1.542,1.542,1.542,1.542,1.542,1.542,1.542,1.542,1.542,1.542,1.542,1.542,1.542,1.542,1.542,1.5381,1.5167,1.505,1.4864,1.4332,1.3855,1.3756,1.2909,1.2274,1.2366,1.3053,1.3986,1.5294,1.541,1.542,1.542,1.542,1.4962,1.4421,1.4302,1.4145,1.4628,1.4864,1.4835,1.4903,1.5177,1.5235,1.5108,1.505,1.5079,1.5147,1.5323,1.542,1.542,1.5584,1.5806,1.4088,1.4088,1.4088,1.4088,1.4075,1.3874,1.3908,1.4132,1.4338,1.4998,1.606,1.6909,1.7626,1.8183,1.8694,1.8841,1.8848,1.8594,1.8398,1.8188,1.8057,1.8008,1.8008,1.8008,1.8008,1.8008,1.8008,1.8008,1.8008,1.8008,1.8008,1.8008,1.8008,1.8008,1.8008,1.8008,1.8008,1.8008,1.8008,1.8008,1.8008,1.8008,1.8008,1.8008,1.8008,1.8008,1.8008,1.8008,1.8008,1.8008,1.8008,1.8008,1.8008,1.8008,1.8008,1.7959,1.7803,1.7725,1.7871,1.709,1.6191,1.5615,1.542,1.542,1.542,1.542,1.542,1.542,1.542,1.542,1.542,1.542,1.542,1.542,1.542,1.542,1.542,1.542,1.542,1.541,1.5381,1.542,1.5264,1.5079,1.4667,1.4569,1.4243,1.3914,1.4085,1.4697,1.5177,1.5381,1.541,1.542,1.542,1.542,1.542,1.5264,1.5177,1.505,1.5206,1.5235,1.5206,1.5177,1.5352,1.5352,1.5235,1.5294,1.5323,1.542,1.542,1.542,1.542,1.542,1.5584,1.4088,1.4088,1.4088,1.4088,1.4088,1.4062,1.4062,1.425,1.5164,1.6152,1.7195,1.7904,1.884,1.957,1.9416,1.9326,1.9307,1.9199,1.9033,1.8656,1.8305,1.8052,1.8018,1.8008,1.8008,1.8008,1.8008,1.8008,1.8008,1.8008,1.8008,1.8008,1.8008,1.8008,1.8008,1.8008,1.8008,1.8008,1.8008,1.8008,1.8008,1.8008,1.8008,1.8008,1.8008,1.8008,1.8008,1.8008,1.8008,1.8008,1.8008,1.8008,1.8008,1.8008,1.8008,1.8008,1.8008,1.7978,1.792,1.7539,1.6875,1.5977,1.5586,1.5439,1.5498,1.5469,1.542,1.542,1.542,1.542,1.542,1.542,1.542,1.542,1.542,1.542,1.542,1.542,1.542,1.542,1.542,1.542,1.542,1.5323,1.5323,1.5294,1.5196,1.5108,1.5108,1.5235,1.5352,1.542,1.542,1.542,1.542,1.542,1.542,1.542,1.542,1.542,1.542,1.542,1.542,1.542,1.542,1.542,1.542,1.542,1.542,1.542,1.542,1.542,1.542,1.542,1.542,1.4088,1.4088,1.4088,1.4088,1.4088,1.4088,1.4088,1.425,1.5262,1.6396,1.739,1.8364,1.9254,1.9847,1.9824,1.9756,1.9697,1.9453,1.9453,1.9407,1.8754,1.8276,1.8057,1.8008,1.8008,1.8008,1.8008,1.8008,1.8008,1.8008,1.8008,1.8008,1.8008,1.8008,1.8008,1.8008,1.8008,1.8008,1.8008,1.8008,1.8008,1.8008,1.8008,1.8008,1.8008,1.8008,1.8008,1.8008,1.8008,1.8008,1.8008,1.8008,1.8008,1.8008,1.8008,1.8008,1.8008,1.8008,1.793,1.7646,1.7344,1.7236,1.6191,1.5566,1.5889,1.5586,1.5449,1.542,1.542,1.542,1.542,1.542,1.542,1.542,1.542,1.542,1.542,1.542,1.542,1.542,1.542,1.542,1.542,1.542,1.542,1.542,1.542,1.542,1.542,1.542,1.542,1.542,1.542,1.542,1.542,1.542,1.542,1.542,1.542,1.542,1.542,1.542,1.542,1.542,1.542,1.542,1.542,1.542,1.542,1.542,1.542,1.542,1.542,1.542,1.542,1.4088,1.4088,1.4088,1.4088,1.4088,1.4088,1.4328,1.4943,1.5918,1.7009,1.8069,1.9195,1.9868,2.0205,2.0185,2.0195,2.0156,1.9941,1.9863,1.9679,1.8978,1.8393,1.8096,1.8008,1.8008,1.8008,1.8008,1.8008,1.8008,1.8008,1.8008,1.8008,1.8008,1.8008,1.8008,1.8008,1.8008,1.8008,1.8008,1.8008,1.8008,1.8008,1.8008,1.8008,1.8008,1.8008,1.8008,1.8008,1.8008,1.8008,1.8008,1.8008,1.8008,1.8008,1.8008,1.8008,1.8008,1.8008,1.7969,1.7773,1.7773,1.7822,1.6943,1.6426,1.6105,1.5674,1.542,1.542,1.542,1.542,1.542,1.542,1.542,1.542,1.542,1.542,1.542,1.542,1.542,1.542,1.542,1.542,1.542,1.542,1.542,1.542,1.542,1.542,1.542,1.542,1.542,1.542,1.542,1.542,1.542,1.542,1.542,1.542,1.542,1.542,1.542,1.542,1.542,1.542,1.542,1.542,1.542,1.542,1.542,1.542,1.542,1.542,1.542,1.542,1.542,1.4088,1.4088,1.4088,1.4088,1.4088,1.413,1.4657,1.5745,1.6723,1.7747,1.8678,1.9883,2.0138,2.044,2.0168,2.0411,2.0586,2.0488,2.0194,1.9736,1.9082,1.8506,1.8047,1.8008,1.8008,1.8008,1.8008,1.8008,1.8008,1.8008,1.8008,1.8008,1.8008,1.8008,1.8008,1.8008,1.8008,1.8008,1.8008,1.8008,1.8008,1.8008,1.8008,1.8008,1.8008,1.8008,1.8008,1.8008,1.8008,1.8008,1.8008,1.8008,1.8008,1.8008,1.8008,1.8008,1.8008,1.8008,1.8008,1.7978,1.7978,1.7949,1.7959,1.748,1.6447,1.5752,1.542,1.542,1.542,1.542,1.542,1.542,1.542,1.542,1.542,1.542,1.542,1.542,1.542,1.542,1.542,1.542,1.542,1.542,1.542,1.542,1.542,1.542,1.542,1.542,1.542,1.542,1.542,1.542,1.542,1.542,1.542,1.542,1.542,1.542,1.542,1.542,1.542,1.542,1.542,1.542,1.542,1.542,1.542,1.542,1.542,1.542,1.542,1.542,1.542,1.4088,1.4088,1.4088,1.4088,1.4088,1.413,1.4727,1.5812,1.683,1.7527,1.794,1.8908,1.9383,1.9423,1.9532,1.9766,2.0489,2.0546,2.0214,1.9443,1.9287,1.8691,1.8154,1.8008,1.8008,1.8008,1.8008,1.8008,1.8008,1.8008,1.8008,1.8008,1.8008,1.8008,1.8008,1.8008,1.8008,1.8008,1.8008,1.8008,1.8008,1.8008,1.8008,1.8008,1.8008,1.8008,1.8008,1.8008,1.8008,1.8008,1.8008,1.8008,1.8008,1.8008,1.8008,1.8008,1.8008,1.8008,1.8008,1.8008,1.8008,1.8008,1.7969,1.7574,1.6668,1.584,1.5478,1.542,1.542,1.542,1.542,1.542,1.542,1.542,1.542,1.542,1.542,1.542,1.542,1.542,1.542,1.542,1.542,1.542,1.542,1.542,1.542,1.542,1.542,1.542,1.542,1.542,1.542,1.542,1.542,1.542,1.542,1.542,1.542,1.542,1.542,1.542,1.542,1.542,1.542,1.542,1.542,1.542,1.542,1.542,1.542,1.542,1.542,1.542,1.5584,1.4008,1.3901,1.4028,1.3928,1.3803,1.4344,1.5234,1.6268,1.7125,1.7874,1.8524,1.9184,1.9426,1.9426,1.9426,1.9783,2.0207,2.0507,2.0145,1.9512,1.9404,1.8994,1.8164,1.8008,1.8008,1.8018,1.8008,1.8008,1.8008,1.8008,1.8008,1.8008,1.8008,1.8008,1.8008,1.8008,1.8008,1.8008,1.8008,1.8008,1.8008,1.8008,1.8008,1.8008,1.8008,1.8008,1.8008,1.8008,1.8008,1.8008,1.8008,1.8008,1.8008,1.8008,1.8008,1.8008,1.8008,1.8008,1.8008,1.8008,1.8008,1.8008,1.8008,1.7646,1.6953,1.6064,1.5605,1.5605,1.5557,1.542,1.542,1.542,1.542,1.542,1.542,1.542,1.542,1.542,1.542,1.542,1.542,1.542,1.542,1.542,1.542,1.542,1.542,1.542,1.542,1.542,1.542,1.542,1.542,1.542,1.542,1.542,1.542,1.542,1.542,1.542,1.542,1.542,1.542,1.542,1.542,1.542,1.542,1.542,1.542,1.542,1.542,1.542,1.5555,1.5806,1.5979,1.3874,1.3613,1.3868,1.3661,1.3446,1.4489,1.5644,1.6718,1.7468,1.8217,1.9344,1.9552,1.9241,1.9486,1.9497,1.9705,2.0127,2.0322,2.0165,1.958,1.9717,1.9248,1.8516,1.834,1.832,1.8193,1.8066,1.8027,1.8008,1.8008,1.8008,1.8008,1.8008,1.8008,1.8008,1.8008,1.8008,1.8008,1.8008,1.8008,1.8008,1.8008,1.8042,1.8303,1.8327,1.8496,1.8596,1.863,1.8428,1.8202,1.8076,1.8008,1.8008,1.8008,1.8008,1.8008,1.8008,1.8008,1.8008,1.8008,1.8008,1.8008,1.8008,1.7861,1.7305,1.666,1.6162,1.584,1.5733,1.542,1.542,1.542,1.542,1.542,1.542,1.542,1.542,1.542,1.542,1.542,1.542,1.542,1.542,1.542,1.542,1.542,1.542,1.542,1.542,1.542,1.542,1.542,1.542,1.542,1.542,1.542,1.542,1.542,1.542,1.542,1.542,1.542,1.542,1.542,1.542,1.542,1.542,1.542,1.542,1.542,1.5613,1.5816,1.6036,1.6226,1.6454,1.3646,1.3586,1.3434,1.3293,1.3371,1.4291,1.5335,1.6349,1.7309,1.7812,1.809,1.8099,1.822,1.8265,1.8473,1.9219,2.0188,2.0507,2.0321,1.9834,1.9902,1.9531,1.9072,1.8906,1.8975,1.8857,1.8486,1.8135,1.8096,1.8008,1.8164,1.8066,1.8086,1.8096,1.8208,1.8052,1.831,1.845,1.8407,1.8363,1.8303,1.8202,1.8496,1.8944,1.9011,1.9299,1.9911,2.0074,1.9846,1.911,1.8395,1.81,1.8042,1.8042,1.81,1.8008,1.8008,1.8008,1.8008,1.8008,1.8008,1.8008,1.8008,1.8042,1.7866,1.7598,1.6914,1.6163,1.5772,1.5459,1.542,1.5526,1.5439,1.541,1.542,1.542,1.542,1.542,1.542,1.542,1.542,1.542,1.542,1.542,1.542,1.542,1.542,1.542,1.542,1.542,1.542,1.542,1.542,1.542,1.542,1.542,1.542,1.542,1.542,1.542,1.542,1.542,1.542,1.542,1.542,1.542,1.542,1.5449,1.5555,1.5671,1.595,1.6322,1.6585,1.6856,1.7246,1.342,1.3186,1.32,1.3019,1.306,1.4433,1.5431,1.6108,1.7289,1.7982,1.8123,1.8179,1.8301,1.8526,1.8704,1.9401,2.0071,2.0527,2.0303,2.0019,2.0107,1.9873,1.9385,1.9307,1.9277,1.918,1.8857,1.8662,1.8672,1.8691,1.8633,1.8682,1.8672,1.8908,1.9353,1.9522,1.9534,1.9638,1.9679,1.9573,1.9274,1.8954,1.9177,1.9661,1.9595,1.9781,2.0386,2.059,2.0386,1.9911,1.9266,1.8654,1.8371,1.8496,1.8586,1.8134,1.8008,1.8008,1.8008,1.8008,1.8008,1.8008,1.8042,1.8327,1.8519,1.8302,1.7501,1.6581,1.6407,1.6222,1.6048,1.597,1.5777,1.5497,1.542,1.542,1.542,1.542,1.542,1.542,1.542,1.542,1.542,1.542,1.542,1.542,1.542,1.542,1.542,1.542,1.542,1.542,1.542,1.542,1.542,1.542,1.542,1.542,1.542,1.542,1.542,1.542,1.542,1.542,1.542,1.5661,1.5584,1.5671,1.5777,1.6007,1.6585,1.7034,1.7246,1.7523,1.7961,1.3233,1.2797,1.2953,1.286,1.2926,1.466,1.5693,1.6177,1.7176,1.7937,1.8451,1.8367,1.8552,1.9058,1.9358,1.9678,2.0049,2.0488,2.0352,2.0215,2.0352,2.0175,1.9736,1.9541,1.9656,1.9687,1.9637,1.9453,1.9189,1.917,1.9238,1.918,1.9284,1.9811,2.0444,2.0467,2.1049,2.1419,2.1531,2.1284,2.0697,2.0151,2.0053,2.0762,2.0215,2.0333,2.1195,2.1322,2.1132,2.091,2.0515,1.9901,1.8967,1.9486,1.9354,1.8293,1.8042,1.8008,1.8008,1.8008,1.8008,1.8008,1.8371,1.9166,1.9619,1.9219,1.7838,1.7113,1.6817,1.7164,1.6945,1.6641,1.6132,1.5613,1.542,1.542,1.542,1.542,1.542,1.542,1.542,1.542,1.542,1.542,1.542,1.542,1.542,1.542,1.542,1.542,1.542,1.542,1.542,1.542,1.542,1.542,1.542,1.542,1.542,1.542,1.542,1.542,1.5497,1.5748,1.613,1.633,1.614,1.595,1.6122,1.651,1.7274,1.7743,1.7922,1.8328,1.8794,1.306,1.2795,1.2505,1.2838,1.3615,1.4764,1.5726,1.643,1.6742,1.726,1.7982,1.772,1.7998,1.8785,1.959,2.0068,2.0381,2.0537,2.0546,2.0468,2.0546,2.0527,2.0419,2.0458,2.0312,2.0273,2.0331,1.9989,1.959,1.9414,1.9346,1.9385,1.9534,1.9887,2.1062,2.1225,2.125,2.1957,2.2128,2.1913,2.1484,2.1295,2.1419,2.1654,2.1632,2.1765,2.2396,2.2463,2.231,2.1834,2.2341,2.1822,2.0739,2.0835,1.9901,1.871,1.8008,1.8008,1.8042,1.8236,1.8327,1.862,1.9266,2.0919,2.1146,2.0171,1.8956,1.9452,1.8283,1.7704,1.7862,1.7209,1.6337,1.5777,1.5555,1.5468,1.542,1.542,1.542,1.542,1.542,1.542,1.542,1.542,1.542,1.542,1.542,1.542,1.542,1.542,1.542,1.542,1.542,1.542,1.542,1.542,1.541,1.542,1.5439,1.5439,1.542,1.5526,1.6083,1.6358,1.68,1.6884,1.6557,1.6454,1.6521,1.709,1.7934,1.834,1.857,1.9044,1.9475,1.2804,1.2516,1.2351,1.2842,1.3774,1.4772,1.5411,1.5965,1.6932,1.731,1.7361,1.7833,1.8474,1.9321,2.0039,2.041,2.0586,2.0615,2.0615,2.0615,2.0615,2.0615,2.0586,2.0605,2.0615,2.0615,2.0595,2.0449,2.0087,2.0018,2.0038,2.0018,2.0103,2.092,2.1865,2.2266,2.2719,2.3087,2.3072,2.305,2.3117,2.289,2.2755,2.302,2.2614,2.2707,2.2971,2.3095,2.2975,2.2628,2.3005,2.2811,2.2113,2.1822,2.1259,2.1184,1.9977,1.911,1.8303,1.8944,1.9233,1.9398,1.9977,2.0547,2.1514,2.1218,2.0066,1.9829,1.9177,1.8892,1.8885,1.8148,1.7627,1.6984,1.6169,1.5825,1.569,1.5439,1.542,1.542,1.542,1.5459,1.5488,1.5526,1.5555,1.5555,1.5526,1.5497,1.5468,1.542,1.542,1.542,1.542,1.542,1.542,1.542,1.5439,1.5439,1.5526,1.5497,1.541,1.5642,1.6169,1.7013,1.7693,1.7567,1.7079,1.7246,1.7605,1.8097,1.8608,1.89,1.915,1.9333,1.9669,1.2536,1.2311,1.2305,1.2945,1.4099,1.4914,1.5376,1.5763,1.6975,1.7273,1.7313,1.8223,1.9368,1.998,2.041,2.0576,2.0605,2.0615,2.0615,2.0615,2.0615,2.0615,2.0615,2.0615,2.0615,2.0615,2.0615,2.0556,2.0576,2.0556,2.0517,2.0615,2.0478,2.1369,2.2558,2.2926,2.3162,2.4213,2.4272,2.4469,2.4661,2.4316,2.4108,2.3892,2.3545,2.313,2.3261,2.3133,2.3095,2.3065,2.3065,2.3005,2.2811,2.2506,2.2402,2.2329,2.1635,2.0846,2.0139,2.0193,2.0558,2.059,2.0878,2.131,2.1729,2.1928,2.1813,2.0946,2.0341,2.0201,2.0015,1.9342,1.8695,1.8006,1.7163,1.6676,1.6312,1.6355,1.5934,1.5498,1.5537,1.5576,1.5624,1.5671,1.569,1.5719,1.5661,1.5661,1.5719,1.5777,1.5748,1.5825,1.5806,1.5719,1.5497,1.5497,1.5497,1.5633,1.5719,1.5604,1.5604,1.5748,1.6169,1.7124,1.8436,1.865,1.8421,1.8581,1.8727,1.8753,1.8912,1.9423,1.9721,1.9798,1.9798,1.2325,1.2305,1.2298,1.3375,1.5057,1.5163,1.5685,1.6358,1.6636,1.7012,1.7549,1.8907,1.998,2.0449,2.0546,2.0615,2.0615,2.0615,2.0615,2.0615,2.0615,2.0615,2.0615,2.0615,2.0615,2.0615,2.0615,2.0615,2.0615,2.0615,2.0615,2.0605,2.0828,2.1336,2.1924,2.243,2.3492,2.4637,2.5218,2.5481,2.5561,2.5365,2.5173,2.4718,2.4255,2.3948,2.3916,2.3459,2.3208,2.3208,2.3133,2.3095,2.3035,2.2914,2.2944,2.2871,2.2811,2.2237,2.2021,2.1259,2.0719,2.1069,2.1698,2.2433,2.2628,2.1916,2.1887,2.236,2.1651,2.1505,2.1253,2.0742,1.9745,1.9156,1.8511,1.8194,1.7865,1.7672,1.7141,1.6022,1.5779,1.6087,1.6163,1.6312,1.614,1.6151,1.6518,1.6518,1.6631,1.6659,1.6461,1.6433,1.6386,1.6197,1.5719,1.5777,1.6197,1.6386,1.6489,1.6159,1.5853,1.6054,1.6054,1.7965,1.9307,1.9527,1.9618,1.9293,1.9044,1.8965,1.915,1.9605,1.9798,1.9798,1.9798,1.2622,1.3098,1.2556,1.3411,1.5199,1.5199,1.572,1.6489,1.6602,1.7344,1.851,1.95,2.0156,2.0507,2.0615,2.0615,2.0615,2.0615,2.0615,2.0615,2.0615,2.0615,2.0615,2.0615,2.0615,2.0615,2.0615,2.0615,2.0615,2.0683,2.1088,2.126,2.1479,2.1621,2.1924,2.2291,2.3588,2.4909,2.5276,2.4979,2.6192,2.6135,2.5896,2.531,2.5184,2.4795,2.4494,2.3966,2.3722,2.3547,2.3296,2.3183,2.3095,2.3095,2.3095,2.3095,2.3095,2.3095,2.3095,2.2463,2.2175,2.2206,2.275,2.3095,2.3095,2.2616,2.2616,2.2768,2.272,2.2443,2.2005,2.1226,2.0404,2.0146,1.98,1.9471,1.9194,1.8822,1.8616,1.7606,1.714,1.7067,1.7045,1.7024,1.6782,1.6595,1.7052,1.7457,1.7594,1.7677,1.7528,1.7363,1.7346,1.7024,1.6585,1.6782,1.7062,1.7107,1.7208,1.6929,1.6518,1.5719,1.6159,1.829,1.9798,1.9773,1.9669,1.9527,1.9423,1.9345,1.9449,1.9721,1.9798,1.9798,1.9798,1.3273,1.4063,1.373,1.4327,1.5517,1.534,1.572,1.6585,1.707,1.8005,1.9502,1.9922,2.0292,2.0546,2.0615,2.0615,2.0615,2.0615,2.0615,2.0615,2.0615,2.0615,2.0615,2.0615,2.0615,2.0615,2.0615,2.0615,2.0605,2.0867,2.1336,2.1924,2.2553,2.2813,2.2542,2.2914,2.3988,2.5099,2.5381,2.4898,2.6405,2.6449,2.6361,2.5824,2.5636,2.5372,2.4983,2.4544,2.413,2.3898,2.3647,2.3358,2.3195,2.3095,2.3095,2.3095,2.3095,2.3095,2.3095,2.3095,2.3078,2.2914,2.2975,2.3095,2.3095,2.3095,2.3035,2.3035,2.3053,2.2932,2.2481,2.1834,2.1377,2.1104,2.0059,1.9643,1.9643,1.9442,1.9522,1.9254,1.8691,1.7843,1.7644,1.7622,1.7731,1.7688,1.8205,1.8608,1.8821,1.8847,1.8741,1.8596,1.8436,1.8031,1.7605,1.7743,1.7813,1.7633,1.7704,1.7813,1.7346,1.6574,1.6733,1.8756,1.9798,1.9798,1.9747,1.9631,1.9695,1.9747,1.9798,1.9798,1.9798,1.9798,1.9798,1.4235,1.5226,1.6,1.6384,1.6463,1.5579,1.5799,1.6874,1.7948,1.8964,1.9834,2.0331,2.0537,2.0615,2.0615,2.0615,2.0615,2.0615,2.0615,2.0615,2.0615,2.0615,2.0615,2.0615,2.0615,2.0615,2.0605,2.0644,2.076,2.1375,2.1849,2.2776,2.3854,2.4409,2.3661,2.4373,2.4933,2.5146,2.5861,2.6094,2.6418,2.6487,2.6411,2.6273,2.5984,2.5686,2.5523,2.5084,2.4669,2.4343,2.4111,2.371,2.317,2.3108,2.3095,2.3095,2.3095,2.3095,2.3095,2.3095,2.3095,2.3095,2.3095,2.3095,2.3095,2.3095,2.3095,2.3095,2.3095,2.3095,2.284,2.2614,2.2285,2.1775,2.0713,2.0049,2.0087,1.9798,1.9798,1.9798,1.9187,1.852,1.8262,1.8167,1.8516,1.8847,1.9371,1.9669,1.9721,1.9669,1.9449,1.9333,1.9123,1.8821,1.8447,1.8555,1.8555,1.8328,1.8301,1.8501,1.8661,1.837,1.8835,1.9747,1.9798,1.9798,1.9798,1.9798,1.9798,1.9798,1.9798,1.9798,1.9798,1.9798,1.9798,1.5261,1.6105,1.5799,1.6393,1.7285,1.6541,1.668,1.759,1.8598,1.9394,1.9922,2.041,2.0605,2.0615,2.0615,2.0615,2.0615,2.0615,2.0615,2.0615,2.0615,2.0615,2.0615,2.0615,2.0615,2.0605,2.0634,2.1039,2.1555,2.2103,2.2999,2.4047,2.5063,2.5734,2.5205,2.5028,2.448,2.5616,2.5851,2.5769,2.6383,2.6487,2.6487,2.6487,2.626,2.6147,2.6109,2.5586,2.5209,2.4895,2.4707,2.396,2.3283,2.3095,2.3095,2.3095,2.3095,2.3095,2.3095,2.3095,2.3095,2.3095,2.3095,2.3095,2.3095,2.3095,2.3095,2.3095,2.3095,2.3095,2.3007,2.2957,2.2719,2.2406,2.1606,2.0928,2.0614,2.0075,1.9798,1.9798,1.9416,1.9314,1.9113,1.8847,1.9085,1.9228,1.9643,1.9721,1.9773,1.9773,1.9669,1.9669,1.9527,1.9371,1.9254,1.9176,1.9202,1.9097,1.915,1.9359,1.9527,1.9489,1.9579,1.9798,1.9798,1.9798,1.9798,1.9798,1.9798,1.9798,1.9798,1.9798,1.9798,1.9798,1.9798,1.5755,1.6489,1.593,1.6358,1.732,1.6853,1.7278,1.842,1.9199,1.9746,2.0146,2.0488,2.0615,2.0615,2.0615,2.0615,2.0615,2.0615,2.0615,2.0615,2.0615,2.0615,2.0615,2.0615,2.0615,2.0673,2.1011,2.1489,2.1962,2.2739,2.3927,2.524,2.6164,2.6267,2.5978,2.5464,2.524,2.6129,2.606,2.5955,2.6349,2.6487,2.6487,2.6487,2.6449,2.6461,2.6373,2.6147,2.5787,2.5536,2.5121,2.433,2.3609,2.3108,2.3108,2.3095,2.3095,2.3095,2.3095,2.3095,2.3095,2.3095,2.3095,2.3095,2.3095,2.3095,2.3095,2.3095,2.3095,2.3095,2.3095,2.3095,2.297,2.2644,2.2418,2.1729,2.1566,2.1079,2.0464,2.0388,1.9874,1.9861,1.9836,1.9747,1.9631,1.9721,1.9798,1.9798,1.9798,1.9798,1.9798,1.9798,1.9773,1.9643,1.9579,1.9631,1.9669,1.9773,1.9798,1.9798,1.9798,1.9657,1.9747,1.9798,1.9798,1.9798,1.9798,1.9798,1.9798,1.9798,1.9798,1.9798,1.9798,1.9798,1.9798,1.579,1.6602,1.6602,1.6636,1.6671,1.6866,1.7776,1.9307,1.9717,2.0137,2.0586,2.0576,2.0605,2.0615,2.0615,2.0615,2.0615,2.0615,2.0615,2.0615,2.0615,2.0615,2.0615,2.0615,2.0615,2.0905,2.1375,2.1886,2.2291,2.3916,2.5394,2.6117,2.6383,2.6487,2.6336,2.6233,2.6164,2.6349,2.6383,2.6314,2.6487,2.6487,2.6487,2.6487,2.6487,2.6487,2.6449,2.6373,2.6122,2.6034,2.6034,2.4983,2.4067,2.3183,2.312,2.3095,2.3095,2.3095,2.3095,2.3095,2.3095,2.3095,2.3095,2.3095,2.3095,2.3095,2.3095,2.3095,2.3095,2.3095,2.3095,2.3095,2.3083,2.3007,2.3007,2.2819,2.2844,2.2368,2.1653,2.1064,2.0288,2.0012,1.9987,1.9949,1.9911,1.9798,1.9798,1.9798,1.9798,1.9798,1.9798,1.9798,1.9798,1.9798,1.9798,1.9798,1.9798,1.9798,1.9798,1.9798,1.9798,1.9798,1.9798,1.9798,1.9798,1.9798,1.9798,1.9798,1.9798,1.9798,1.9824,1.9798,1.9798,1.9798,1.9798,1.6749,1.7501,1.6897,1.7001,1.7665,1.828,1.9,1.9727,1.9893,2.0156,2.0615,2.0615,2.0615,2.0615,2.0615,2.0615,2.0615,2.0615,2.0615,2.0615,2.0615,2.0615,2.0615,2.0615,2.0615,2.0972,2.1555,2.2504,2.3393,2.5063,2.606,2.6452,2.6487,2.6487,2.6487,2.6487,2.6487,2.6487,2.6487,2.6487,2.6487,2.6487,2.6487,2.6487,2.6487,2.6487,2.6487,2.6487,2.6311,2.6348,2.6386,2.5858,2.5757,2.4117,2.3095,2.3095,2.3095,2.3095,2.3095,2.3095,2.3095,2.3095,2.3095,2.3095,2.3095,2.3095,2.3095,2.3095,2.3095,2.3095,2.3095,2.3095,2.3095,2.3095,2.3095,2.3095,2.3095,2.2907,2.2255,2.1967,2.1167,2.0439,2.0376,2.0162,2.01,1.9911,1.9798,1.9798,1.9798,1.9798,1.9798,1.9798,1.9798,1.9798,1.9798,1.9798,1.9798,1.9798,1.9798,1.9798,1.9798,1.9798,1.9798,1.9798,1.9798,1.9798,1.9798,1.9798,1.9824,1.9824,1.9824,1.9824,1.9824,1.9952,2.0016,1.6941,1.7329,1.6853,1.735,1.8533,1.9248,1.9775,2.0117,2.0176,2.038,2.0595,2.0615,2.0615,2.0615,2.0615,2.0615,2.0615,2.0615,2.0615,2.0615,2.0615,2.0615,2.0615,2.0683,2.0895,2.1298,2.2113,2.322,2.4289,2.5464,2.6487,2.6487,2.6487,2.6487,2.6487,2.6487,2.6487,2.6487,2.6487,2.6487,2.6487,2.6487,2.6487,2.6487,2.6487,2.6487,2.6487,2.6487,2.6487,2.6487,2.6487,2.6474,2.6084,2.4406,2.3421,2.3384,2.3221,2.3158,2.3095,2.3095,2.3095,2.3095,2.3095,2.3095,2.3095,2.3095,2.3095,2.3095,2.3095,2.3095,2.3095,2.3095,2.3095,2.3095,2.3095,2.3095,2.3095,2.3095,2.2945,2.2807,2.2171,2.1292,2.0867,2.0603,2.0426,2.0451,2.0175,1.9798,1.9798,1.9798,1.9798,1.9798,1.9798,1.9798,1.9798,1.9798,1.9798,1.9798,1.9798,1.9798,1.9798,1.9798,1.9798,1.9798,1.9798,1.9798,1.9798,1.9824,1.9824,1.9927,2.0169,2.0408,2.0459,2.0459,2.0534,1.6655,1.6784,1.6742,1.7812,1.929,1.9727,2.0137,2.0586,2.0566,2.0605,2.0615,2.0615,2.0615,2.0615,2.0615,2.0615,2.0615,2.0615,2.0615,2.0615,2.0615,2.0615,2.0644,2.076,2.1221,2.2103,2.311,2.4145,2.5063,2.5978,2.6487,2.6487,2.6487,2.6487,2.6487,2.6487,2.6487,2.6487,2.6487,2.6487,2.6487,2.6487,2.6487,2.6487,2.6487,2.6487,2.6487,2.6487,2.6487,2.6487,2.6487,2.6487,2.5644,2.4946,2.4286,2.3659,2.3434,2.3258,2.3145,2.3095,2.3095,2.3095,2.3095,2.3095,2.3095,2.3095,2.3095,2.3095,2.3095,2.3095,2.3095,2.3095,2.3095,2.3095,2.3095,2.3095,2.3095,2.3095,2.3058,2.2857,2.241,2.1656,2.1481,2.123,2.0941,2.1029,2.084,2.025,1.9899,1.9899,1.9974,1.9949,1.9798,1.9798,1.9798,1.9798,1.9798,1.9798,1.9798,1.9798,1.9798,1.9798,1.9798,1.9798,1.9798,1.9798,1.9798,1.9824,2.0029,2.0434,2.0721,2.1088,2.1186,2.1186,2.1075,1.7035,1.7676,1.7983,1.8795,1.9679,1.9873,2.0166,2.0595,2.0615,2.0615,2.0615,2.0615,2.0615,2.0615,2.0615,2.0615,2.0615,2.0615,2.0615,2.0615,2.0615,2.0615,2.0789,2.1231,2.1735,2.2467,2.3624,2.5111,2.5873,2.6336,2.6487,2.6487,2.6487,2.6487,2.6487,2.6487,2.6487,2.6487,2.6487,2.6487,2.6487,2.6487,2.6487,2.6487,2.6487,2.6487,2.6487,2.6487,2.6487,2.6487,2.6487,2.6197,2.5619,2.5607,2.4808,2.376,2.3697,2.3459,2.3195,2.3095,2.3095,2.3095,2.3095,2.3095,2.3095,2.3095,2.3095,2.3095,2.3095,2.3095,2.3095,2.3095,2.3095,2.3095,2.3095,2.3095,2.3095,2.3095,2.3095,2.2794,2.2418,2.2246,2.2083,2.187,2.1581,2.143,2.1368,2.0978,2.0363,2.0175,2.0401,2.0338,1.9886,1.9811,1.9849,1.9798,1.9798,1.9798,1.9798,1.9798,1.9798,1.9798,1.9798,1.9798,1.9798,1.9927,1.9978,1.9875,2.0144,2.0845,2.1237,2.1571,2.2067,2.2207,2.1936,1.764,1.8315,1.8919,1.9436,1.9902,2.0117,2.0342,2.0576,2.0615,2.0615,2.0615,2.0615,2.0615,2.0615,2.0615,2.0615,2.0615,2.0615,2.0615,2.0615,2.0615,2.0615,2.0972,2.1631,2.2253,2.2988,2.4684,2.6025,2.6418,2.6487,2.6487,2.6487,2.6487,2.6487,2.6487,2.6487,2.6487,2.6487,2.6487,2.6487,2.6487,2.6487,2.6487,2.6487,2.6487,2.6487,2.6487,2.6487,2.6487,2.6487,2.6487,2.6386,2.6122,2.6172,2.5795,2.4921,2.433,2.3753,2.3308,2.312,2.312,2.312,2.3095,2.3095,2.3095,2.3095,2.3095,2.3095,2.3095,2.3095,2.3095,2.3095,2.3095,2.3095,2.3095,2.3095,2.3095,2.3095,2.3095,2.2995,2.2769,2.2719,2.2606,2.2581,2.2343,2.2343,2.2221,2.2121,2.1455,2.0828,2.0953,2.0903,2.0564,2.0243,2.0284,2.0066,1.9798,1.9798,1.9911,1.9811,1.9823,1.9811,1.9798,1.985,2.0003,2.0295,2.0295,2.0283,2.0917,2.1738,2.1941,2.2058,2.2566,2.3031,2.2778,1.8344,1.8851,1.9553,1.9913,2.0049,2.0429,2.0595,2.0615,2.0615,2.0615,2.0615,2.0615,2.0615,2.0615,2.0615,2.0615,2.0615,2.0615,2.0615,2.0615,2.0615,2.0828,2.127,2.1811,2.2914,2.4133,2.5604,2.6164,2.6487,2.6487,2.6487,2.6487,2.6487,2.6487,2.6487,2.6487,2.6487,2.6487,2.6487,2.6487,2.6487,2.6487,2.6487,2.6487,2.6487,2.6487,2.6487,2.6487,2.6487,2.6487,2.6487,2.6436,2.6399,2.6424,2.6424,2.5808,2.4946,2.4117,2.3358,2.3246,2.3195,2.3145,2.312,2.3095,2.3095,2.3095,2.3095,2.3095,2.3095,2.3095,2.3095,2.3095,2.3095,2.3095,2.3095,2.3095,2.3095,2.3095,2.3095,2.3095,2.3083,2.3058,2.3058,2.3058,2.307,2.3095,2.3095,2.3095,2.2882,2.2343,2.2092,2.1904,2.1578,2.1268,2.091,2.0576,2.025,2.0275,2.0388,2.0075,1.9924,2.0188,2.0227,1.9927,2.0131,2.0586,2.0894,2.0966,2.1738,2.2537,2.242,2.2429,2.2972,2.3363,2.3465,1.8939,1.966,1.9863,2.0117,2.0449,2.0566,2.0615,2.0615,2.0615,2.0615,2.0615,2.0615,2.0615,2.0615,2.0615,2.0615,2.0615,2.0615,2.0615,2.0615,2.0615,2.1049,2.1821,2.2702,2.4241,2.5381,2.6198,2.6371,2.6487,2.6487,2.6487,2.6487,2.6487,2.6487,2.6487,2.6487,2.6487,2.6487,2.6487,2.6487,2.6487,2.6487,2.6487,2.6487,2.6487,2.6487,2.6487,2.6487,2.6487,2.6487,2.6487,2.6487,2.6487,2.6487,2.6487,2.6323,2.5485,2.4707,2.4067,2.3728,2.3627,2.312,2.3095,2.3095,2.3095,2.3095,2.3095,2.3095,2.3095,2.3095,2.3095,2.3095,2.3095,2.3095,2.3095,2.3095,2.3095,2.3095,2.3095,2.3095,2.3095,2.3083,2.3083,2.3083,2.3083,2.3095,2.3095,2.3095,2.3095,2.3095,2.3095,2.2782,2.2418,2.2046,2.1539,2.1253,2.1004,2.0991,2.0853,2.0564,2.0526,2.0865,2.0833,2.0836,2.0781,2.1052,2.1293,2.2042,2.2339,2.2959,2.2735,2.2799,2.3393,2.3834,2.4044]}]]